Wetterdaten: Dienstag, 18.07.2017
Datum Zeit Temp. A. Pool Temp. Feuchte A. Luftdruck Regen Wind Richtung Richtung Sonnenschein ET UV Solar Taupunkt Windchill Windben Empfang
18.07.2017 00:00 18,8 C 23,3 C 74 % 1018,6 hPa 0,0 l/m 2,6 km/h (1 Bft) S 190 0 min 0,000 mm 0,0 UV-I 0 W/m 14,1 C 18,8 C 3,2 km/h (1 Bft) 95,74 %
18.07.2017 00:02 18,8 C 23,3 C 74 % 1018,5 hPa 0,0 l/m 3,2 km/h (1 Bft) S 190 0 min 0,000 mm 0,0 UV-I 0 W/m 14,1 C 18,8 C 4,8 km/h (1 Bft) 97,67 %
18.07.2017 00:04 18,6 C 23,3 C 74 % 1018,5 hPa 0,0 l/m 2,0 km/h (1 Bft) S 190 0 min 0,000 mm 0,0 UV-I 0 W/m 13,9 C 18,6 C 3,2 km/h (1 Bft) 97,44 %
18.07.2017 00:06 18,3 C 23,3 C 74 % 1018,6 hPa 0,0 l/m 0,1 km/h (0 Bft) S 190 0 min 0,000 mm 0,0 UV-I 0 W/m 13,6 C 18,3 C 1,6 km/h (1 Bft) 98,00 %
18.07.2017 00:08 18,2 C 23,3 C 75 % 1018,6 hPa 0,0 l/m 0,0 km/h (0 Bft) S 190 0 min 0,000 mm 0,0 UV-I 0 W/m 13,7 C 18,2 C 0,0 km/h (0 Bft) 100,00 %
18.07.2017 00:10 18,1 C 23,3 C 75 % 1018,5 hPa 0,0 l/m 0,0 km/h (0 Bft) S 190 0 min 0,000 mm 0,0 UV-I 0 W/m 13,6 C 18,1 C 0,0 km/h (0 Bft) 97,87 %
18.07.2017 00:12 18,2 C 23,3 C 75 % 1018,5 hPa 0,0 l/m 0,0 km/h (0 Bft) S 190 0 min 0,000 mm 0,0 UV-I 0 W/m 13,7 C 18,2 C 0,0 km/h (0 Bft) 97,62 %
18.07.2017 00:14 18,3 C 23,3 C 75 % 1018,6 hPa 0,0 l/m 0,0 km/h (0 Bft) S 190 0 min 0,000 mm 0,0 UV-I 0 W/m 13,8 C 18,3 C 0,0 km/h (0 Bft) 100,00 %
18.07.2017 00:16 18,3 C 23,3 C 74 % 1018,5 hPa 0,0 l/m 0,3 km/h (0 Bft) S 190 0 min 0,000 mm 0,0 UV-I 0 W/m 13,6 C 18,3 C 3,2 km/h (1 Bft) 97,37 %
18.07.2017 00:18 18,3 C 23,3 C 75 % 1018,5 hPa 0,0 l/m 0,6 km/h (0 Bft) S 190 0 min 0,000 mm 0,0 UV-I 0 W/m 13,8 C 18,3 C 1,6 km/h (1 Bft) 100,00 %
18.07.2017 00:20 18,1 C 23,3 C 75 % 1018,6 hPa 0,0 l/m 1,0 km/h (0 Bft) S 190 0 min 0,000 mm 0,0 UV-I 0 W/m 13,6 C 18,1 C 1,6 km/h (1 Bft) 97,37 %
18.07.2017 00:22 18,1 C 23,3 C 75 % 1018,6 hPa 0,0 l/m 2,0 km/h (1 Bft) S 190 0 min 0,000 mm 0,0 UV-I 0 W/m 13,6 C 18,1 C 4,8 km/h (1 Bft) 95,92 %
18.07.2017 00:24 18,1 C 23,3 C 74 % 1018,6 hPa 0,0 l/m 5,0 km/h (1 Bft) S-SO 168 0 min 0,000 mm 0,0 UV-I 0 W/m 13,4 C 18,1 C 8,0 km/h (2 Bft) 98,00 %
18.07.2017 00:26 18,1 C 23,3 C 75 % 1018,6 hPa 0,0 l/m 1,6 km/h (1 Bft) S-SO 168 0 min 0,000 mm 0,0 UV-I 0 W/m 13,6 C 18,1 C 3,2 km/h (1 Bft) 96,00 %
18.07.2017 00:28 18,1 C 23,3 C 75 % 1018,6 hPa 0,0 l/m 0,0 km/h (0 Bft) S-SO 168 0 min 0,000 mm 0,0 UV-I 0 W/m 13,6 C 18,1 C 0,0 km/h (0 Bft) 93,62 %
18.07.2017 00:30 18,1 C 23,3 C 75 % 1018,6 hPa 0,0 l/m 0,0 km/h (0 Bft) S-SO 168 0 min 0,000 mm 0,0 UV-I 0 W/m 13,6 C 18,1 C 0,0 km/h (0 Bft) 97,37 %
18.07.2017 00:32 18,1 C 23,3 C 75 % 1018,6 hPa 0,0 l/m 0,2 km/h (0 Bft) S-SO 168 0 min 0,000 mm 0,0 UV-I 0 W/m 13,6 C 18,1 C 1,6 km/h (1 Bft) 95,74 %
18.07.2017 00:34 17,9 C 23,3 C 76 % 1018,6 hPa 0,0 l/m 1,9 km/h (1 Bft) S-SO 168 0 min 0,000 mm 0,0 UV-I 0 W/m 13,6 C 17,9 C 3,2 km/h (1 Bft) 95,74 %
18.07.2017 00:36 17,8 C 23,3 C 77 % 1018,6 hPa 0,0 l/m 2,1 km/h (1 Bft) S-SO 168 0 min 0,000 mm 0,0 UV-I 0 W/m 13,7 C 17,8 C 6,4 km/h (2 Bft) 94,34 %
18.07.2017 00:38 17,7 C 23,3 C 77 % 1018,7 hPa 0,0 l/m 3,4 km/h (1 Bft) S-SO 168 0 min 0,000 mm 0,0 UV-I 0 W/m 13,6 C 17,7 C 6,4 km/h (2 Bft) 97,37 %
18.07.2017 00:40 17,6 C 23,3 C 78 % 1018,6 hPa 0,0 l/m 3,5 km/h (1 Bft) S-SO 168 0 min 0,000 mm 0,0 UV-I 0 W/m 13,7 C 17,6 C 6,4 km/h (2 Bft) 97,22 %
18.07.2017 00:42 17,6 C 23,3 C 78 % 1018,6 hPa 0,0 l/m 5,1 km/h (1 Bft) S-SO 168 0 min 0,000 mm 0,0 UV-I 0 W/m 13,7 C 17,6 C 6,4 km/h (2 Bft) 98,21 %
18.07.2017 00:44 17,4 C 23,3 C 78 % 1018,6 hPa 0,0 l/m 3,7 km/h (1 Bft) S-SO 168 0 min 0,000 mm 0,0 UV-I 0 W/m 13,5 C 17,4 C 6,4 km/h (2 Bft) 98,00 %
18.07.2017 00:46 17,4 C 23,3 C 78 % 1018,6 hPa 0,0 l/m 3,3 km/h (1 Bft) S-SO 168 0 min 0,000 mm 0,0 UV-I 0 W/m 13,5 C 17,4 C 6,4 km/h (2 Bft) 97,73 %
18.07.2017 00:48 17,3 C 23,3 C 79 % 1018,6 hPa 0,0 l/m 3,0 km/h (1 Bft) S-SO 168 0 min 0,000 mm 0,0 UV-I 0 W/m 13,6 C 17,3 C 6,4 km/h (2 Bft) 92,45 %
18.07.2017 00:50 17,4 C 23,3 C 79 % 1018,6 hPa 0,0 l/m 4,1 km/h (1 Bft) S-SO 168 0 min 0,000 mm 0,0 UV-I 0 W/m 13,7 C 17,4 C 8,0 km/h (2 Bft) 96,00 %
18.07.2017 00:52 17,5 C 23,3 C 79 % 1018,6 hPa 0,0 l/m 5,7 km/h (1 Bft) S 173 0 min 0,000 mm 0,0 UV-I 0 W/m 13,8 C 17,5 C 9,7 km/h (2 Bft) 95,74 %
18.07.2017 00:54 17,6 C 23,3 C 78 % 1018,6 hPa 0,0 l/m 5,3 km/h (1 Bft) S-SW 194 0 min 0,000 mm 0,0 UV-I 0 W/m 13,7 C 17,6 C 9,7 km/h (2 Bft) 98,00 %
18.07.2017 00:56 17,7 C 23,3 C 78 % 1018,6 hPa 0,0 l/m 4,3 km/h (1 Bft) S-SW 194 0 min 0,000 mm 0,0 UV-I 0 W/m 13,8 C 17,7 C 6,4 km/h (2 Bft) 95,12 %
18.07.2017 00:58 17,7 C 23,3 C 78 % 1018,6 hPa 0,0 l/m 3,6 km/h (1 Bft) S-SW 194 0 min 0,000 mm 0,0 UV-I 0 W/m 13,8 C 17,7 C 6,4 km/h (2 Bft) 98,00 %
18.07.2017 01:00 17,7 C 23,3 C 78 % 1018,5 hPa 0,0 l/m 2,1 km/h (1 Bft) S-SW 194 0 min 0,025 mm 0,0 UV-I 0 W/m 13,8 C 17,7 C 4,8 km/h (1 Bft) 100,00 %
18.07.2017 01:02 17,7 C 23,3 C 78 % 1018,5 hPa 0,0 l/m 2,2 km/h (1 Bft) S-SW 194 0 min 0,000 mm 0,0 UV-I 0 W/m 13,8 C 17,7 C 4,8 km/h (1 Bft) 96,00 %
18.07.2017 01:04 17,7 C 23,3 C 77 % 1018,6 hPa 0,0 l/m 2,3 km/h (1 Bft) S 188 0 min 0,000 mm 0,0 UV-I 0 W/m 13,6 C 17,7 C 3,2 km/h (1 Bft) 97,87 %
18.07.2017 01:06 17,7 C 23,3 C 77 % 1018,6 hPa 0,0 l/m 1,1 km/h (1 Bft) S 188 0 min 0,000 mm 0,0 UV-I 0 W/m 13,6 C 17,7 C 3,2 km/h (1 Bft) 94,74 %
18.07.2017 01:08 17,6 C 23,3 C 77 % 1018,5 hPa 0,0 l/m 1,0 km/h (0 Bft) S 188 0 min 0,000 mm 0,0 UV-I 0 W/m 13,5 C 17,6 C 3,2 km/h (1 Bft) 100,00 %
18.07.2017 01:10 17,6 C 23,3 C 77 % 1018,5 hPa 0,0 l/m 1,9 km/h (1 Bft) S 188 0 min 0,000 mm 0,0 UV-I 0 W/m 13,5 C 17,6 C 3,2 km/h (1 Bft) 100,00 %
18.07.2017 01:12 17,7 C 23,3 C 77 % 1018,5 hPa 0,0 l/m 3,3 km/h (1 Bft) S 188 0 min 0,000 mm 0,0 UV-I 0 W/m 13,6 C 17,7 C 6,4 km/h (2 Bft) 98,00 %
18.07.2017 01:14 17,8 C 23,3 C 77 % 1018,5 hPa 0,0 l/m 2,5 km/h (1 Bft) S 188 0 min 0,000 mm 0,0 UV-I 0 W/m 13,7 C 17,8 C 4,8 km/h (1 Bft) 92,11 %
18.07.2017 01:16 17,8 C 23,3 C 76 % 1018,5 hPa 0,0 l/m 0,4 km/h (0 Bft) S 188 0 min 0,000 mm 0,0 UV-I 0 W/m 13,5 C 17,8 C 1,6 km/h (1 Bft) 98,00 %
18.07.2017 01:18 17,8 C 23,3 C 76 % 1018,6 hPa 0,0 l/m 0,4 km/h (0 Bft) S 188 0 min 0,000 mm 0,0 UV-I 0 W/m 13,5 C 17,8 C 1,6 km/h (1 Bft) 97,87 %
18.07.2017 01:20 17,7 C 23,3 C 76 % 1018,6 hPa 0,0 l/m 3,5 km/h (1 Bft) S 188 0 min 0,000 mm 0,0 UV-I 0 W/m 13,4 C 17,7 C 4,8 km/h (1 Bft) 100,00 %
18.07.2017 01:22 17,6 C 23,3 C 77 % 1018,6 hPa 0,0 l/m 2,5 km/h (1 Bft) S 188 0 min 0,000 mm 0,0 UV-I 0 W/m 13,5 C 17,6 C 4,8 km/h (1 Bft) 97,87 %
18.07.2017 01:24 17,5 C 23,3 C 77 % 1018,6 hPa 0,0 l/m 0,4 km/h (0 Bft) S 188 0 min 0,000 mm 0,0 UV-I 0 W/m 13,4 C 17,5 C 1,6 km/h (1 Bft) 95,24 %
18.07.2017 01:26 17,4 C 23,3 C 78 % 1018,6 hPa 0,0 l/m 0,8 km/h (0 Bft) S 188 0 min 0,000 mm 0,0 UV-I 0 W/m 13,5 C 17,4 C 1,6 km/h (1 Bft) 98,00 %
18.07.2017 01:28 17,4 C 23,3 C 79 % 1018,6 hPa 0,0 l/m 0,9 km/h (0 Bft) S 188 0 min 0,000 mm 0,0 UV-I 0 W/m 13,7 C 17,4 C 3,2 km/h (1 Bft) 98,00 %
18.07.2017 01:30 17,4 C 23,3 C 78 % 1018,6 hPa 0,0 l/m 0,2 km/h (0 Bft) S 188 0 min 0,000 mm 0,0 UV-I 0 W/m 13,5 C 17,4 C 1,6 km/h (1 Bft) 97,56 %
18.07.2017 01:32 17,4 C 23,3 C 78 % 1018,6 hPa 0,0 l/m 0,3 km/h (0 Bft) S 188 0 min 0,000 mm 0,0 UV-I 0 W/m 13,5 C 17,4 C 1,6 km/h (1 Bft) 98,11 %
18.07.2017 01:34 17,3 C 22,8 C 78 % 1018,6 hPa 0,0 l/m 0,0 km/h (0 Bft) S 188 0 min 0,000 mm 0,0 UV-I 0 W/m 13,4 C 17,3 C 0,0 km/h (0 Bft) 97,56 %
18.07.2017 01:36 17,0 C 23,3 C 79 % 1018,6 hPa 0,0 l/m 0,0 km/h (0 Bft) S 188 0 min 0,000 mm 0,0 UV-I 0 W/m 13,3 C 17,0 C 0,0 km/h (0 Bft) 98,00 %
18.07.2017 01:38 16,8 C 23,3 C 80 % 1018,6 hPa 0,0 l/m 0,0 km/h (0 Bft) S 188 0 min 0,000 mm 0,0 UV-I 0 W/m 13,3 C 16,8 C 0,0 km/h (0 Bft) 95,74 %
18.07.2017 01:40 16,7 C 23,3 C 81 % 1018,7 hPa 0,0 l/m 0,0 km/h (0 Bft) S 188 0 min 0,000 mm 0,0 UV-I 0 W/m 13,4 C 16,7 C 0,0 km/h (0 Bft) 98,00 %
18.07.2017 01:42 16,6 C 23,3 C 81 % 1018,6 hPa 0,0 l/m 0,0 km/h (0 Bft) S 188 0 min 0,000 mm 0,0 UV-I 0 W/m 13,3 C 16,6 C 0,0 km/h (0 Bft) 100,00 %
18.07.2017 01:44 16,5 C 22,8 C 82 % 1018,6 hPa 0,0 l/m 0,0 km/h (0 Bft) S 188 0 min 0,000 mm 0,0 UV-I 0 W/m 13,4 C 16,5 C 1,6 km/h (1 Bft) 95,74 %
18.07.2017 01:46 16,5 C 22,8 C 82 % 1018,6 hPa 0,0 l/m 1,1 km/h (1 Bft) S 188 0 min 0,000 mm 0,0 UV-I 0 W/m 13,4 C 16,5 C 3,2 km/h (1 Bft) 100,00 %
18.07.2017 01:48 16,5 C 22,8 C 82 % 1018,6 hPa 0,0 l/m 1,1 km/h (1 Bft) S 188 0 min 0,000 mm 0,0 UV-I 0 W/m 13,4 C 16,5 C 1,6 km/h (1 Bft) 97,73 %
18.07.2017 01:50 16,6 C 22,8 C 82 % 1018,6 hPa 0,0 l/m 0,8 km/h (0 Bft) S 188 0 min 0,000 mm 0,0 UV-I 0 W/m 13,5 C 16,6 C 3,2 km/h (1 Bft) 96,00 %
18.07.2017 01:52 16,6 C 22,8 C 82 % 1018,6 hPa 0,0 l/m 0,9 km/h (0 Bft) S 188 0 min 0,000 mm 0,0 UV-I 0 W/m 13,5 C 16,6 C 1,6 km/h (1 Bft) 100,00 %
18.07.2017 01:54 16,6 C 22,8 C 82 % 1018,6 hPa 0,0 l/m 2,0 km/h (1 Bft) S 188 0 min 0,000 mm 0,0 UV-I 0 W/m 13,5 C 16,6 C 3,2 km/h (1 Bft) 97,87 %
18.07.2017 01:56 16,6 C 22,8 C 82 % 1018,6 hPa 0,0 l/m 1,8 km/h (1 Bft) S 188 0 min 0,000 mm 0,0 UV-I 0 W/m 13,5 C 16,6 C 3,2 km/h (1 Bft) 100,00 %
18.07.2017 01:58 16,6 C 22,8 C 82 % 1018,6 hPa 0,0 l/m 3,0 km/h (1 Bft) S 188 0 min 0,000 mm 0,0 UV-I 0 W/m 13,5 C 16,6 C 4,8 km/h (1 Bft) 97,44 %
18.07.2017 02:00 16,6 C 22,8 C 82 % 1018,6 hPa 0,0 l/m 2,5 km/h (1 Bft) S 188 0 min 0,000 mm 0,0 UV-I 0 W/m 13,5 C 16,6 C 3,2 km/h (1 Bft) 100,00 %
18.07.2017 02:02 16,6 C 22,8 C 81 % 1018,6 hPa 0,0 l/m 2,7 km/h (1 Bft) S 188 0 min 0,000 mm 0,0 UV-I 0 W/m 13,3 C 16,6 C 3,2 km/h (1 Bft) 97,96 %
18.07.2017 02:04 16,5 C 22,8 C 81 % 1018,6 hPa 0,0 l/m 3,4 km/h (1 Bft) S 188 0 min 0,000 mm 0,0 UV-I 0 W/m 13,2 C 16,5 C 4,8 km/h (1 Bft) 97,92 %
18.07.2017 02:06 16,4 C 22,8 C 82 % 1018,6 hPa 0,0 l/m 2,2 km/h (1 Bft) S 188 0 min 0,000 mm 0,0 UV-I 0 W/m 13,3 C 16,4 C 3,2 km/h (1 Bft) 97,37 %
18.07.2017 02:08 16,3 C 22,8 C 82 % 1018,6 hPa 0,0 l/m 1,9 km/h (1 Bft) S 188 0 min 0,000 mm 0,0 UV-I 0 W/m 13,2 C 16,3 C 3,2 km/h (1 Bft) 100,00 %
18.07.2017 02:10 16,3 C 22,8 C 83 % 1018,6 hPa 0,0 l/m 1,8 km/h (1 Bft) S 188 0 min 0,000 mm 0,0 UV-I 0 W/m 13,4 C 16,3 C 3,2 km/h (1 Bft) 98,11 %
18.07.2017 02:12 16,2 C 22,8 C 83 % 1018,6 hPa 0,0 l/m 2,4 km/h (1 Bft) S 188 0 min 0,000 mm 0,0 UV-I 0 W/m 13,3 C 16,2 C 3,2 km/h (1 Bft) 100,00 %
18.07.2017 02:14 16,3 C 22,8 C 83 % 1018,6 hPa 0,0 l/m 2,7 km/h (1 Bft) S 188 0 min 0,000 mm 0,0 UV-I 0 W/m 13,4 C 16,3 C 3,2 km/h (1 Bft) 98,00 %
18.07.2017 02:16 16,3 C 22,8 C 82 % 1018,6 hPa 0,0 l/m 2,2 km/h (1 Bft) S 188 0 min 0,000 mm 0,0 UV-I 0 W/m 13,2 C 16,3 C 3,2 km/h (1 Bft) 95,74 %
18.07.2017 02:18 16,3 C 22,8 C 82 % 1018,6 hPa 0,0 l/m 2,8 km/h (1 Bft) S 188 0 min 0,000 mm 0,0 UV-I 0 W/m 13,2 C 16,3 C 4,8 km/h (1 Bft) 95,74 %
18.07.2017 02:20 16,3 C 22,8 C 82 % 1018,6 hPa 0,0 l/m 3,4 km/h (1 Bft) S 188 0 min 0,000 mm 0,0 UV-I 0 W/m 13,2 C 16,3 C 4,8 km/h (1 Bft) 95,74 %
18.07.2017 02:22 16,3 C 22,8 C 82 % 1018,6 hPa 0,0 l/m 3,5 km/h (1 Bft) S 188 0 min 0,000 mm 0,0 UV-I 0 W/m 13,2 C 16,3 C 4,8 km/h (1 Bft) 98,00 %
18.07.2017 02:24 16,4 C 22,8 C 82 % 1018,6 hPa 0,0 l/m 3,4 km/h (1 Bft) S 188 0 min 0,000 mm 0,0 UV-I 0 W/m 13,3 C 16,4 C 4,8 km/h (1 Bft) 95,74 %
18.07.2017 02:26 16,3 C 22,8 C 82 % 1018,6 hPa 0,0 l/m 3,9 km/h (1 Bft) S 188 0 min 0,000 mm 0,0 UV-I 0 W/m 13,2 C 16,3 C 4,8 km/h (1 Bft) 95,74 %
18.07.2017 02:28 16,3 C 22,8 C 82 % 1018,5 hPa 0,0 l/m 2,7 km/h (1 Bft) S 188 0 min 0,000 mm 0,0 UV-I 0 W/m 13,2 C 16,3 C 4,8 km/h (1 Bft) 93,62 %
18.07.2017 02:30 16,1 C 22,8 C 82 % 1018,5 hPa 0,0 l/m 2,0 km/h (1 Bft) S 188 0 min 0,000 mm 0,0 UV-I 0 W/m 13,0 C 16,1 C 3,2 km/h (1 Bft) 89,36 %
18.07.2017 02:32 15,9 C 22,8 C 82 % 1018,6 hPa 0,0 l/m 1,1 km/h (1 Bft) S 188 0 min 0,000 mm 0,0 UV-I 0 W/m 12,8 C 15,9 C 3,2 km/h (1 Bft) 93,62 %
18.07.2017 02:34 15,8 C 22,8 C 83 % 1018,6 hPa 0,0 l/m 1,2 km/h (1 Bft) S 188 0 min 0,000 mm 0,0 UV-I 0 W/m 12,9 C 15,8 C 3,2 km/h (1 Bft) 93,62 %
18.07.2017 02:36 15,8 C 22,8 C 83 % 1018,5 hPa 0,0 l/m 1,1 km/h (1 Bft) S 188 0 min 0,000 mm 0,0 UV-I 0 W/m 12,9 C 15,8 C 3,2 km/h (1 Bft) 95,74 %
18.07.2017 02:38 15,7 C 22,8 C 83 % 1018,5 hPa 0,0 l/m 0,7 km/h (0 Bft) S 188 0 min 0,000 mm 0,0 UV-I 0 W/m 12,8 C 15,7 C 3,2 km/h (1 Bft) 91,49 %
18.07.2017 02:40 15,8 C 22,8 C 84 % 1018,5 hPa 0,0 l/m 1,7 km/h (1 Bft) S 188 0 min 0,000 mm 0,0 UV-I 0 W/m 13,1 C 15,8 C 3,2 km/h (1 Bft) 97,22 %
18.07.2017 02:42 15,9 C 22,8 C 84 % 1018,5 hPa 0,0 l/m 2,4 km/h (1 Bft) S 188 0 min 0,000 mm 0,0 UV-I 0 W/m 13,2 C 15,9 C 3,2 km/h (1 Bft) 92,00 %
18.07.2017 02:44 16,0 C 22,8 C 83 % 1018,5 hPa 0,0 l/m 2,2 km/h (1 Bft) S 188 0 min 0,000 mm 0,0 UV-I 0 W/m 13,1 C 16,0 C 3,2 km/h (1 Bft) 94,00 %
18.07.2017 02:46 16,1 C 22,8 C 83 % 1018,5 hPa 0,0 l/m 1,5 km/h (1 Bft) S 188 0 min 0,000 mm 0,0 UV-I 0 W/m 13,2 C 16,1 C 3,2 km/h (1 Bft) 95,74 %
18.07.2017 02:48 16,1 C 22,8 C 83 % 1018,5 hPa 0,0 l/m 1,7 km/h (1 Bft) S 188 0 min 0,000 mm 0,0 UV-I 0 W/m 13,2 C 16,1 C 3,2 km/h (1 Bft) 93,62 %
18.07.2017 02:50 16,1 C 22,8 C 83 % 1018,5 hPa 0,0 l/m 2,7 km/h (1 Bft) S 188 0 min 0,000 mm 0,0 UV-I 0 W/m 13,2 C 16,1 C 4,8 km/h (1 Bft) 91,49 %
18.07.2017 02:52 16,0 C 22,8 C 83 % 1018,4 hPa 0,0 l/m 3,9 km/h (1 Bft) S 188 0 min 0,000 mm 0,0 UV-I 0 W/m 13,1 C 16,0 C 4,8 km/h (1 Bft) 94,00 %
18.07.2017 02:54 16,0 C 22,8 C 83 % 1018,4 hPa 0,0 l/m 4,8 km/h (1 Bft) S 188 0 min 0,000 mm 0,0 UV-I 0 W/m 13,1 C 16,0 C 6,4 km/h (2 Bft) 88,57 %
18.07.2017 02:56 15,9 C 22,8 C 83 % 1018,4 hPa 0,0 l/m 3,7 km/h (1 Bft) S 188 0 min 0,000 mm 0,0 UV-I 0 W/m 13,0 C 15,9 C 4,8 km/h (1 Bft) 94,00 %
18.07.2017 02:58 15,8 C 22,8 C 83 % 1018,4 hPa 0,0 l/m 1,8 km/h (1 Bft) S 188 0 min 0,000 mm 0,0 UV-I 0 W/m 12,9 C 15,8 C 3,2 km/h (1 Bft) 95,74 %
18.07.2017 03:00 15,8 C 22,8 C 84 % 1018,4 hPa 0,0 l/m 0,8 km/h (0 Bft) S 188 0 min 0,000 mm 0,0 UV-I 0 W/m 13,1 C 15,8 C 1,6 km/h (1 Bft) 93,62 %
18.07.2017 03:02 15,7 C 22,8 C 83 % 1018,4 hPa 0,0 l/m 0,0 km/h (0 Bft) S 188 0 min 0,000 mm 0,0 UV-I 0 W/m 12,8 C 15,7 C 1,6 km/h (1 Bft) 95,74 %
18.07.2017 03:04 15,6 C 22,8 C 84 % 1018,4 hPa 0,0 l/m 0,0 km/h (0 Bft) S 188 0 min 0,000 mm 0,0 UV-I 0 W/m 12,9 C 15,6 C 0,0 km/h (0 Bft) 93,62 %
18.07.2017 03:06 15,6 C 22,8 C 84 % 1018,4 hPa 0,0 l/m 0,1 km/h (0 Bft) S 188 0 min 0,000 mm 0,0 UV-I 0 W/m 12,9 C 15,6 C 1,6 km/h (1 Bft) 97,87 %
18.07.2017 03:08 15,6 C 22,8 C 84 % 1018,4 hPa 0,0 l/m 2,0 km/h (1 Bft) S 188 0 min 0,000 mm 0,0 UV-I 0 W/m 12,9 C 15,6 C 3,2 km/h (1 Bft) 91,49 %
18.07.2017 03:10 15,7 C 22,8 C 84 % 1018,4 hPa 0,0 l/m 2,5 km/h (1 Bft) S 188 0 min 0,000 mm 0,0 UV-I 0 W/m 13,0 C 15,7 C 3,2 km/h (1 Bft) 94,34 %
18.07.2017 03:12 15,7 C 22,8 C 83 % 1018,4 hPa 0,0 l/m 1,7 km/h (1 Bft) S 188 0 min 0,000 mm 0,0 UV-I 0 W/m 12,8 C 15,7 C 3,2 km/h (1 Bft) 100,00 %
18.07.2017 03:14 15,8 C 22,8 C 83 % 1018,4 hPa 0,0 l/m 1,3 km/h (1 Bft) S 188 0 min 0,000 mm 0,0 UV-I 0 W/m 12,9 C 15,8 C 3,2 km/h (1 Bft) 97,87 %
18.07.2017 03:16 15,7 C 22,8 C 83 % 1018,4 hPa 0,0 l/m 1,5 km/h (1 Bft) S 188 0 min 0,000 mm 0,0 UV-I 0 W/m 12,8 C 15,7 C 3,2 km/h (1 Bft) 97,37 %
18.07.2017 03:18 15,6 C 22,8 C 83 % 1018,4 hPa 0,0 l/m 0,2 km/h (0 Bft) S 188 0 min 0,000 mm 0,0 UV-I 0 W/m 12,7 C 15,6 C 1,6 km/h (1 Bft) 95,83 %
18.07.2017 03:20 15,5 C 22,8 C 83 % 1018,4 hPa 0,0 l/m 0,4 km/h (0 Bft) S 188 0 min 0,000 mm 0,0 UV-I 0 W/m 12,6 C 15,5 C 1,6 km/h (1 Bft) 95,74 %
18.07.2017 03:22 15,3 C 22,8 C 84 % 1018,4 hPa 0,0 l/m 0,4 km/h (0 Bft) S 188 0 min 0,000 mm 0,0 UV-I 0 W/m 12,6 C 15,3 C 1,6 km/h (1 Bft) 100,00 %
18.07.2017 03:24 15,3 C 22,8 C 84 % 1018,4 hPa 0,0 l/m 0,1 km/h (0 Bft) S 188 0 min 0,000 mm 0,0 UV-I 0 W/m 12,6 C 15,3 C 1,6 km/h (1 Bft) 97,87 %
18.07.2017 03:26 15,2 C 22,8 C 85 % 1018,4 hPa 0,0 l/m 0,9 km/h (0 Bft) S 188 0 min 0,000 mm 0,0 UV-I 0 W/m 12,7 C 15,2 C 1,6 km/h (1 Bft) 100,00 %
18.07.2017 03:28 15,3 C 22,8 C 85 % 1018,5 hPa 0,0 l/m 2,0 km/h (1 Bft) S 188 0 min 0,000 mm 0,0 UV-I 0 W/m 12,8 C 15,3 C 3,2 km/h (1 Bft) 98,00 %
18.07.2017 03:30 15,3 C 22,8 C 85 % 1018,5 hPa 0,0 l/m 2,9 km/h (1 Bft) S 188 0 min 0,000 mm 0,0 UV-I 0 W/m 12,8 C 15,3 C 4,8 km/h (1 Bft) 97,87 %
18.07.2017 03:32 15,4 C 22,8 C 84 % 1018,4 hPa 0,0 l/m 3,8 km/h (1 Bft) S 188 0 min 0,000 mm 0,0 UV-I 0 W/m 12,7 C 15,4 C 4,8 km/h (1 Bft) 100,00 %
18.07.2017 03:34 15,5 C 22,8 C 84 % 1018,4 hPa 0,0 l/m 3,4 km/h (1 Bft) S 185 0 min 0,000 mm 0,0 UV-I 0 W/m 12,8 C 15,5 C 4,8 km/h (1 Bft) 97,87 %
18.07.2017 03:36 15,5 C 22,8 C 83 % 1018,4 hPa 0,0 l/m 3,3 km/h (1 Bft) S 185 0 min 0,000 mm 0,0 UV-I 0 W/m 12,6 C 15,5 C 4,8 km/h (1 Bft) 100,00 %
18.07.2017 03:38 15,4 C 22,8 C 84 % 1018,4 hPa 0,0 l/m 0,8 km/h (0 Bft) S 185 0 min 0,000 mm 0,0 UV-I 0 W/m 12,7 C 15,4 C 3,2 km/h (1 Bft) 97,87 %
18.07.2017 03:40 15,3 C 22,8 C 84 % 1018,4 hPa 0,0 l/m 1,7 km/h (1 Bft) S 185 0 min 0,000 mm 0,0 UV-I 0 W/m 12,6 C 15,3 C 3,2 km/h (1 Bft) 95,74 %
18.07.2017 03:42 15,2 C 22,8 C 84 % 1018,4 hPa 0,0 l/m 1,9 km/h (1 Bft) S 185 0 min 0,000 mm 0,0 UV-I 0 W/m 12,5 C 15,2 C 3,2 km/h (1 Bft) 97,87 %
18.07.2017 03:44 15,1 C 22,8 C 84 % 1018,4 hPa 0,0 l/m 1,5 km/h (1 Bft) S 185 0 min 0,000 mm 0,0 UV-I 0 W/m 12,4 C 15,1 C 3,2 km/h (1 Bft) 100,00 %
18.07.2017 03:46 15,1 C 22,8 C 85 % 1018,4 hPa 0,0 l/m 2,5 km/h (1 Bft) S 185 0 min 0,000 mm 0,0 UV-I 0 W/m 12,6 C 15,1 C 3,2 km/h (1 Bft) 97,87 %
18.07.2017 03:48 15,1 C 22,8 C 85 % 1018,4 hPa 0,0 l/m 3,4 km/h (1 Bft) S 185 0 min 0,000 mm 0,0 UV-I 0 W/m 12,6 C 15,1 C 4,8 km/h (1 Bft) 100,00 %
18.07.2017 03:50 15,1 C 22,8 C 85 % 1018,4 hPa 0,0 l/m 3,6 km/h (1 Bft) S 185 0 min 0,000 mm 0,0 UV-I 0 W/m 12,6 C 15,1 C 4,8 km/h (1 Bft) 97,87 %
18.07.2017 03:52 15,0 C 22,8 C 85 % 1018,3 hPa 0,0 l/m 3,3 km/h (1 Bft) S 185 0 min 0,000 mm 0,0 UV-I 0 W/m 12,5 C 15,0 C 4,8 km/h (1 Bft) 97,87 %
18.07.2017 03:54 15,0 C 22,8 C 85 % 1018,4 hPa 0,0 l/m 3,0 km/h (1 Bft) S 185 0 min 0,000 mm 0,0 UV-I 0 W/m 12,5 C 15,0 C 4,8 km/h (1 Bft) 97,87 %
18.07.2017 03:56 15,0 C 22,8 C 85 % 1018,3 hPa 0,0 l/m 2,6 km/h (1 Bft) S 185 0 min 0,000 mm 0,0 UV-I 0 W/m 12,5 C 15,0 C 3,2 km/h (1 Bft) 97,87 %
18.07.2017 03:58 14,9 C 22,8 C 85 % 1018,4 hPa 0,0 l/m 2,3 km/h (1 Bft) S 185 0 min 0,000 mm 0,0 UV-I 0 W/m 12,4 C 14,9 C 4,8 km/h (1 Bft) 100,00 %
18.07.2017 04:00 14,8 C 22,8 C 86 % 1018,4 hPa 0,0 l/m 3,7 km/h (1 Bft) S 185 0 min 0,000 mm 0,0 UV-I 0 W/m 12,5 C 14,8 C 4,8 km/h (1 Bft) 97,87 %
18.07.2017 04:02 14,8 C 22,8 C 86 % 1018,4 hPa 0,0 l/m 1,9 km/h (1 Bft) S 185 0 min 0,000 mm 0,0 UV-I 0 W/m 12,5 C 14,8 C 3,2 km/h (1 Bft) 100,00 %
18.07.2017 04:04 14,7 C 22,8 C 86 % 1018,4 hPa 0,0 l/m 0,9 km/h (0 Bft) S 185 0 min 0,000 mm 0,0 UV-I 0 W/m 12,4 C 14,7 C 3,2 km/h (1 Bft) 95,74 %
18.07.2017 04:06 14,7 C 22,8 C 86 % 1018,4 hPa 0,0 l/m 0,4 km/h (0 Bft) S 185 0 min 0,000 mm 0,0 UV-I 0 W/m 12,4 C 14,7 C 1,6 km/h (1 Bft) 100,00 %
18.07.2017 04:08 14,6 C 22,8 C 87 % 1018,4 hPa 0,0 l/m 0,9 km/h (0 Bft) S 185 0 min 0,000 mm 0,0 UV-I 0 W/m 12,5 C 14,6 C 1,6 km/h (1 Bft) 100,00 %
18.07.2017 04:10 14,7 C 22,8 C 87 % 1018,4 hPa 0,0 l/m 0,0 km/h (0 Bft) S 185 0 min 0,000 mm 0,0 UV-I 0 W/m 12,6 C 14,7 C 0,0 km/h (0 Bft) 100,00 %
18.07.2017 04:12 14,7 C 22,8 C 87 % 1018,3 hPa 0,0 l/m 0,0 km/h (0 Bft) S 185 0 min 0,000 mm 0,0 UV-I 0 W/m 12,6 C 14,7 C 0,0 km/h (0 Bft) 96,00 %
18.07.2017 04:14 14,7 C 22,8 C 87 % 1018,4 hPa 0,0 l/m 0,0 km/h (0 Bft) S 185 0 min 0,000 mm 0,0 UV-I 0 W/m 12,6 C 14,7 C 0,0 km/h (0 Bft) 97,87 %
18.07.2017 04:16 14,7 C 22,8 C 87 % 1018,3 hPa 0,0 l/m 0,0 km/h (0 Bft) S 185 0 min 0,000 mm 0,0 UV-I 0 W/m 12,6 C 14,7 C 0,0 km/h (0 Bft) 92,11 %
18.07.2017 04:18 14,7 C 22,8 C 87 % 1018,4 hPa 0,0 l/m 0,0 km/h (0 Bft) S 185 0 min 0,000 mm 0,0 UV-I 0 W/m 12,6 C 14,7 C 0,0 km/h (0 Bft) 97,87 %
18.07.2017 04:20 14,7 C 22,8 C 87 % 1018,3 hPa 0,0 l/m 0,0 km/h (0 Bft) S 185 0 min 0,000 mm 0,0 UV-I 0 W/m 12,6 C 14,7 C 0,0 km/h (0 Bft) 95,74 %
18.07.2017 04:22 14,6 C 22,8 C 87 % 1018,3 hPa 0,0 l/m 0,7 km/h (0 Bft) S 185 0 min 0,000 mm 0,0 UV-I 0 W/m 12,5 C 14,6 C 3,2 km/h (1 Bft) 95,83 %
18.07.2017 04:24 14,6 C 22,8 C 86 % 1018,3 hPa 0,0 l/m 2,0 km/h (1 Bft) S 185 0 min 0,000 mm 0,0 UV-I 0 W/m 12,3 C 14,6 C 3,2 km/h (1 Bft) 100,00 %
18.07.2017 04:26 14,4 C 22,8 C 86 % 1018,3 hPa 0,0 l/m 0,2 km/h (0 Bft) S 185 0 min 0,000 mm 0,0 UV-I 0 W/m 12,1 C 14,4 C 1,6 km/h (1 Bft) 97,87 %
18.07.2017 04:28 14,3 C 22,8 C 87 % 1018,3 hPa 0,0 l/m 0,0 km/h (0 Bft) S 185 0 min 0,000 mm 0,0 UV-I 0 W/m 12,2 C 14,3 C 0,0 km/h (0 Bft) 100,00 %
18.07.2017 04:30 14,3 C 22,8 C 87 % 1018,3 hPa 0,0 l/m 1,0 km/h (0 Bft) S 185 0 min 0,000 mm 0,0 UV-I 0 W/m 12,2 C 14,3 C 3,2 km/h (1 Bft) 95,74 %
18.07.2017 04:32 14,4 C 22,8 C 87 % 1018,3 hPa 0,0 l/m 2,0 km/h (1 Bft) S 185 0 min 0,000 mm 0,0 UV-I 0 W/m 12,3 C 14,4 C 3,2 km/h (1 Bft) 95,74 %
18.07.2017 04:34 14,4 C 22,8 C 88 % 1018,2 hPa 0,0 l/m 0,3 km/h (0 Bft) S 185 0 min 0,000 mm 0,0 UV-I 0 W/m 12,4 C 14,4 C 1,6 km/h (1 Bft) 95,74 %
18.07.2017 04:36 14,4 C 22,8 C 88 % 1018,2 hPa 0,0 l/m 0,0 km/h (0 Bft) S 185 0 min 0,000 mm 0,0 UV-I 0 W/m 12,4 C 14,4 C 0,0 km/h (0 Bft) 95,83 %
18.07.2017 04:38 14,4 C 22,8 C 88 % 1018,2 hPa 0,0 l/m 0,0 km/h (0 Bft) S 185 0 min 0,000 mm 0,0 UV-I 0 W/m 12,4 C 14,4 C 0,0 km/h (0 Bft) 97,87 %
18.07.2017 04:40 14,5 C 22,8 C 88 % 1018,3 hPa 0,0 l/m 0,0 km/h (0 Bft) S 185 0 min 0,000 mm 0,0 UV-I 0 W/m 12,5 C 14,5 C 0,0 km/h (0 Bft) 96,00 %
18.07.2017 04:42 14,5 C 22,8 C 88 % 1018,2 hPa 0,0 l/m 0,1 km/h (0 Bft) S 185 0 min 0,000 mm 0,0 UV-I 0 W/m 12,5 C 14,5 C 3,2 km/h (1 Bft) 97,87 %
18.07.2017 04:44 14,5 C 22,8 C 87 % 1018,2 hPa 0,0 l/m 3,6 km/h (1 Bft) S 185 0 min 0,000 mm 0,0 UV-I 0 W/m 12,4 C 14,5 C 4,8 km/h (1 Bft) 96,00 %
18.07.2017 04:46 14,5 C 22,8 C 87 % 1018,2 hPa 0,0 l/m 3,0 km/h (1 Bft) S 185 0 min 0,000 mm 0,0 UV-I 0 W/m 12,4 C 14,5 C 4,8 km/h (1 Bft) 93,62 %
18.07.2017 04:48 14,4 C 22,8 C 87 % 1018,2 hPa 0,0 l/m 1,8 km/h (1 Bft) S 185 0 min 0,000 mm 0,0 UV-I 0 W/m 12,3 C 14,4 C 3,2 km/h (1 Bft) 95,74 %
18.07.2017 04:50 14,4 C 22,8 C 87 % 1018,2 hPa 0,0 l/m 0,1 km/h (0 Bft) S 185 0 min 0,000 mm 0,0 UV-I 0 W/m 12,3 C 14,4 C 1,6 km/h (1 Bft) 97,87 %
18.07.2017 04:52 14,4 C 22,8 C 87 % 1018,2 hPa 0,0 l/m 1,8 km/h (1 Bft) S 185 0 min 0,000 mm 0,0 UV-I 0 W/m 12,3 C 14,4 C 3,2 km/h (1 Bft) 94,74 %
18.07.2017 04:54 14,4 C 22,8 C 87 % 1018,2 hPa 0,0 l/m 0,0 km/h (0 Bft) S 185 0 min 0,000 mm 0,0 UV-I 0 W/m 12,3 C 14,4 C 1,6 km/h (1 Bft) 97,87 %
18.07.2017 04:56 14,4 C 22,8 C 87 % 1018,2 hPa 0,0 l/m 0,0 km/h (0 Bft) S 185 0 min 0,000 mm 0,0 UV-I 0 W/m 12,3 C 14,4 C 0,0 km/h (0 Bft) 94,00 %
18.07.2017 04:58 14,3 C 22,8 C 87 % 1018,2 hPa 0,0 l/m 0,0 km/h (0 Bft) S 185 0 min 0,000 mm 0,0 UV-I 0 W/m 12,2 C 14,3 C 1,6 km/h (1 Bft) 95,74 %
18.07.2017 05:00 14,2 C 22,8 C 87 % 1018,2 hPa 0,0 l/m 0,4 km/h (0 Bft) S 185 0 min 0,000 mm 0,0 UV-I 0 W/m 12,1 C 14,2 C 1,6 km/h (1 Bft) 93,75 %
18.07.2017 05:02 14,1 C 22,8 C 87 % 1018,2 hPa 0,0 l/m 0,5 km/h (0 Bft) S 185 0 min 0,000 mm 0,0 UV-I 0 W/m 12,0 C 14,1 C 3,2 km/h (1 Bft) 93,62 %
18.07.2017 05:04 14,2 C 22,8 C 88 % 1018,2 hPa 0,0 l/m 0,0 km/h (0 Bft) S 185 0 min 0,000 mm 0,0 UV-I 0 W/m 12,2 C 14,2 C 0,0 km/h (0 Bft) 97,87 %
18.07.2017 05:06 14,2 C 22,8 C 88 % 1018,2 hPa 0,0 l/m 0,7 km/h (0 Bft) S 185 0 min 0,000 mm 0,0 UV-I 0 W/m 12,2 C 14,2 C 1,6 km/h (1 Bft) 93,62 %
18.07.2017 05:08 14,3 C 22,8 C 88 % 1018,2 hPa 0,0 l/m 0,5 km/h (0 Bft) S 185 0 min 0,000 mm 0,0 UV-I 5 W/m 12,3 C 14,3 C 3,2 km/h (1 Bft) 97,87 %
18.07.2017 05:10 14,2 C 22,8 C 87 % 1018,2 hPa 0,0 l/m 0,0 km/h (0 Bft) S 185 0 min 0,000 mm 0,0 UV-I 5 W/m 12,1 C 14,2 C 1,6 km/h (1 Bft) 97,87 %
18.07.2017 05:12 14,2 C 22,8 C 87 % 1018,2 hPa 0,0 l/m 0,7 km/h (0 Bft) S 185 0 min 0,000 mm 0,0 UV-I 5 W/m 12,1 C 14,2 C 1,6 km/h (1 Bft) 97,87 %
18.07.2017 05:14 14,2 C 22,8 C 87 % 1018,2 hPa 0,0 l/m 0,1 km/h (0 Bft) S 185 0 min 0,000 mm 0,0 UV-I 5 W/m 12,1 C 14,2 C 1,6 km/h (1 Bft) 97,87 %
18.07.2017 05:16 14,1 C 22,8 C 87 % 1018,2 hPa 0,0 l/m 0,0 km/h (0 Bft) S 185 0 min 0,000 mm 0,0 UV-I 6 W/m 12,0 C 14,1 C 0,0 km/h (0 Bft) 100,00 %
18.07.2017 05:18 14,1 C 22,8 C 87 % 1018,2 hPa 0,0 l/m 0,0 km/h (0 Bft) S 185 0 min 0,000 mm 0,0 UV-I 7 W/m 12,0 C 14,1 C 0,0 km/h (0 Bft) 95,74 %
18.07.2017 05:20 14,1 C 22,8 C 88 % 1018,3 hPa 0,0 l/m 0,0 km/h (0 Bft) S 185 0 min 0,000 mm 0,0 UV-I 7 W/m 12,1 C 14,1 C 0,0 km/h (0 Bft) 100,00 %
18.07.2017 05:22 14,1 C 22,8 C 88 % 1018,2 hPa 0,0 l/m 0,0 km/h (0 Bft) S 185 0 min 0,000 mm 0,0 UV-I 7 W/m 12,1 C 14,1 C 0,0 km/h (0 Bft) 97,92 %
18.07.2017 05:24 14,1 C 22,8 C 88 % 1018,2 hPa 0,0 l/m 0,0 km/h (0 Bft) S 185 0 min 0,000 mm 0,0 UV-I 9 W/m 12,1 C 14,1 C 0,0 km/h (0 Bft) 97,87 %
18.07.2017 05:26 14,1 C 22,8 C 88 % 1018,2 hPa 0,0 l/m 0,0 km/h (0 Bft) S 185 0 min 0,000 mm 0,0 UV-I 9 W/m 12,1 C 14,1 C 0,0 km/h (0 Bft) 100,00 %
18.07.2017 05:28 14,1 C 22,8 C 87 % 1018,2 hPa 0,0 l/m 0,0 km/h (0 Bft) S 185 0 min 0,000 mm 0,0 UV-I 10 W/m 12,0 C 14,1 C 0,0 km/h (0 Bft) 97,87 %
18.07.2017 05:30 14,1 C 22,8 C 88 % 1018,2 hPa 0,0 l/m 0,0 km/h (0 Bft) S 185 0 min 0,000 mm 0,0 UV-I 11 W/m 12,1 C 14,1 C 0,0 km/h (0 Bft) 93,62 %
18.07.2017 05:32 14,1 C 22,8 C 88 % 1018,2 hPa 0,0 l/m 0,0 km/h (0 Bft) S 185 0 min 0,000 mm 0,0 UV-I 11 W/m 12,1 C 14,1 C 0,0 km/h (0 Bft) 100,00 %
18.07.2017 05:34 14,1 C 22,8 C 87 % 1018,2 hPa 0,0 l/m 0,0 km/h (0 Bft) S 185 0 min 0,000 mm 0,0 UV-I 12 W/m 12,0 C 14,1 C 0,0 km/h (0 Bft) 97,87 %
18.07.2017 05:36 14,1 C 22,8 C 87 % 1018,2 hPa 0,0 l/m 0,0 km/h (0 Bft) S 185 2 min 0,000 mm 0,0 UV-I 12 W/m 12,0 C 14,1 C 0,0 km/h (0 Bft) 97,87 %
18.07.2017 05:38 14,1 C 22,8 C 88 % 1018,3 hPa 0,0 l/m 0,0 km/h (0 Bft) S 185 2 min 0,000 mm 0,0 UV-I 14 W/m 12,1 C 14,1 C 0,0 km/h (0 Bft) 100,00 %
18.07.2017 05:40 14,1 C 22,8 C 88 % 1018,3 hPa 0,0 l/m 0,0 km/h (0 Bft) S 185 0 min 0,000 mm 0,0 UV-I 15 W/m 12,1 C 14,1 C 0,0 km/h (0 Bft) 94,74 %
18.07.2017 05:42 14,1 C 22,8 C 88 % 1018,2 hPa 0,0 l/m 0,0 km/h (0 Bft) S 185 0 min 0,000 mm 0,0 UV-I 16 W/m 12,1 C 14,1 C 0,0 km/h (0 Bft) 97,87 %
18.07.2017 05:44 14,1 C 22,8 C 88 % 1018,3 hPa 0,0 l/m 0,0 km/h (0 Bft) S 185 0 min 0,000 mm 0,0 UV-I 19 W/m 12,1 C 14,1 C 0,0 km/h (0 Bft) 97,87 %
18.07.2017 05:46 14,1 C 22,8 C 88 % 1018,3 hPa 0,0 l/m 0,1 km/h (0 Bft) S 185 2 min 0,000 mm 0,0 UV-I 25 W/m 12,1 C 14,1 C 1,6 km/h (1 Bft) 95,74 %
18.07.2017 05:48 14,0 C 22,8 C 88 % 1018,3 hPa 0,0 l/m 0,0 km/h (0 Bft) S 185 2 min 0,000 mm 0,0 UV-I 29 W/m 12,0 C 14,0 C 0,0 km/h (0 Bft) 93,62 %
18.07.2017 05:50 13,9 C 22,8 C 88 % 1018,3 hPa 0,0 l/m 0,0 km/h (0 Bft) S 185 2 min 0,000 mm 0,0 UV-I 33 W/m 11,9 C 13,9 C 0,0 km/h (0 Bft) 93,62 %
18.07.2017 05:52 13,9 C 22,8 C 88 % 1018,3 hPa 0,0 l/m 0,0 km/h (0 Bft) S 185 2 min 0,000 mm 0,0 UV-I 34 W/m 11,9 C 13,9 C 0,0 km/h (0 Bft) 93,62 %
18.07.2017 05:54 13,9 C 22,8 C 88 % 1018,3 hPa 0,0 l/m 0,0 km/h (0 Bft) S 185 2 min 0,000 mm 0,0 UV-I 36 W/m 11,9 C 13,9 C 0,0 km/h (0 Bft) 98,00 %
18.07.2017 05:56 13,9 C 22,8 C 88 % 1018,3 hPa 0,0 l/m 0,0 km/h (0 Bft) S 185 2 min 0,000 mm 0,0 UV-I 40 W/m 11,9 C 13,9 C 0,0 km/h (0 Bft) 95,74 %
18.07.2017 05:58 13,9 C 22,8 C 88 % 1018,3 hPa 0,0 l/m 0,2 km/h (0 Bft) S 185 2 min 0,000 mm 0,0 UV-I 44 W/m 11,9 C 13,9 C 1,6 km/h (1 Bft) 97,92 %
18.07.2017 06:00 14,0 C 22,8 C 89 % 1018,3 hPa 0,0 l/m 1,4 km/h (1 Bft) S 185 2 min 0,000 mm 0,0 UV-I 44 W/m 12,2 C 14,0 C 3,2 km/h (1 Bft) 95,74 %
18.07.2017 06:02 14,1 C 22,8 C 89 % 1018,3 hPa 0,0 l/m 0,0 km/h (0 Bft) S 185 0 min 0,000 mm 0,0 UV-I 39 W/m 12,3 C 14,1 C 0,0 km/h (0 Bft) 97,87 %
18.07.2017 06:04 14,1 C 22,8 C 89 % 1018,3 hPa 0,0 l/m 0,0 km/h (0 Bft) S 185 0 min 0,000 mm 0,0 UV-I 39 W/m 12,3 C 14,1 C 0,0 km/h (0 Bft) 93,62 %
18.07.2017 06:06 14,1 C 22,8 C 89 % 1018,3 hPa 0,0 l/m 0,0 km/h (0 Bft) S 185 0 min 0,000 mm 0,0 UV-I 49 W/m 12,3 C 14,1 C 0,0 km/h (0 Bft) 94,00 %
18.07.2017 06:08 14,2 C 22,8 C 89 % 1018,3 hPa 0,0 l/m 0,0 km/h (0 Bft) S 185 2 min 0,000 mm 0,0 UV-I 58 W/m 12,4 C 14,2 C 0,0 km/h (0 Bft) 91,49 %
18.07.2017 06:10 14,2 C 22,8 C 89 % 1018,3 hPa 0,0 l/m 0,0 km/h (0 Bft) S 185 2 min 0,000 mm 0,0 UV-I 62 W/m 12,4 C 14,2 C 0,0 km/h (0 Bft) 97,14 %
18.07.2017 06:12 14,2 C 22,8 C 89 % 1018,3 hPa 0,0 l/m 0,0 km/h (0 Bft) S 185 2 min 0,000 mm 0,0 UV-I 66 W/m 12,4 C 14,2 C 0,0 km/h (0 Bft) 97,87 %
18.07.2017 06:14 14,2 C 22,8 C 88 % 1018,3 hPa 0,0 l/m 0,0 km/h (0 Bft) S 185 2 min 0,000 mm 0,0 UV-I 70 W/m 12,2 C 14,2 C 0,0 km/h (0 Bft) 95,74 %
18.07.2017 06:16 14,3 C 22,8 C 88 % 1018,3 hPa 0,0 l/m 0,0 km/h (0 Bft) S 185 2 min 0,000 mm 0,0 UV-I 74 W/m 12,3 C 14,3 C 0,0 km/h (0 Bft) 94,00 %
18.07.2017 06:18 14,3 C 22,8 C 88 % 1018,3 hPa 0,0 l/m 0,0 km/h (0 Bft) S 185 2 min 0,000 mm 0,0 UV-I 77 W/m 12,3 C 14,3 C 0,0 km/h (0 Bft) 91,49 %
18.07.2017 06:20 14,3 C 22,8 C 88 % 1018,3 hPa 0,0 l/m 0,0 km/h (0 Bft) S 185 0 min 0,000 mm 0,0 UV-I 71 W/m 12,3 C 14,3 C 0,0 km/h (0 Bft) 95,74 %
18.07.2017 06:22 14,3 C 22,8 C 88 % 1018,3 hPa 0,0 l/m 0,0 km/h (0 Bft) S 185 0 min 0,000 mm 0,0 UV-I 60 W/m 12,3 C 14,3 C 0,0 km/h (0 Bft) 97,87 %
18.07.2017 06:24 14,4 C 22,8 C 88 % 1018,2 hPa 0,0 l/m 0,0 km/h (0 Bft) S 185 0 min 0,000 mm 0,0 UV-I 37 W/m 12,4 C 14,4 C 0,0 km/h (0 Bft) 95,74 %
18.07.2017 06:26 14,4 C 22,8 C 88 % 1018,3 hPa 0,0 l/m 0,0 km/h (0 Bft) S 185 0 min 0,000 mm 0,0 UV-I 36 W/m 12,4 C 14,4 C 0,0 km/h (0 Bft) 95,74 %
18.07.2017 06:28 14,6 C 22,8 C 88 % 1018,3 hPa 0,0 l/m 0,0 km/h (0 Bft) S 185 0 min 0,000 mm 0,0 UV-I 38 W/m 12,6 C 14,6 C 0,0 km/h (0 Bft) 97,87 %
18.07.2017 06:30 14,7 C 22,8 C 88 % 1018,3 hPa 0,0 l/m 0,0 km/h (0 Bft) S 185 0 min 0,000 mm 0,0 UV-I 76 W/m 12,7 C 14,7 C 0,0 km/h (0 Bft) 96,00 %
18.07.2017 06:32 14,8 C 22,8 C 88 % 1018,3 hPa 0,0 l/m 0,0 km/h (0 Bft) S 185 2 min 0,000 mm 0,0 UV-I 105 W/m 12,8 C 14,8 C 0,0 km/h (0 Bft) 95,74 %
18.07.2017 06:34 14,9 C 22,8 C 88 % 1018,3 hPa 0,0 l/m 0,0 km/h (0 Bft) S 185 2 min 0,000 mm 0,0 UV-I 110 W/m 12,9 C 14,9 C 0,0 km/h (0 Bft) 93,62 %
18.07.2017 06:36 14,9 C 22,8 C 87 % 1018,3 hPa 0,0 l/m 0,0 km/h (0 Bft) S 185 2 min 0,000 mm 0,0 UV-I 108 W/m 12,8 C 14,9 C 0,0 km/h (0 Bft) 93,62 %
18.07.2017 06:38 14,9 C 22,8 C 87 % 1018,3 hPa 0,0 l/m 0,0 km/h (0 Bft) S 185 2 min 0,000 mm 0,0 UV-I 118 W/m 12,8 C 14,9 C 0,0 km/h (0 Bft) 97,92 %
18.07.2017 06:40 14,9 C 22,8 C 87 % 1018,4 hPa 0,0 l/m 0,0 km/h (0 Bft) S 185 2 min 0,000 mm 0,0 UV-I 123 W/m 12,8 C 14,9 C 0,0 km/h (0 Bft) 93,62 %
18.07.2017 06:42 14,9 C 22,8 C 87 % 1018,4 hPa 0,0 l/m 0,0 km/h (0 Bft) S 185 2 min 0,000 mm 0,0 UV-I 126 W/m 12,8 C 14,9 C 0,0 km/h (0 Bft) 87,23 %
18.07.2017 06:44 15,1 C 22,8 C 86 % 1018,3 hPa 0,0 l/m 0,0 km/h (0 Bft) S 185 2 min 0,000 mm 0,0 UV-I 132 W/m 12,8 C 15,1 C 0,0 km/h (0 Bft) 97,87 %
18.07.2017 06:46 15,2 C 22,8 C 86 % 1018,3 hPa 0,0 l/m 0,0 km/h (0 Bft) S 185 2 min 0,000 mm 0,0 UV-I 136 W/m 12,9 C 15,2 C 0,0 km/h (0 Bft) 93,62 %
18.07.2017 06:48 15,3 C 22,8 C 86 % 1018,3 hPa 0,0 l/m 0,0 km/h (0 Bft) S 185 2 min 0,000 mm 0,0 UV-I 142 W/m 13,0 C 15,3 C 0,0 km/h (0 Bft) 97,87 %
18.07.2017 06:50 15,4 C 22,8 C 86 % 1018,3 hPa 0,0 l/m 0,0 km/h (0 Bft) S 185 2 min 0,000 mm 0,0 UV-I 148 W/m 13,1 C 15,4 C 0,0 km/h (0 Bft) 95,74 %
18.07.2017 06:52 15,6 C 22,8 C 85 % 1018,3 hPa 0,0 l/m 0,0 km/h (0 Bft) S 185 2 min 0,000 mm 0,0 UV-I 153 W/m 13,1 C 15,6 C 0,0 km/h (0 Bft) 94,74 %
18.07.2017 06:54 15,8 C 22,8 C 85 % 1018,3 hPa 0,0 l/m 0,0 km/h (0 Bft) S 185 2 min 0,000 mm 0,0 UV-I 158 W/m 13,3 C 15,8 C 0,0 km/h (0 Bft) 92,00 %
18.07.2017 06:56 15,9 C 22,8 C 85 % 1018,3 hPa 0,0 l/m 0,0 km/h (0 Bft) S 185 2 min 0,000 mm 0,0 UV-I 163 W/m 13,4 C 15,9 C 0,0 km/h (0 Bft) 93,62 %
18.07.2017 06:58 16,2 C 22,8 C 84 % 1018,3 hPa 0,0 l/m 0,0 km/h (0 Bft) S 185 2 min 0,000 mm 0,0 UV-I 167 W/m 13,5 C 16,2 C 0,0 km/h (0 Bft) 91,49 %
18.07.2017 07:00 16,3 C 22,8 C 84 % 1018,2 hPa 0,0 l/m 0,0 km/h (0 Bft) S 185 2 min 0,051 mm 0,0 UV-I 174 W/m 13,6 C 16,3 C 0,0 km/h (0 Bft) 96,00 %
18.07.2017 07:02 16,6 C 22,8 C 83 % 1018,3 hPa 0,0 l/m 0,0 km/h (0 Bft) S 185 2 min 0,000 mm 0,0 UV-I 179 W/m 13,7 C 16,6 C 0,0 km/h (0 Bft) 95,74 %
18.07.2017 07:04 16,7 C 22,8 C 83 % 1018,2 hPa 0,0 l/m 0,0 km/h (0 Bft) S 185 2 min 0,000 mm 0,0 UV-I 184 W/m 13,8 C 16,7 C 0,0 km/h (0 Bft) 95,74 %
18.07.2017 07:06 16,7 C 22,8 C 82 % 1018,3 hPa 0,0 l/m 0,0 km/h (0 Bft) S 185 2 min 0,000 mm 0,0 UV-I 190 W/m 13,6 C 16,7 C 0,0 km/h (0 Bft) 93,62 %
18.07.2017 07:08 16,7 C 22,8 C 82 % 1018,2 hPa 0,0 l/m 0,0 km/h (0 Bft) S 185 2 min 0,000 mm 0,0 UV-I 192 W/m 13,6 C 16,7 C 0,0 km/h (0 Bft) 93,62 %
18.07.2017 07:10 16,6 C 22,8 C 82 % 1018,2 hPa 0,0 l/m 0,0 km/h (0 Bft) S 185 2 min 0,000 mm 0,0 UV-I 180 W/m 13,5 C 16,6 C 0,0 km/h (0 Bft) 100,00 %
18.07.2017 07:12 16,6 C 22,8 C 82 % 1018,2 hPa 0,0 l/m 0,0 km/h (0 Bft) S 185 2 min 0,000 mm 0,0 UV-I 193 W/m 13,5 C 16,6 C 0,0 km/h (0 Bft) 95,16 %
18.07.2017 07:14 16,7 C 22,8 C 82 % 1018,3 hPa 0,0 l/m 0,0 km/h (0 Bft) S 185 2 min 0,000 mm 0,0 UV-I 199 W/m 13,6 C 16,7 C 1,6 km/h (1 Bft) 93,62 %
18.07.2017 07:16 16,8 C 22,8 C 82 % 1018,2 hPa 0,0 l/m 0,2 km/h (0 Bft) S 185 2 min 0,000 mm 0,0 UV-I 213 W/m 13,7 C 16,8 C 1,6 km/h (1 Bft) 95,74 %
18.07.2017 07:18 17,1 C 22,8 C 82 % 1018,2 hPa 0,0 l/m 0,9 km/h (0 Bft) S 185 2 min 0,000 mm 0,0 UV-I 222 W/m 14,0 C 17,1 C 4,8 km/h (1 Bft) 93,62 %
18.07.2017 07:20 17,2 C 22,8 C 81 % 1018,2 hPa 0,0 l/m 1,4 km/h (1 Bft) S 185 2 min 0,000 mm 0,4 UV-I 228 W/m 13,9 C 17,2 C 3,2 km/h (1 Bft) 97,87 %
18.07.2017 07:22 17,3 C 22,8 C 80 % 1018,2 hPa 0,0 l/m 3,5 km/h (1 Bft) O-NO 76 2 min 0,000 mm 0,5 UV-I 234 W/m 13,8 C 17,3 C 8,0 km/h (2 Bft) 97,87 %
18.07.2017 07:24 17,4 C 22,8 C 80 % 1018,2 hPa 0,0 l/m 3,7 km/h (1 Bft) O-NO 75 2 min 0,000 mm 0,5 UV-I 239 W/m 13,9 C 17,4 C 4,8 km/h (1 Bft) 94,00 %
18.07.2017 07:26 17,4 C 22,8 C 79 % 1018,2 hPa 0,0 l/m 5,5 km/h (1 Bft) O-NO 64 2 min 0,000 mm 0,5 UV-I 245 W/m 13,7 C 17,4 C 6,4 km/h (2 Bft) 93,62 %
18.07.2017 07:28 17,5 C 22,8 C 79 % 1018,2 hPa 0,0 l/m 4,3 km/h (1 Bft) O-NO 61 2 min 0,000 mm 0,5 UV-I 251 W/m 13,8 C 17,5 C 6,4 km/h (2 Bft) 91,49 %
18.07.2017 07:30 17,6 C 22,8 C 80 % 1018,2 hPa 0,0 l/m 5,3 km/h (1 Bft) NO 47 2 min 0,000 mm 0,6 UV-I 256 W/m 14,1 C 17,6 C 6,4 km/h (2 Bft) 96,00 %
18.07.2017 07:32 17,6 C 22,8 C 80 % 1018,2 hPa 0,0 l/m 4,6 km/h (1 Bft) NO 47 2 min 0,000 mm 0,6 UV-I 261 W/m 14,1 C 17,6 C 6,4 km/h (2 Bft) 100,00 %
18.07.2017 07:34 17,7 C 22,8 C 80 % 1018,1 hPa 0,0 l/m 5,2 km/h (1 Bft) NO 47 2 min 0,000 mm 0,6 UV-I 266 W/m 14,2 C 17,7 C 6,4 km/h (2 Bft) 93,62 %
18.07.2017 07:36 17,8 C 22,8 C 79 % 1018,1 hPa 0,0 l/m 3,1 km/h (1 Bft) NO 47 2 min 0,000 mm 0,6 UV-I 274 W/m 14,1 C 17,8 C 6,4 km/h (2 Bft) 95,74 %
18.07.2017 07:38 17,9 C 22,8 C 79 % 1018,1 hPa 0,0 l/m 3,2 km/h (1 Bft) NO 47 2 min 0,000 mm 0,6 UV-I 279 W/m 14,2 C 17,9 C 6,4 km/h (2 Bft) 100,00 %
18.07.2017 07:40 18,0 C 22,8 C 79 % 1018,2 hPa 0,0 l/m 3,1 km/h (1 Bft) NO 47 2 min 0,000 mm 0,7 UV-I 284 W/m 14,3 C 18,0 C 4,8 km/h (1 Bft) 100,00 %
18.07.2017 07:42 18,0 C 22,8 C 79 % 1018,1 hPa 0,0 l/m 2,2 km/h (1 Bft) NO 47 2 min 0,000 mm 0,7 UV-I 290 W/m 14,3 C 18,0 C 4,8 km/h (1 Bft) 91,49 %
18.07.2017 07:44 18,1 C 22,8 C 79 % 1018,2 hPa 0,0 l/m 1,9 km/h (1 Bft) NO 47 2 min 0,000 mm 0,7 UV-I 296 W/m 14,4 C 18,1 C 4,8 km/h (1 Bft) 97,87 %
18.07.2017 07:46 18,2 C 22,8 C 78 % 1018,1 hPa 0,0 l/m 1,7 km/h (1 Bft) NO 47 2 min 0,000 mm 0,7 UV-I 302 W/m 14,3 C 18,2 C 4,8 km/h (1 Bft) 97,37 %
18.07.2017 07:48 18,3 C 22,8 C 78 % 1018,1 hPa 0,0 l/m 2,4 km/h (1 Bft) NO 47 2 min 0,000 mm 0,8 UV-I 307 W/m 14,4 C 18,3 C 4,8 km/h (1 Bft) 100,00 %
18.07.2017 07:50 18,4 C 22,8 C 78 % 1018,2 hPa 0,0 l/m 3,5 km/h (1 Bft) NO 47 2 min 0,000 mm 0,8 UV-I 312 W/m 14,5 C 18,4 C 4,8 km/h (1 Bft) 97,92 %
18.07.2017 07:52 18,6 C 22,8 C 76 % 1018,1 hPa 0,0 l/m 2,4 km/h (1 Bft) NO 47 2 min 0,000 mm 0,8 UV-I 319 W/m 14,3 C 18,6 C 6,4 km/h (2 Bft) 95,92 %
18.07.2017 07:54 18,6 C 22,8 C 77 % 1018,1 hPa 0,0 l/m 2,6 km/h (1 Bft) NO 47 2 min 0,000 mm 0,8 UV-I 324 W/m 14,5 C 18,6 C 4,8 km/h (1 Bft) 97,92 %
18.07.2017 07:56 18,7 C 22,8 C 77 % 1018,2 hPa 0,0 l/m 0,9 km/h (0 Bft) NO 47 2 min 0,000 mm 0,9 UV-I 330 W/m 14,6 C 18,7 C 3,2 km/h (1 Bft) 100,00 %
18.07.2017 07:58 18,9 C 22,8 C 77 % 1018,2 hPa 0,0 l/m 1,8 km/h (1 Bft) NO 47 2 min 0,000 mm 0,9 UV-I 336 W/m 14,8 C 18,9 C 3,2 km/h (1 Bft) 95,74 %
18.07.2017 08:00 18,9 C 22,8 C 75 % 1018,2 hPa 0,0 l/m 1,0 km/h (0 Bft) NO 47 2 min 0,153 mm 0,9 UV-I 341 W/m 14,4 C 18,9 C 3,2 km/h (1 Bft) 100,00 %
18.07.2017 08:02 19,0 C 22,8 C 75 % 1018,2 hPa 0,0 l/m 1,1 km/h (1 Bft) NO 47 2 min 0,000 mm 0,9 UV-I 347 W/m 14,5 C 19,0 C 3,2 km/h (1 Bft) 97,87 %
18.07.2017 08:04 19,0 C 22,8 C 75 % 1018,2 hPa 0,0 l/m 1,9 km/h (1 Bft) NO 47 2 min 0,000 mm 1,0 UV-I 352 W/m 14,5 C 19,0 C 3,2 km/h (1 Bft) 97,14 %
18.07.2017 08:06 19,2 C 22,8 C 76 % 1018,1 hPa 0,0 l/m 3,0 km/h (1 Bft) NO 47 2 min 0,000 mm 1,0 UV-I 359 W/m 14,9 C 19,2 C 4,8 km/h (1 Bft) 98,04 %
18.07.2017 08:08 19,2 C 22,8 C 75 % 1018,1 hPa 0,0 l/m 1,7 km/h (1 Bft) NO 47 2 min 0,000 mm 1,0 UV-I 365 W/m 14,7 C 19,2 C 3,2 km/h (1 Bft) 95,74 %
18.07.2017 08:10 19,2 C 22,8 C 74 % 1018,1 hPa 0,0 l/m 3,2 km/h (1 Bft) NO 47 2 min 0,000 mm 1,1 UV-I 371 W/m 14,4 C 19,2 C 4,8 km/h (1 Bft) 85,11 %
18.07.2017 08:13 19,4 C 22,8 C 75 % 1018,1 hPa 0,0 l/m 2,9 km/h (1 Bft) NO 47 3 min 0,000 mm 1,1 UV-I 377 W/m 14,8 C 19,4 C 6,4 km/h (2 Bft) 95,77 %
18.07.2017 08:14 19,5 C 22,8 C 75 % 1018,1 hPa 0,0 l/m 4,0 km/h (1 Bft) NO 47 1 min 0,000 mm 1,1 UV-I 383 W/m 14,9 C 19,5 C 4,8 km/h (1 Bft) 95,65 %
18.07.2017 08:16 19,6 C 22,8 C 74 % 1018,0 hPa 0,0 l/m 3,3 km/h (1 Bft) NO 47 2 min 0,000 mm 1,2 UV-I 387 W/m 14,8 C 19,6 C 4,8 km/h (1 Bft) 98,00 %
18.07.2017 08:18 19,6 C 22,8 C 73 % 1018,0 hPa 0,0 l/m 3,5 km/h (1 Bft) NO 49 2 min 0,000 mm 1,2 UV-I 392 W/m 14,6 C 19,6 C 8,0 km/h (2 Bft) 95,74 %
18.07.2017 08:20 19,7 C 22,8 C 74 % 1018,0 hPa 0,0 l/m 4,2 km/h (1 Bft) NO 48 2 min 0,000 mm 1,2 UV-I 398 W/m 14,9 C 19,7 C 6,4 km/h (2 Bft) 96,00 %
18.07.2017 08:22 19,8 C 22,8 C 73 % 1018,0 hPa 0,0 l/m 0,7 km/h (0 Bft) NO 48 2 min 0,000 mm 1,3 UV-I 404 W/m 14,8 C 19,8 C 3,2 km/h (1 Bft) 97,37 %
18.07.2017 08:24 19,8 C 22,8 C 73 % 1018,0 hPa 0,0 l/m 0,9 km/h (0 Bft) NO 46 2 min 0,000 mm 1,3 UV-I 408 W/m 14,8 C 19,8 C 4,8 km/h (1 Bft) 93,62 %
18.07.2017 08:26 20,1 C 22,8 C 72 % 1018,0 hPa 0,0 l/m 4,1 km/h (1 Bft) NO 49 2 min 0,000 mm 1,3 UV-I 415 W/m 14,9 C 20,1 C 8,0 km/h (2 Bft) 93,62 %
18.07.2017 08:28 20,2 C 22,8 C 71 % 1018,1 hPa 0,0 l/m 3,3 km/h (1 Bft) NO 49 2 min 0,000 mm 1,4 UV-I 421 W/m 14,8 C 20,2 C 4,8 km/h (1 Bft) 95,74 %
18.07.2017 08:30 20,3 C 22,8 C 71 % 1018,1 hPa 0,0 l/m 4,3 km/h (1 Bft) NO 40 2 min 0,000 mm 1,4 UV-I 426 W/m 14,9 C 20,3 C 9,7 km/h (2 Bft) 93,75 %
18.07.2017 08:32 20,4 C 22,8 C 69 % 1018,1 hPa 0,0 l/m 4,6 km/h (1 Bft) O-NO 71 2 min 0,000 mm 1,4 UV-I 431 W/m 14,5 C 20,4 C 9,7 km/h (2 Bft) 97,87 %
18.07.2017 08:34 20,4 C 22,8 C 68 % 1018,1 hPa 0,0 l/m 6,3 km/h (2 Bft) O-NO 75 2 min 0,000 mm 1,5 UV-I 438 W/m 14,3 C 20,4 C 9,7 km/h (2 Bft) 100,00 %
18.07.2017 08:36 20,4 C 22,8 C 68 % 1018,0 hPa 0,0 l/m 6,0 km/h (2 Bft) O-NO 67 2 min 0,000 mm 1,5 UV-I 443 W/m 14,3 C 20,4 C 9,7 km/h (2 Bft) 97,87 %
18.07.2017 08:38 20,6 C 22,8 C 69 % 1018,0 hPa 0,0 l/m 4,5 km/h (1 Bft) O-SO 111 2 min 0,000 mm 1,5 UV-I 449 W/m 14,7 C 20,6 C 6,4 km/h (2 Bft) 100,00 %
18.07.2017 08:40 20,7 C 22,8 C 68 % 1018,0 hPa 0,0 l/m 5,2 km/h (1 Bft) O-NO 59 2 min 0,000 mm 1,6 UV-I 454 W/m 14,6 C 20,7 C 8,0 km/h (2 Bft) 95,74 %
18.07.2017 08:42 20,7 C 22,8 C 69 % 1018,0 hPa 0,0 l/m 5,4 km/h (1 Bft) O-NO 57 2 min 0,000 mm 1,6 UV-I 461 W/m 14,8 C 20,7 C 9,7 km/h (2 Bft) 93,62 %
18.07.2017 08:44 20,7 C 22,8 C 68 % 1018,0 hPa 0,0 l/m 6,0 km/h (2 Bft) NO 48 2 min 0,000 mm 1,6 UV-I 465 W/m 14,6 C 20,7 C 11,3 km/h (2 Bft) 91,49 %
18.07.2017 08:46 20,8 C 22,8 C 67 % 1017,9 hPa 0,0 l/m 4,6 km/h (1 Bft) O-NO 74 2 min 0,000 mm 1,7 UV-I 471 W/m 14,4 C 20,8 C 8,0 km/h (2 Bft) 95,74 %
18.07.2017 08:48 20,9 C 22,8 C 67 % 1017,9 hPa 0,0 l/m 6,2 km/h (2 Bft) O-NO 66 2 min 0,000 mm 1,7 UV-I 476 W/m 14,5 C 20,9 C 9,7 km/h (2 Bft) 95,74 %
18.07.2017 08:50 20,9 C 22,8 C 67 % 1017,9 hPa 0,0 l/m 5,2 km/h (1 Bft) O-NO 70 2 min 0,000 mm 1,8 UV-I 481 W/m 14,5 C 20,9 C 9,7 km/h (2 Bft) 95,74 %
18.07.2017 08:52 21,0 C 22,8 C 66 % 1017,9 hPa 0,0 l/m 7,6 km/h (2 Bft) O 82 2 min 0,000 mm 1,8 UV-I 485 W/m 14,4 C 20,5 C 12,9 km/h (3 Bft) 92,00 %
18.07.2017 08:54 21,1 C 22,8 C 65 % 1017,9 hPa 0,0 l/m 7,9 km/h (2 Bft) O-NO 69 2 min 0,000 mm 1,9 UV-I 492 W/m 14,3 C 20,5 C 11,3 km/h (2 Bft) 93,62 %
18.07.2017 08:56 21,0 C 22,8 C 66 % 1017,9 hPa 0,0 l/m 9,5 km/h (2 Bft) N-NO 15 2 min 0,000 mm 1,9 UV-I 498 W/m 14,4 C 19,9 C 14,5 km/h (3 Bft) 94,00 %
18.07.2017 08:58 21,2 C 22,8 C 67 % 1017,9 hPa 0,0 l/m 6,3 km/h (2 Bft) N-NO 19 2 min 0,000 mm 1,9 UV-I 503 W/m 14,8 C 21,2 C 11,3 km/h (2 Bft) 92,11 %
18.07.2017 09:00 21,3 C 22,8 C 67 % 1017,9 hPa 0,0 l/m 9,0 km/h (2 Bft) NO 40 2 min 0,279 mm 2,0 UV-I 506 W/m 14,9 C 20,4 C 14,5 km/h (3 Bft) 93,62 %
18.07.2017 09:02 21,6 C 22,8 C 66 % 1017,9 hPa 0,0 l/m 10,7 km/h (2 Bft) N-NO 28 2 min 0,000 mm 2,0 UV-I 513 W/m 15,0 C 20,2 C 14,5 km/h (3 Bft) 95,74 %
18.07.2017 09:04 21,7 C 22,8 C 65 % 1017,9 hPa 0,0 l/m 8,9 km/h (2 Bft) NO 49 2 min 0,000 mm 2,1 UV-I 519 W/m 14,8 C 20,8 C 12,9 km/h (3 Bft) 89,36 %
18.07.2017 09:06 21,7 C 22,8 C 64 % 1017,9 hPa 0,0 l/m 7,9 km/h (2 Bft) O-NO 73 2 min 0,000 mm 2,1 UV-I 523 W/m 14,6 C 21,2 C 12,9 km/h (3 Bft) 95,74 %
18.07.2017 09:08 21,6 C 22,8 C 65 % 1017,9 hPa 0,0 l/m 5,4 km/h (1 Bft) NO 37 2 min 0,000 mm 2,2 UV-I 528 W/m 14,7 C 21,6 C 12,9 km/h (3 Bft) 92,45 %
18.07.2017 09:10 21,8 C 22,8 C 64 % 1017,9 hPa 0,0 l/m 6,2 km/h (2 Bft) NO 38 2 min 0,000 mm 2,2 UV-I 533 W/m 14,7 C 21,8 C 9,7 km/h (2 Bft) 94,44 %
18.07.2017 09:12 21,8 C 22,8 C 63 % 1017,8 hPa 0,0 l/m 8,3 km/h (2 Bft) O-NO 63 2 min 0,000 mm 2,2 UV-I 539 W/m 14,4 C 21,1 C 14,5 km/h (3 Bft) 94,00 %
18.07.2017 09:14 21,9 C 22,8 C 64 % 1017,8 hPa 0,0 l/m 8,7 km/h (2 Bft) N 350 2 min 0,000 mm 2,3 UV-I 545 W/m 14,8 C 21,1 C 14,5 km/h (3 Bft) 94,00 %
18.07.2017 09:16 22,2 C 22,8 C 63 % 1017,8 hPa 0,0 l/m 9,1 km/h (2 Bft) NO 46 2 min 0,000 mm 2,3 UV-I 549 W/m 14,8 C 21,3 C 14,5 km/h (3 Bft) 95,74 %
18.07.2017 09:18 22,2 C 22,8 C 63 % 1017,8 hPa 0,0 l/m 7,6 km/h (2 Bft) N-NO 30 2 min 0,000 mm 2,3 UV-I 553 W/m 14,8 C 21,8 C 14,5 km/h (3 Bft) 94,00 %
18.07.2017 09:20 22,1 C 22,8 C 63 % 1017,8 hPa 0,0 l/m 6,5 km/h (2 Bft) O-NO 63 2 min 0,000 mm 2,4 UV-I 558 W/m 14,7 C 22,1 C 17,7 km/h (3 Bft) 93,62 %
18.07.2017 09:22 22,2 C 22,8 C 63 % 1017,7 hPa 0,0 l/m 5,0 km/h (1 Bft) NO 46 2 min 0,000 mm 2,5 UV-I 563 W/m 14,8 C 22,2 C 8,0 km/h (2 Bft) 94,00 %
18.07.2017 09:24 22,2 C 22,8 C 63 % 1017,7 hPa 0,0 l/m 3,6 km/h (1 Bft) NO 39 2 min 0,000 mm 2,5 UV-I 570 W/m 14,8 C 22,2 C 8,0 km/h (2 Bft) 95,74 %
18.07.2017 09:26 22,3 C 22,8 C 64 % 1017,7 hPa 0,0 l/m 7,3 km/h (2 Bft) N-NO 24 2 min 0,000 mm 2,6 UV-I 576 W/m 15,2 C 22,0 C 12,9 km/h (3 Bft) 95,74 %
18.07.2017 09:28 22,4 C 22,8 C 62 % 1017,7 hPa 0,0 l/m 7,7 km/h (2 Bft) NO 49 2 min 0,000 mm 2,6 UV-I 579 W/m 14,8 C 22,0 C 11,3 km/h (2 Bft) 94,29 %
18.07.2017 09:30 22,4 C 22,8 C 62 % 1017,7 hPa 0,0 l/m 6,8 km/h (2 Bft) O-NO 71 2 min 0,000 mm 2,6 UV-I 583 W/m 14,8 C 22,3 C 11,3 km/h (2 Bft) 95,74 %
18.07.2017 09:32 22,5 C 22,8 C 62 % 1017,6 hPa 0,0 l/m 5,7 km/h (1 Bft) NO 38 2 min 0,000 mm 2,7 UV-I 590 W/m 14,8 C 22,5 C 9,7 km/h (2 Bft) 95,74 %
18.07.2017 09:34 22,6 C 22,8 C 64 % 1017,6 hPa 0,0 l/m 7,4 km/h (2 Bft) NO 44 2 min 0,000 mm 2,7 UV-I 594 W/m 15,4 C 22,3 C 9,7 km/h (2 Bft) 91,49 %
18.07.2017 09:36 22,7 C 22,8 C 62 % 1017,6 hPa 0,0 l/m 10,1 km/h (2 Bft) O-NO 60 2 min 0,000 mm 2,8 UV-I 599 W/m 15,0 C 21,6 C 17,7 km/h (3 Bft) 96,00 %
18.07.2017 09:38 22,8 C 22,8 C 62 % 1017,6 hPa 0,0 l/m 9,8 km/h (2 Bft) O-NO 67 2 min 0,000 mm 2,9 UV-I 605 W/m 15,1 C 21,8 C 14,5 km/h (3 Bft) 93,62 %
18.07.2017 09:40 22,7 C 22,8 C 62 % 1017,6 hPa 0,0 l/m 7,0 km/h (2 Bft) NO 44 2 min 0,000 mm 2,9 UV-I 610 W/m 15,0 C 22,5 C 11,3 km/h (2 Bft) 93,62 %
18.07.2017 09:42 22,7 C 22,8 C 61 % 1017,6 hPa 0,0 l/m 6,1 km/h (2 Bft) NO 40 2 min 0,000 mm 2,9 UV-I 615 W/m 14,8 C 22,7 C 9,7 km/h (2 Bft) 97,87 %
18.07.2017 09:44 22,7 C 22,8 C 61 % 1017,6 hPa 0,0 l/m 10,7 km/h (2 Bft) O 80 2 min 0,000 mm 3,0 UV-I 620 W/m 14,8 C 21,4 C 16,1 km/h (3 Bft) 95,74 %
18.07.2017 09:46 22,8 C 22,8 C 63 % 1017,6 hPa 0,0 l/m 9,4 km/h (2 Bft) NO 44 2 min 0,000 mm 3,0 UV-I 624 W/m 15,4 C 21,9 C 14,5 km/h (3 Bft) 95,74 %
18.07.2017 09:48 23,0 C 22,8 C 62 % 1017,6 hPa 0,0 l/m 10,1 km/h (2 Bft) NO 46 2 min 0,000 mm 3,1 UV-I 628 W/m 15,3 C 21,9 C 16,1 km/h (3 Bft) 92,00 %
18.07.2017 09:50 23,2 C 22,8 C 62 % 1017,6 hPa 0,0 l/m 11,6 km/h (2 Bft) NO 46 2 min 0,000 mm 3,1 UV-I 633 W/m 15,5 C 21,8 C 19,3 km/h (3 Bft) 89,36 %
18.07.2017 09:52 23,3 C 22,8 C 61 % 1017,6 hPa 0,0 l/m 9,5 km/h (2 Bft) O-NO 74 2 min 0,000 mm 3,2 UV-I 637 W/m 15,3 C 22,4 C 16,1 km/h (3 Bft) 93,62 %
18.07.2017 09:54 23,3 C 22,8 C 61 % 1017,6 hPa 0,0 l/m 8,2 km/h (2 Bft) NO 46 2 min 0,000 mm 3,2 UV-I 642 W/m 15,3 C 22,8 C 12,9 km/h (3 Bft) 93,75 %
18.07.2017 09:56 23,4 C 22,8 C 60 % 1017,6 hPa 0,0 l/m 6,2 km/h (2 Bft) O-NO 62 2 min 0,000 mm 3,3 UV-I 646 W/m 15,2 C 23,4 C 9,7 km/h (2 Bft) 94,74 %
18.07.2017 09:58 23,4 C 22,8 C 59 % 1017,5 hPa 0,0 l/m 11,4 km/h (2 Bft) O-NO 75 2 min 0,000 mm 3,3 UV-I 651 W/m 14,9 C 22,1 C 17,7 km/h (3 Bft) 91,49 %
18.07.2017 10:00 23,4 C 22,8 C 59 % 1017,5 hPa 0,0 l/m 12,8 km/h (3 Bft) O 90 2 min 0,406 mm 3,4 UV-I 656 W/m 14,9 C 21,8 C 17,7 km/h (3 Bft) 93,62 %
18.07.2017 10:02 23,3 C 22,8 C 60 % 1017,5 hPa 0,0 l/m 6,0 km/h (2 Bft) O 98 2 min 0,000 mm 3,4 UV-I 661 W/m 15,1 C 23,3 C 12,9 km/h (3 Bft) 96,15 %
18.07.2017 10:04 23,4 C 22,8 C 59 % 1017,5 hPa 0,0 l/m 9,3 km/h (2 Bft) O 84 2 min 0,000 mm 3,5 UV-I 664 W/m 14,9 C 22,6 C 14,5 km/h (3 Bft) 97,87 %
18.07.2017 10:06 23,6 C 23,3 C 60 % 1017,5 hPa 0,0 l/m 8,5 km/h (2 Bft) O-NO 64 2 min 0,000 mm 3,5 UV-I 669 W/m 15,4 C 23,0 C 14,5 km/h (3 Bft) 96,00 %
18.07.2017 10:08 23,7 C 23,3 C 60 % 1017,5 hPa 0,0 l/m 8,3 km/h (2 Bft) O 94 2 min 0,000 mm 3,6 UV-I 674 W/m 15,5 C 23,2 C 16,1 km/h (3 Bft) 95,74 %
18.07.2017 10:10 23,8 C 22,8 C 59 % 1017,4 hPa 0,0 l/m 7,1 km/h (2 Bft) O-SO 109 2 min 0,000 mm 3,6 UV-I 678 W/m 15,3 C 23,6 C 12,9 km/h (3 Bft) 97,37 %
18.07.2017 10:12 23,8 C 22,8 C 58 % 1017,4 hPa 0,0 l/m 8,5 km/h (2 Bft) N 5 2 min 0,000 mm 3,7 UV-I 681 W/m 15,0 C 23,2 C 14,5 km/h (3 Bft) 97,87 %
18.07.2017 10:14 23,9 C 22,8 C 59 % 1017,4 hPa 0,0 l/m 8,6 km/h (2 Bft) NO 44 2 min 0,000 mm 3,8 UV-I 687 W/m 15,4 C 23,3 C 16,1 km/h (3 Bft) 96,00 %
18.07.2017 10:16 24,1 C 22,8 C 56 % 1017,4 hPa 0,0 l/m 9,2 km/h (2 Bft) O-NO 59 2 min 0,000 mm 3,8 UV-I 691 W/m 14,8 C 23,4 C 14,5 km/h (3 Bft) 97,87 %
18.07.2017 10:18 24,1 C 22,8 C 56 % 1017,3 hPa 0,0 l/m 10,3 km/h (2 Bft) N-NO 33 2 min 0,000 mm 3,8 UV-I 694 W/m 14,8 C 23,1 C 17,7 km/h (3 Bft) 97,87 %
18.07.2017 10:20 24,2 C 22,8 C 57 % 1017,3 hPa 0,0 l/m 9,5 km/h (2 Bft) N-NO 17 2 min 0,000 mm 3,9 UV-I 700 W/m 15,1 C 23,4 C 16,1 km/h (3 Bft) 95,74 %
18.07.2017 10:22 24,3 C 23,3 C 58 % 1017,3 hPa 0,0 l/m 8,9 km/h (2 Bft) NO 42 2 min 0,000 mm 4,0 UV-I 703 W/m 15,5 C 23,6 C 14,5 km/h (3 Bft) 96,00 %
18.07.2017 10:24 24,3 C 23,3 C 55 % 1017,3 hPa 0,0 l/m 5,2 km/h (1 Bft) N-NO 18 2 min 0,000 mm 4,0 UV-I 708 W/m 14,7 C 24,3 C 12,9 km/h (3 Bft) 98,00 %
18.07.2017 10:26 24,3 C 23,3 C 56 % 1017,2 hPa 0,0 l/m 8,5 km/h (2 Bft) NO 46 2 min 0,000 mm 4,0 UV-I 710 W/m 14,9 C 23,7 C 16,1 km/h (3 Bft) 95,74 %
18.07.2017 10:28 24,4 C 23,3 C 56 % 1017,2 hPa 0,0 l/m 9,1 km/h (2 Bft) NO 43 2 min 0,000 mm 4,1 UV-I 717 W/m 15,0 C 23,7 C 17,7 km/h (3 Bft) 97,87 %
18.07.2017 10:30 24,6 C 23,3 C 55 % 1017,3 hPa 0,0 l/m 6,6 km/h (2 Bft) O-NO 64 2 min 0,000 mm 4,1 UV-I 721 W/m 14,9 C 24,6 C 17,7 km/h (3 Bft) 97,87 %
18.07.2017 10:32 24,6 C 23,3 C 55 % 1017,3 hPa 0,0 l/m 7,8 km/h (2 Bft) O-NO 72 2 min 0,000 mm 4,2 UV-I 723 W/m 14,9 C 24,2 C 12,9 km/h (3 Bft) 95,24 %
18.07.2017 10:34 24,5 C 23,3 C 56 % 1017,2 hPa 0,0 l/m 6,6 km/h (2 Bft) NO 49 2 min 0,000 mm 4,3 UV-I 728 W/m 15,1 C 24,5 C 11,3 km/h (2 Bft) 95,74 %
18.07.2017 10:36 24,6 C 23,3 C 55 % 1017,2 hPa 0,0 l/m 9,0 km/h (2 Bft) NO 38 2 min 0,000 mm 4,3 UV-I 730 W/m 14,9 C 23,9 C 14,5 km/h (3 Bft) 97,87 %
18.07.2017 10:38 24,8 C 23,3 C 55 % 1017,2 hPa 0,0 l/m 4,2 km/h (1 Bft) NO 52 2 min 0,000 mm 4,4 UV-I 736 W/m 15,1 C 24,8 C 8,0 km/h (2 Bft) 93,62 %
18.07.2017 10:40 24,8 C 23,3 C 53 % 1017,2 hPa 0,0 l/m 4,6 km/h (1 Bft) N-NW 328 2 min 0,000 mm 4,4 UV-I 740 W/m 14,6 C 24,8 C 8,0 km/h (2 Bft) 98,00 %
18.07.2017 10:42 25,1 C 23,3 C 56 % 1017,2 hPa 0,0 l/m 8,3 km/h (2 Bft) O-NO 59 2 min 0,000 mm 4,5 UV-I 744 W/m 15,7 C 24,6 C 16,1 km/h (3 Bft) 95,74 %
18.07.2017 10:44 25,2 C 23,3 C 54 % 1017,2 hPa 0,0 l/m 6,3 km/h (2 Bft) O-NO 73 2 min 0,000 mm 4,5 UV-I 748 W/m 15,2 C 25,2 C 12,9 km/h (3 Bft) 93,62 %
18.07.2017 10:46 25,3 C 23,3 C 54 % 1017,2 hPa 0,0 l/m 10,8 km/h (2 Bft) NO 56 2 min 0,000 mm 4,6 UV-I 750 W/m 15,3 C 24,3 C 17,7 km/h (3 Bft) 97,14 %
18.07.2017 10:48 25,3 C 23,3 C 53 % 1017,2 hPa 0,0 l/m 7,6 km/h (2 Bft) N-NO 25 2 min 0,000 mm 4,6 UV-I 754 W/m 15,0 C 25,0 C 14,5 km/h (3 Bft) 94,00 %
18.07.2017 10:50 25,3 C 23,3 C 53 % 1017,2 hPa 0,0 l/m 8,0 km/h (2 Bft) N 5 2 min 0,000 mm 4,7 UV-I 758 W/m 15,0 C 24,9 C 16,1 km/h (3 Bft) 93,62 %
18.07.2017 10:52 25,4 C 23,3 C 52 % 1017,2 hPa 0,0 l/m 4,0 km/h (1 Bft) O-NO 67 2 min 0,000 mm 4,7 UV-I 760 W/m 14,8 C 25,4 C 8,0 km/h (2 Bft) 95,74 %
18.07.2017 10:54 25,5 C 23,3 C 54 % 1017,2 hPa 0,0 l/m 7,7 km/h (2 Bft) O 86 2 min 0,000 mm 4,8 UV-I 763 W/m 15,5 C 25,2 C 16,1 km/h (3 Bft) 93,62 %
18.07.2017 10:56 25,8 C 23,3 C 53 % 1017,2 hPa 0,0 l/m 6,6 km/h (2 Bft) NO 50 2 min 0,000 mm 4,8 UV-I 766 W/m 15,5 C 25,8 C 14,5 km/h (3 Bft) 93,62 %
18.07.2017 10:58 26,1 C 23,3 C 52 % 1017,2 hPa 0,0 l/m 11,1 km/h (2 Bft) NO 34 2 min 0,000 mm 4,9 UV-I 772 W/m 15,5 C 25,2 C 17,7 km/h (3 Bft) 95,74 %
18.07.2017 11:00 26,1 C 23,3 C 49 % 1017,1 hPa 0,0 l/m 11,6 km/h (2 Bft) O-SO 112 2 min 0,508 mm 4,9 UV-I 775 W/m 14,5 C 25,1 C 16,1 km/h (3 Bft) 96,00 %
18.07.2017 11:02 25,9 C 23,3 C 50 % 1017,1 hPa 0,0 l/m 12,0 km/h (2 Bft) O-SO 107 2 min 0,000 mm 4,9 UV-I 779 W/m 14,7 C 24,8 C 17,7 km/h (3 Bft) 96,00 %
18.07.2017 11:04 25,7 C 23,3 C 50 % 1017,0 hPa 0,0 l/m 9,1 km/h (2 Bft) O-NO 78 2 min 0,000 mm 5,0 UV-I 781 W/m 14,5 C 25,1 C 16,1 km/h (3 Bft) 95,74 %
18.07.2017 11:06 25,5 C 23,3 C 52 % 1017,1 hPa 0,0 l/m 9,2 km/h (2 Bft) N-NO 31 2 min 0,000 mm 5,0 UV-I 784 W/m 14,9 C 24,9 C 14,5 km/h (3 Bft) 97,87 %
18.07.2017 11:08 25,8 C 23,3 C 51 % 1017,0 hPa 0,0 l/m 12,0 km/h (2 Bft) O-NO 64 2 min 0,000 mm 5,1 UV-I 788 W/m 14,9 C 24,7 C 17,7 km/h (3 Bft) 95,74 %
18.07.2017 11:10 25,9 C 23,3 C 51 % 1017,1 hPa 0,0 l/m 11,7 km/h (2 Bft) O-NO 63 2 min 0,000 mm 5,1 UV-I 793 W/m 15,0 C 24,9 C 19,3 km/h (3 Bft) 100,00 %
18.07.2017 11:12 26,1 C 23,3 C 51 % 1017,0 hPa 0,0 l/m 10,0 km/h (2 Bft) N-NW 337 2 min 0,000 mm 5,1 UV-I 793 W/m 15,2 C 25,4 C 16,1 km/h (3 Bft) 96,00 %
18.07.2017 11:14 26,1 C 23,3 C 50 % 1017,0 hPa 0,0 l/m 8,3 km/h (2 Bft) NO 49 2 min 0,000 mm 5,2 UV-I 796 W/m 14,8 C 25,7 C 17,7 km/h (3 Bft) 95,74 %
18.07.2017 11:16 26,3 C 23,3 C 49 % 1017,0 hPa 0,0 l/m 13,1 km/h (3 Bft) O-NO 59 2 min 0,000 mm 5,2 UV-I 800 W/m 14,7 C 25,1 C 19,3 km/h (3 Bft) 97,87 %
18.07.2017 11:18 26,3 C 23,3 C 48 % 1016,9 hPa 0,0 l/m 11,6 km/h (2 Bft) NO 34 2 min 0,000 mm 5,3 UV-I 803 W/m 14,4 C 25,3 C 19,3 km/h (3 Bft) 98,00 %
18.07.2017 11:20 26,4 C 23,3 C 48 % 1016,9 hPa 0,0 l/m 7,9 km/h (2 Bft) O-NO 63 2 min 0,000 mm 5,3 UV-I 807 W/m 14,5 C 26,1 C 16,1 km/h (3 Bft) 98,00 %
18.07.2017 11:22 26,6 C 23,3 C 49 % 1016,9 hPa 0,0 l/m 10,7 km/h (2 Bft) O-NO 61 2 min 0,000 mm 5,4 UV-I 809 W/m 15,0 C 25,8 C 20,9 km/h (4 Bft) 100,00 %
18.07.2017 11:24 26,6 C 23,3 C 49 % 1016,9 hPa 0,0 l/m 13,0 km/h (3 Bft) NO 50 2 min 0,000 mm 5,4 UV-I 811 W/m 15,0 C 25,5 C 19,3 km/h (3 Bft) 97,37 %
18.07.2017 11:26 26,5 C 23,3 C 48 % 1017,0 hPa 0,0 l/m 10,6 km/h (2 Bft) O-NO 78 2 min 0,000 mm 5,4 UV-I 812 W/m 14,6 C 25,7 C 16,1 km/h (3 Bft) 97,96 %
18.07.2017 11:28 26,3 C 23,3 C 48 % 1017,0 hPa 0,0 l/m 10,7 km/h (2 Bft) NO 40 2 min 0,000 mm 5,5 UV-I 816 W/m 14,4 C 25,5 C 17,7 km/h (3 Bft) 100,00 %
18.07.2017 11:30 26,2 C 23,3 C 49 % 1017,0 hPa 0,0 l/m 4,9 km/h (1 Bft) O-NO 63 2 min 0,000 mm 5,5 UV-I 817 W/m 14,6 C 26,2 C 12,9 km/h (3 Bft) 95,74 %
18.07.2017 11:32 26,2 C 23,3 C 49 % 1017,0 hPa 0,0 l/m 10,1 km/h (2 Bft) O-NO 68 2 min 0,000 mm 5,6 UV-I 820 W/m 14,6 C 25,5 C 19,3 km/h (3 Bft) 100,00 %
18.07.2017 11:34 26,2 C 23,3 C 48 % 1017,0 hPa 0,0 l/m 10,5 km/h (2 Bft) O-NO 70 2 min 0,000 mm 5,6 UV-I 824 W/m 14,3 C 25,4 C 19,3 km/h (3 Bft) 93,62 %
18.07.2017 11:36 26,2 C 23,3 C 49 % 1016,9 hPa 0,0 l/m 7,9 km/h (2 Bft) NO 52 2 min 0,000 mm 5,7 UV-I 826 W/m 14,6 C 25,9 C 14,5 km/h (3 Bft) 93,88 %
18.07.2017 11:38 26,4 C 23,3 C 49 % 1016,9 hPa 0,0 l/m 4,9 km/h (1 Bft) N-NO 14 2 min 0,000 mm 5,7 UV-I 828 W/m 14,8 C 26,4 C 11,3 km/h (2 Bft) 100,00 %
18.07.2017 11:40 26,8 C 23,3 C 50 % 1016,9 hPa 0,0 l/m 10,3 km/h (2 Bft) O-NO 62 2 min 0,000 mm 5,7 UV-I 826 W/m 15,5 C 26,1 C 17,7 km/h (3 Bft) 97,87 %
18.07.2017 11:42 26,9 C 23,3 C 47 % 1016,9 hPa 0,0 l/m 10,0 km/h (2 Bft) N-NO 28 2 min 0,000 mm 5,8 UV-I 819 W/m 14,6 C 26,3 C 16,1 km/h (3 Bft) 100,00 %
18.07.2017 11:44 27,2 C 23,3 C 48 % 1016,9 hPa 0,0 l/m 11,4 km/h (2 Bft) O-NO 65 2 min 0,000 mm 5,8 UV-I 770 W/m 15,2 C 26,4 C 17,7 km/h (3 Bft) 100,00 %
18.07.2017 11:46 27,3 C 23,3 C 50 % 1016,8 hPa 0,0 l/m 7,3 km/h (2 Bft) NO 36 2 min 0,000 mm 5,8 UV-I 770 W/m 15,9 C 27,1 C 14,5 km/h (3 Bft) 100,00 %
18.07.2017 11:48 27,4 C 23,3 C 48 % 1016,9 hPa 0,0 l/m 6,8 km/h (2 Bft) NO 40 2 min 0,000 mm 5,8 UV-I 809 W/m 15,4 C 27,3 C 14,5 km/h (3 Bft) 97,87 %
18.07.2017 11:50 27,4 C 23,3 C 45 % 1016,8 hPa 0,0 l/m 5,6 km/h (1 Bft) O-NO 63 2 min 0,000 mm 5,5 UV-I 840 W/m 14,4 C 27,4 C 20,9 km/h (4 Bft) 96,00 %
18.07.2017 11:52 27,2 C 23,3 C 45 % 1016,8 hPa 0,0 l/m 11,7 km/h (2 Bft) NO 34 2 min 0,000 mm 5,9 UV-I 822 W/m 14,2 C 26,4 C 19,3 km/h (3 Bft) 100,00 %
18.07.2017 11:54 27,1 C 23,3 C 47 % 1016,8 hPa 0,0 l/m 10,1 km/h (2 Bft) O-NO 67 2 min 0,000 mm 5,9 UV-I 841 W/m 14,8 C 26,5 C 14,5 km/h (3 Bft) 97,87 %
18.07.2017 11:56 27,2 C 23,3 C 47 % 1016,8 hPa 0,0 l/m 5,7 km/h (1 Bft) O-SO 121 2 min 0,000 mm 6,0 UV-I 847 W/m 14,9 C 27,2 C 9,7 km/h (2 Bft) 100,00 %
18.07.2017 11:58 27,2 C 23,3 C 47 % 1016,7 hPa 0,0 l/m 11,5 km/h (2 Bft) O-SO 105 2 min 0,000 mm 6,0 UV-I 847 W/m 14,9 C 26,4 C 16,1 km/h (3 Bft) 97,87 %
18.07.2017 12:00 27,1 C 23,3 C 46 % 1016,7 hPa 0,0 l/m 10,5 km/h (2 Bft) NO 55 2 min 0,610 mm 6,0 UV-I 847 W/m 14,5 C 26,4 C 16,1 km/h (3 Bft) 96,00 %
18.07.2017 12:02 26,9 C 23,3 C 47 % 1016,7 hPa 0,0 l/m 5,9 km/h (2 Bft) N-NO 28 2 min 0,000 mm 6,0 UV-I 848 W/m 14,6 C 26,9 C 11,3 km/h (2 Bft) 95,74 %
18.07.2017 12:04 27,2 C 23,3 C 48 % 1016,7 hPa 0,0 l/m 8,3 km/h (2 Bft) O-NO 63 2 min 0,000 mm 6,0 UV-I 852 W/m 15,2 C 26,9 C 14,5 km/h (3 Bft) 97,87 %
18.07.2017 12:06 27,4 C 23,3 C 47 % 1016,7 hPa 0,0 l/m 11,2 km/h (2 Bft) N 10 2 min 0,000 mm 6,2 UV-I 857 W/m 15,1 C 26,7 C 19,3 km/h (3 Bft) 97,87 %
18.07.2017 12:08 27,7 C 23,3 C 45 % 1016,6 hPa 0,0 l/m 5,4 km/h (1 Bft) N 5 2 min 0,000 mm 6,1 UV-I 857 W/m 14,7 C 27,7 C 12,9 km/h (3 Bft) 97,87 %
18.07.2017 12:10 27,7 C 23,3 C 45 % 1016,6 hPa 0,0 l/m 8,0 km/h (2 Bft) NO 34 2 min 0,000 mm 5,1 UV-I 851 W/m 14,7 C 27,4 C 16,1 km/h (3 Bft) 97,14 %
18.07.2017 12:12 27,7 C 23,3 C 45 % 1016,6 hPa 0,0 l/m 6,0 km/h (2 Bft) O-SO 106 2 min 0,000 mm 6,2 UV-I 843 W/m 14,7 C 27,7 C 11,3 km/h (2 Bft) 97,87 %
18.07.2017 12:14 27,7 C 23,3 C 44 % 1016,6 hPa 0,0 l/m 12,4 km/h (3 Bft) O 80 2 min 0,000 mm 6,3 UV-I 846 W/m 14,3 C 26,9 C 16,1 km/h (3 Bft) 98,00 %
18.07.2017 12:16 27,5 C 23,3 C 44 % 1016,5 hPa 0,0 l/m 10,4 km/h (2 Bft) O-NO 73 2 min 0,000 mm 6,3 UV-I 848 W/m 14,1 C 26,9 C 14,5 km/h (3 Bft) 97,87 %
18.07.2017 12:18 27,4 C 23,3 C 43 % 1016,5 hPa 0,0 l/m 4,4 km/h (1 Bft) O 90 2 min 0,000 mm 6,3 UV-I 866 W/m 13,7 C 27,4 C 8,0 km/h (2 Bft) 100,00 %
18.07.2017 12:20 27,4 C 23,3 C 44 % 1016,5 hPa 0,0 l/m 7,5 km/h (2 Bft) N-NO 18 2 min 0,000 mm 6,3 UV-I 868 W/m 14,0 C 27,2 C 14,5 km/h (3 Bft) 97,87 %
18.07.2017 12:22 27,8 C 23,3 C 45 % 1016,5 hPa 0,0 l/m 8,9 km/h (2 Bft) W-NW 294 2 min 0,000 mm 5,9 UV-I 873 W/m 14,8 C 27,4 C 19,3 km/h (3 Bft) 100,00 %
18.07.2017 12:24 27,9 C 23,3 C 42 % 1016,4 hPa 0,0 l/m 8,4 km/h (2 Bft) NW 324 2 min 0,000 mm 5,3 UV-I 875 W/m 13,8 C 27,6 C 20,9 km/h (4 Bft) 100,00 %
18.07.2017 12:26 27,9 C 23,3 C 45 % 1016,5 hPa 0,0 l/m 2,6 km/h (1 Bft) O 87 2 min 0,000 mm 6,4 UV-I 845 W/m 14,8 C 27,9 C 11,3 km/h (2 Bft) 100,00 %
18.07.2017 12:28 27,9 C 23,3 C 43 % 1016,4 hPa 0,0 l/m 6,9 km/h (2 Bft) S-SO 155 2 min 0,000 mm 6,2 UV-I 879 W/m 14,1 C 27,8 C 9,7 km/h (2 Bft) 96,00 %
18.07.2017 12:30 27,8 C 23,3 C 46 % 1016,4 hPa 0,0 l/m 5,2 km/h (1 Bft) O-NO 62 2 min 0,000 mm 6,5 UV-I 877 W/m 15,1 C 27,8 C 14,5 km/h (3 Bft) 91,49 %
18.07.2017 12:32 27,7 C 23,3 C 43 % 1016,4 hPa 0,0 l/m 12,8 km/h (3 Bft) O-NO 62 2 min 0,000 mm 6,4 UV-I 876 W/m 14,0 C 26,8 C 19,3 km/h (3 Bft) 97,87 %
18.07.2017 12:34 27,8 C 23,3 C 44 % 1016,4 hPa 0,0 l/m 9,8 km/h (2 Bft) N-NO 23 2 min 0,000 mm 6,5 UV-I 882 W/m 14,4 C 27,3 C 17,7 km/h (3 Bft) 97,87 %
18.07.2017 12:36 27,8 C 23,3 C 41 % 1016,4 hPa 0,0 l/m 8,7 km/h (2 Bft) O 96 2 min 0,000 mm 6,5 UV-I 883 W/m 13,3 C 27,4 C 17,7 km/h (3 Bft) 95,74 %
18.07.2017 12:38 27,8 C 23,9 C 43 % 1016,3 hPa 0,0 l/m 11,0 km/h (2 Bft) O-NO 77 2 min 0,000 mm 6,5 UV-I 886 W/m 14,1 C 27,1 C 16,1 km/h (3 Bft) 93,62 %
18.07.2017 12:40 27,8 C 23,9 C 42 % 1016,4 hPa 0,0 l/m 7,0 km/h (2 Bft) NO 42 2 min 0,000 mm 6,6 UV-I 886 W/m 13,7 C 27,7 C 12,9 km/h (3 Bft) 97,37 %
18.07.2017 12:42 27,9 C 23,9 C 43 % 1016,2 hPa 0,0 l/m 4,0 km/h (1 Bft) S-SO 153 2 min 0,000 mm 6,6 UV-I 885 W/m 14,1 C 27,9 C 9,7 km/h (2 Bft) 91,49 %
18.07.2017 12:44 27,9 C 23,9 C 43 % 1016,2 hPa 0,0 l/m 7,0 km/h (2 Bft) O-NO 60 2 min 0,000 mm 6,6 UV-I 885 W/m 14,1 C 27,8 C 12,9 km/h (3 Bft) 92,00 %
18.07.2017 12:46 28,0 C 23,9 C 42 % 1016,2 hPa 0,0 l/m 14,7 km/h (3 Bft) NO 46 2 min 0,000 mm 6,5 UV-I 881 W/m 13,9 C 27,0 C 22,5 km/h (4 Bft) 97,87 %
18.07.2017 12:48 28,1 C 23,9 C 43 % 1016,2 hPa 0,0 l/m 12,4 km/h (3 Bft) O-NO 61 2 min 0,000 mm 6,4 UV-I 876 W/m 14,3 C 27,3 C 19,3 km/h (3 Bft) 93,62 %
18.07.2017 12:50 28,1 C 23,9 C 42 % 1016,2 hPa 0,0 l/m 9,3 km/h (2 Bft) O-NO 77 2 min 0,000 mm 6,5 UV-I 878 W/m 14,0 C 27,7 C 12,9 km/h (3 Bft) 95,74 %
18.07.2017 12:52 27,9 C 23,9 C 41 % 1016,2 hPa 0,0 l/m 2,0 km/h (1 Bft) O 90 2 min 0,000 mm 6,5 UV-I 879 W/m 13,4 C 27,9 C 9,7 km/h (2 Bft) 93,62 %
18.07.2017 12:54 27,9 C 23,9 C 42 % 1016,1 hPa 0,0 l/m 5,5 km/h (1 Bft) O-NO 61 2 min 0,000 mm 6,5 UV-I 879 W/m 13,8 C 27,9 C 14,5 km/h (3 Bft) 98,00 %
18.07.2017 12:56 27,8 C 23,9 C 42 % 1016,1 hPa 0,0 l/m 7,1 km/h (2 Bft) O-NO 61 2 min 0,000 mm 6,6 UV-I 889 W/m 13,7 C 27,7 C 17,7 km/h (3 Bft) 87,50 %
18.07.2017 12:58 27,9 C 23,9 C 42 % 1016,2 hPa 0,0 l/m 12,9 km/h (3 Bft) O-NO 77 2 min 0,000 mm 6,7 UV-I 885 W/m 13,8 C 27,0 C 17,7 km/h (3 Bft) 94,03 %
18.07.2017 13:00 28,1 C 23,9 C 41 % 1016,1 hPa 0,0 l/m 10,8 km/h (2 Bft) O-NO 59 2 min 0,635 mm 6,7 UV-I 886 W/m 13,6 C 27,5 C 14,5 km/h (3 Bft) 92,00 %
18.07.2017 13:02 28,2 C 23,9 C 40 % 1016,2 hPa 0,0 l/m 4,2 km/h (1 Bft) O-NO 76 2 min 0,000 mm 6,6 UV-I 879 W/m 13,3 C 28,2 C 11,3 km/h (2 Bft) 95,74 %
18.07.2017 13:04 28,1 C 23,9 C 41 % 1016,2 hPa 0,0 l/m 6,9 km/h (2 Bft) O 94 2 min 0,000 mm 6,6 UV-I 889 W/m 13,6 C 28,0 C 12,9 km/h (3 Bft) 94,44 %
18.07.2017 13:06 28,3 C 23,9 C 42 % 1016,1 hPa 0,0 l/m 11,7 km/h (2 Bft) NO 51 2 min 0,000 mm 6,7 UV-I 891 W/m 14,1 C 27,6 C 19,3 km/h (3 Bft) 96,00 %
18.07.2017 13:08 28,7 C 23,9 C 40 % 1016,2 hPa 0,0 l/m 13,0 km/h (3 Bft) O 81 2 min 0,000 mm 6,7 UV-I 888 W/m 13,7 C 28,0 C 19,3 km/h (3 Bft) 93,62 %
18.07.2017 13:10 28,5 C 23,9 C 38 % 1016,1 hPa 0,0 l/m 4,0 km/h (1 Bft) O 88 2 min 0,000 mm 6,5 UV-I 882 W/m 12,8 C 28,5 C 11,3 km/h (2 Bft) 95,74 %
18.07.2017 13:12 28,2 C 23,9 C 40 % 1016,1 hPa 0,0 l/m 7,4 km/h (2 Bft) N-NO 22 2 min 0,000 mm 6,5 UV-I 881 W/m 13,3 C 28,0 C 14,5 km/h (3 Bft) 95,74 %
18.07.2017 13:14 28,3 C 23,9 C 39 % 1016,1 hPa 0,0 l/m 5,4 km/h (1 Bft) N-NO 28 2 min 0,000 mm 6,5 UV-I 881 W/m 13,0 C 28,3 C 12,9 km/h (3 Bft) 98,00 %
18.07.2017 13:16 28,5 C 23,9 C 39 % 1016,1 hPa 0,0 l/m 6,0 km/h (2 Bft) N 355 2 min 0,000 mm 6,5 UV-I 882 W/m 13,2 C 28,5 C 14,5 km/h (3 Bft) 95,65 %
18.07.2017 13:18 28,4 C 23,9 C 39 % 1016,1 hPa 0,0 l/m 2,3 km/h (1 Bft) NW 311 2 min 0,000 mm 6,6 UV-I 885 W/m 13,1 C 28,4 C 4,8 km/h (1 Bft) 97,87 %
18.07.2017 13:20 28,4 C 23,9 C 39 % 1016,1 hPa 0,0 l/m 1,7 km/h (1 Bft) W-NW 296 2 min 0,000 mm 6,6 UV-I 888 W/m 13,1 C 28,4 C 4,8 km/h (1 Bft) 93,62 %
18.07.2017 13:22 28,4 C 23,9 C 39 % 1016,0 hPa 0,0 l/m 5,9 km/h (2 Bft) O-NO 57 2 min 0,000 mm 6,7 UV-I 890 W/m 13,1 C 28,4 C 12,9 km/h (3 Bft) 95,74 %
18.07.2017 13:24 28,4 C 23,9 C 43 % 1016,0 hPa 0,0 l/m 5,4 km/h (1 Bft) O-SO 117 2 min 0,000 mm 6,7 UV-I 892 W/m 14,6 C 28,4 C 11,3 km/h (2 Bft) 95,74 %
18.07.2017 13:26 28,6 C 23,9 C 40 % 1016,0 hPa 0,0 l/m 5,0 km/h (1 Bft) S-SW 192 2 min 0,000 mm 6,7 UV-I 889 W/m 13,7 C 28,6 C 12,9 km/h (3 Bft) 97,87 %
18.07.2017 13:28 28,6 C 23,9 C 41 % 1015,9 hPa 0,0 l/m 5,4 km/h (1 Bft) S-SW 205 2 min 0,000 mm 6,1 UV-I 883 W/m 14,0 C 28,6 C 9,7 km/h (2 Bft) 97,87 %
18.07.2017 13:30 28,7 C 23,9 C 41 % 1015,9 hPa 0,0 l/m 7,0 km/h (2 Bft) NO 56 2 min 0,000 mm 6,5 UV-I 882 W/m 14,1 C 28,6 C 16,1 km/h (3 Bft) 97,87 %
18.07.2017 13:32 29,1 C 23,9 C 40 % 1015,9 hPa 0,0 l/m 7,6 km/h (2 Bft) N-NO 15 2 min 0,000 mm 5,6 UV-I 877 W/m 14,1 C 29,0 C 16,1 km/h (3 Bft) 93,62 %
18.07.2017 13:34 29,3 C 23,9 C 38 % 1015,9 hPa 0,0 l/m 6,6 km/h (2 Bft) W-NW 300 2 min 0,000 mm 6,3 UV-I 875 W/m 13,5 C 29,3 C 12,9 km/h (3 Bft) 98,00 %
18.07.2017 13:36 29,0 C 23,9 C 38 % 1015,8 hPa 0,0 l/m 4,7 km/h (1 Bft) NW 319 2 min 0,000 mm 6,0 UV-I 872 W/m 13,2 C 29,0 C 8,0 km/h (2 Bft) 93,62 %
18.07.2017 13:38 28,7 C 23,9 C 39 % 1015,8 hPa 0,0 l/m 6,4 km/h (2 Bft) O 95 2 min 0,000 mm 5,8 UV-I 869 W/m 13,4 C 28,7 C 12,9 km/h (3 Bft) 94,74 %
18.07.2017 13:40 28,5 C 23,9 C 38 % 1015,8 hPa 0,0 l/m 6,5 km/h (2 Bft) S-SW 211 2 min 0,000 mm 6,4 UV-I 868 W/m 12,8 C 28,5 C 14,5 km/h (3 Bft) 96,00 %
18.07.2017 13:42 28,2 C 23,9 C 39 % 1015,8 hPa 0,0 l/m 2,6 km/h (1 Bft) W-SW 257 2 min 0,000 mm 6,4 UV-I 877 W/m 12,9 C 28,2 C 4,8 km/h (1 Bft) 93,62 %
18.07.2017 13:44 28,4 C 23,9 C 39 % 1015,8 hPa 0,0 l/m 6,2 km/h (2 Bft) O 79 2 min 0,000 mm 6,4 UV-I 861 W/m 13,1 C 28,4 C 11,3 km/h (2 Bft) 92,00 %
18.07.2017 13:46 28,6 C 23,9 C 39 % 1015,8 hPa 0,0 l/m 12,7 km/h (3 Bft) O 81 2 min 0,000 mm 6,4 UV-I 855 W/m 13,3 C 27,9 C 17,7 km/h (3 Bft) 95,83 %
18.07.2017 13:48 28,8 C 23,9 C 37 % 1015,7 hPa 0,0 l/m 9,6 km/h (2 Bft) O-NO 74 2 min 0,000 mm 6,4 UV-I 876 W/m 12,6 C 28,4 C 14,5 km/h (3 Bft) 95,74 %
18.07.2017 13:50 28,7 C 23,9 C 37 % 1015,8 hPa 0,0 l/m 4,7 km/h (1 Bft) O-NO 71 2 min 0,000 mm 6,4 UV-I 875 W/m 12,5 C 28,7 C 6,4 km/h (2 Bft) 97,87 %
18.07.2017 13:52 28,6 C 23,9 C 38 % 1015,7 hPa 0,0 l/m 1,8 km/h (1 Bft) S-SO 149 2 min 0,000 mm 5,6 UV-I 874 W/m 12,9 C 28,6 C 3,2 km/h (1 Bft) 95,74 %
18.07.2017 13:54 28,7 C 23,9 C 37 % 1015,7 hPa 0,0 l/m 5,5 km/h (1 Bft) O-NO 60 2 min 0,000 mm 6,3 UV-I 872 W/m 12,5 C 28,7 C 16,1 km/h (3 Bft) 100,00 %
18.07.2017 13:56 28,9 C 23,9 C 40 % 1015,6 hPa 0,0 l/m 8,9 km/h (2 Bft) NO 47 2 min 0,000 mm 6,3 UV-I 870 W/m 13,9 C 28,6 C 16,1 km/h (3 Bft) 97,87 %
18.07.2017 13:58 29,4 C 23,9 C 37 % 1015,7 hPa 0,0 l/m 12,9 km/h (3 Bft) O-NO 61 2 min 0,000 mm 6,3 UV-I 868 W/m 13,2 C 28,8 C 19,3 km/h (3 Bft) 95,74 %
18.07.2017 14:00 29,4 C 23,9 C 35 % 1015,7 hPa 0,0 l/m 11,7 km/h (2 Bft) NO 38 2 min 0,635 mm 6,2 UV-I 866 W/m 12,3 C 28,9 C 17,7 km/h (3 Bft) 97,14 %
18.07.2017 14:02 29,4 C 23,9 C 35 % 1015,6 hPa 0,0 l/m 8,5 km/h (2 Bft) N-NO 30 2 min 0,000 mm 6,1 UV-I 858 W/m 12,3 C 29,2 C 14,5 km/h (3 Bft) 95,74 %
18.07.2017 14:04 29,4 C 23,9 C 37 % 1015,6 hPa 0,0 l/m 7,4 km/h (2 Bft) N-NO 33 2 min 0,000 mm 6,1 UV-I 850 W/m 13,2 C 29,3 C 12,9 km/h (3 Bft) 97,87 %
18.07.2017 14:06 29,6 C 23,9 C 35 % 1015,6 hPa 0,0 l/m 6,1 km/h (2 Bft) N-NO 30 2 min 0,000 mm 6,2 UV-I 861 W/m 12,5 C 29,6 C 16,1 km/h (3 Bft) 95,74 %
18.07.2017 14:08 29,5 C 24,4 C 35 % 1015,6 hPa 0,0 l/m 6,1 km/h (2 Bft) N-NO 26 2 min 0,000 mm 6,1 UV-I 859 W/m 12,4 C 29,5 C 12,9 km/h (3 Bft) 97,87 %
18.07.2017 14:10 29,6 C 24,4 C 35 % 1015,5 hPa 0,0 l/m 6,9 km/h (2 Bft) N-NO 33 2 min 0,000 mm 6,1 UV-I 838 W/m 12,5 C 29,5 C 12,9 km/h (3 Bft) 100,00 %
18.07.2017 14:12 29,7 C 24,4 C 37 % 1015,5 hPa 0,0 l/m 8,0 km/h (2 Bft) O-NO 57 2 min 0,000 mm 6,0 UV-I 849 W/m 13,4 C 29,5 C 14,5 km/h (3 Bft) 98,00 %
18.07.2017 14:14 29,9 C 24,4 C 34 % 1015,5 hPa 0,0 l/m 7,6 km/h (2 Bft) N-NO 16 2 min 0,000 mm 6,0 UV-I 849 W/m 12,3 C 29,8 C 11,3 km/h (2 Bft) 95,74 %
18.07.2017 14:16 29,4 C 24,4 C 33 % 1015,5 hPa 0,0 l/m 3,0 km/h (1 Bft) W 267 2 min 0,000 mm 6,0 UV-I 834 W/m 11,4 C 29,4 C 6,4 km/h (2 Bft) 100,00 %
18.07.2017 14:18 29,1 C 24,4 C 33 % 1015,5 hPa 0,0 l/m 5,6 km/h (1 Bft) W-SW 244 2 min 0,000 mm 6,0 UV-I 843 W/m 11,2 C 29,1 C 11,3 km/h (2 Bft) 100,00 %
18.07.2017 14:20 28,9 C 24,4 C 35 % 1015,5 hPa 0,0 l/m 7,5 km/h (2 Bft) W-SW 242 2 min 0,000 mm 6,0 UV-I 848 W/m 11,9 C 28,8 C 9,7 km/h (2 Bft) 97,87 %
18.07.2017 14:22 29,1 C 24,4 C 35 % 1015,4 hPa 0,0 l/m 4,0 km/h (1 Bft) W-SW 248 2 min 0,000 mm 6,0 UV-I 849 W/m 12,1 C 29,1 C 6,4 km/h (2 Bft) 97,87 %
18.07.2017 14:24 29,2 C 24,4 C 34 % 1015,4 hPa 0,0 l/m 2,8 km/h (1 Bft) N-NW 336 2 min 0,000 mm 6,0 UV-I 848 W/m 11,7 C 29,2 C 4,8 km/h (1 Bft) 95,74 %
18.07.2017 14:26 29,4 C 24,4 C 37 % 1015,4 hPa 0,0 l/m 2,9 km/h (1 Bft) N-NW 340 2 min 0,000 mm 5,9 UV-I 848 W/m 13,2 C 29,4 C 4,8 km/h (1 Bft) 95,83 %
18.07.2017 14:28 29,7 C 24,4 C 36 % 1015,4 hPa 0,0 l/m 4,2 km/h (1 Bft) NO 40 2 min 0,000 mm 5,9 UV-I 842 W/m 13,0 C 29,7 C 8,0 km/h (2 Bft) 93,62 %
18.07.2017 14:30 29,7 C 24,4 C 34 % 1015,4 hPa 0,0 l/m 3,8 km/h (1 Bft) O-NO 62 2 min 0,000 mm 5,9 UV-I 842 W/m 12,1 C 29,7 C 8,0 km/h (2 Bft) 93,62 %
18.07.2017 14:32 29,9 C 24,4 C 33 % 1015,4 hPa 0,0 l/m 6,7 km/h (2 Bft) N 355 2 min 0,000 mm 5,8 UV-I 840 W/m 11,9 C 29,9 C 12,9 km/h (3 Bft) 93,62 %
18.07.2017 14:34 29,8 C 24,4 C 36 % 1015,4 hPa 0,0 l/m 3,1 km/h (1 Bft) N-NO 32 2 min 0,000 mm 5,8 UV-I 837 W/m 13,1 C 29,8 C 6,4 km/h (2 Bft) 95,74 %
18.07.2017 14:36 29,9 C 24,4 C 34 % 1015,4 hPa 0,0 l/m 5,6 km/h (1 Bft) N-NO 28 2 min 0,000 mm 5,8 UV-I 836 W/m 12,3 C 29,9 C 11,3 km/h (2 Bft) 93,62 %
18.07.2017 14:38 30,0 C 24,4 C 34 % 1015,3 hPa 0,0 l/m 9,1 km/h (2 Bft) NO 38 2 min 0,000 mm 5,7 UV-I 828 W/m 12,4 C 29,8 C 14,5 km/h (3 Bft) 93,62 %
18.07.2017 14:40 30,0 C 24,4 C 36 % 1015,4 hPa 0,0 l/m 6,6 km/h (2 Bft) NO 47 2 min 0,000 mm 5,7 UV-I 824 W/m 13,3 C 30,0 C 12,9 km/h (3 Bft) 94,74 %
18.07.2017 14:42 29,9 C 24,4 C 34 % 1015,3 hPa 0,0 l/m 5,9 km/h (2 Bft) O-NO 63 2 min 0,000 mm 5,6 UV-I 823 W/m 12,3 C 29,9 C 9,7 km/h (2 Bft) 93,62 %
18.07.2017 14:44 29,9 C 24,4 C 34 % 1015,2 hPa 0,0 l/m 5,7 km/h (1 Bft) O-SO 104 2 min 0,000 mm 5,6 UV-I 822 W/m 12,3 C 29,9 C 9,7 km/h (2 Bft) 96,00 %
18.07.2017 14:46 29,8 C 24,4 C 37 % 1015,2 hPa 0,0 l/m 0,9 km/h (0 Bft) O-SO 104 2 min 0,000 mm 5,6 UV-I 820 W/m 13,5 C 29,8 C 3,2 km/h (1 Bft) 93,62 %
18.07.2017 14:48 30,1 C 24,4 C 35 % 1015,2 hPa 0,0 l/m 2,2 km/h (1 Bft) O-SO 119 2 min 0,000 mm 5,5 UV-I 818 W/m 12,9 C 30,1 C 6,4 km/h (2 Bft) 95,74 %
18.07.2017 14:50 30,4 C 24,4 C 37 % 1015,2 hPa 0,0 l/m 8,2 km/h (2 Bft) N 355 2 min 0,000 mm 5,4 UV-I 776 W/m 14,0 C 30,3 C 11,3 km/h (2 Bft) 97,87 %
18.07.2017 14:52 30,8 C 24,4 C 35 % 1015,2 hPa 0,0 l/m 2,5 km/h (1 Bft) NW 311 2 min 0,000 mm 5,5 UV-I 816 W/m 13,5 C 30,8 C 4,8 km/h (1 Bft) 91,43 %
18.07.2017 14:54 30,9 C 24,4 C 36 % 1015,2 hPa 0,0 l/m 8,1 km/h (2 Bft) NO 42 2 min 0,000 mm 5,4 UV-I 834 W/m 14,1 C 30,8 C 12,9 km/h (3 Bft) 96,00 %
18.07.2017 14:56 30,8 C 24,4 C 33 % 1015,2 hPa 0,0 l/m 5,9 km/h (2 Bft) O-NO 74 2 min 0,000 mm 5,3 UV-I 798 W/m 12,6 C 30,8 C 12,9 km/h (3 Bft) 96,00 %
18.07.2017 14:58 30,5 C 24,4 C 35 % 1015,1 hPa 0,0 l/m 4,2 km/h (1 Bft) O-NO 57 2 min 0,000 mm 5,3 UV-I 817 W/m 13,3 C 30,5 C 14,5 km/h (3 Bft) 97,92 %
18.07.2017 15:00 30,2 C 24,4 C 34 % 1015,1 hPa 0,0 l/m 6,7 km/h (2 Bft) NO 34 2 min 0,000 mm 5,2 UV-I 793 W/m 12,6 C 30,2 C 12,9 km/h (3 Bft) 97,87 %
18.07.2017 15:02 30,2 C 24,4 C 36 % 1015,1 hPa 0,0 l/m 3,8 km/h (1 Bft) O 85 2 min 0,610 mm 4,8 UV-I 790 W/m 13,4 C 30,2 C 11,3 km/h (2 Bft) 98,00 %
18.07.2017 15:04 30,2 C 24,4 C 35 % 1015,1 hPa 0,0 l/m 10,3 km/h (2 Bft) NO 46 2 min 0,000 mm 5,2 UV-I 759 W/m 13,0 C 29,9 C 14,5 km/h (3 Bft) 97,87 %
18.07.2017 15:06 30,3 C 24,4 C 35 % 1015,1 hPa 0,0 l/m 8,7 km/h (2 Bft) NO 49 2 min 0,000 mm 5,2 UV-I 789 W/m 13,1 C 30,1 C 14,5 km/h (3 Bft) 96,00 %
18.07.2017 15:08 30,4 C 24,4 C 34 % 1015,1 hPa 0,0 l/m 6,1 km/h (2 Bft) NO 37 2 min 0,000 mm 5,1 UV-I 785 W/m 12,7 C 30,4 C 9,7 km/h (2 Bft) 95,74 %
18.07.2017 15:10 30,2 C 24,4 C 35 % 1015,0 hPa 0,0 l/m 5,2 km/h (1 Bft) N 355 2 min 0,000 mm 5,0 UV-I 782 W/m 13,0 C 30,2 C 11,3 km/h (2 Bft) 97,50 %
18.07.2017 15:12 29,9 C 24,4 C 36 % 1015,0 hPa 0,0 l/m 2,7 km/h (1 Bft) W-NW 303 2 min 0,000 mm 4,9 UV-I 774 W/m 13,2 C 29,9 C 6,4 km/h (2 Bft) 98,00 %
18.07.2017 15:14 29,8 C 24,4 C 34 % 1015,0 hPa 0,0 l/m 6,2 km/h (2 Bft) O-SO 107 2 min 0,000 mm 4,9 UV-I 772 W/m 12,2 C 29,8 C 12,9 km/h (3 Bft) 96,00 %
18.07.2017 15:16 29,7 C 24,4 C 35 % 1014,9 hPa 0,0 l/m 4,2 km/h (1 Bft) NO 49 2 min 0,000 mm 4,9 UV-I 771 W/m 12,6 C 29,7 C 6,4 km/h (2 Bft) 100,00 %
18.07.2017 15:18 29,7 C 24,4 C 34 % 1014,9 hPa 0,0 l/m 3,0 km/h (1 Bft) N-NW 336 2 min 0,000 mm 4,9 UV-I 769 W/m 12,1 C 29,7 C 4,8 km/h (1 Bft) 100,00 %
18.07.2017 15:20 29,7 C 24,4 C 35 % 1014,9 hPa 0,0 l/m 1,1 km/h (1 Bft) N-NW 338 2 min 0,000 mm 4,8 UV-I 766 W/m 12,6 C 29,7 C 3,2 km/h (1 Bft) 100,00 %
18.07.2017 15:22 29,9 C 24,4 C 34 % 1014,8 hPa 0,0 l/m 2,9 km/h (1 Bft) N-NW 329 2 min 0,000 mm 4,8 UV-I 764 W/m 12,3 C 29,9 C 4,8 km/h (1 Bft) 100,00 %
18.07.2017 15:24 29,8 C 24,4 C 35 % 1014,8 hPa 0,0 l/m 2,5 km/h (1 Bft) N 360 2 min 0,000 mm 4,6 UV-I 762 W/m 12,7 C 29,8 C 6,4 km/h (2 Bft) 100,00 %
18.07.2017 15:26 29,8 C 24,4 C 34 % 1014,8 hPa 0,0 l/m 4,2 km/h (1 Bft) NW 315 2 min 0,000 mm 4,7 UV-I 757 W/m 12,2 C 29,8 C 11,3 km/h (2 Bft) 97,87 %
18.07.2017 15:28 30,0 C 24,4 C 35 % 1014,8 hPa 0,0 l/m 3,8 km/h (1 Bft) N-NW 330 2 min 0,000 mm 4,7 UV-I 752 W/m 12,8 C 30,0 C 6,4 km/h (2 Bft) 95,74 %
18.07.2017 15:30 30,1 C 24,4 C 35 % 1014,7 hPa 0,0 l/m 3,2 km/h (1 Bft) W-NW 294 2 min 0,000 mm 4,6 UV-I 752 W/m 12,9 C 30,1 C 9,7 km/h (2 Bft) 97,87 %
18.07.2017 15:32 30,1 C 24,4 C 35 % 1014,7 hPa 0,0 l/m 3,7 km/h (1 Bft) O-NO 57 2 min 0,000 mm 4,6 UV-I 751 W/m 12,9 C 30,1 C 8,0 km/h (2 Bft) 97,37 %
18.07.2017 15:34 30,4 C 24,4 C 35 % 1014,7 hPa 0,0 l/m 5,3 km/h (1 Bft) O-NO 62 2 min 0,000 mm 4,6 UV-I 746 W/m 13,2 C 30,4 C 8,0 km/h (2 Bft) 100,00 %
18.07.2017 15:36 30,4 C 25,0 C 34 % 1014,7 hPa 0,0 l/m 4,0 km/h (1 Bft) SO 128 2 min 0,000 mm 4,5 UV-I 741 W/m 12,7 C 30,4 C 6,4 km/h (2 Bft) 95,74 %
18.07.2017 15:38 30,4 C 25,0 C 33 % 1014,7 hPa 0,0 l/m 1,4 km/h (1 Bft) W-SW 247 2 min 0,000 mm 4,4 UV-I 737 W/m 12,3 C 30,4 C 4,8 km/h (1 Bft) 100,00 %
18.07.2017 15:40 30,3 C 25,0 C 33 % 1014,6 hPa 0,0 l/m 2,4 km/h (1 Bft) N-NW 328 2 min 0,000 mm 4,4 UV-I 732 W/m 12,2 C 30,3 C 8,0 km/h (2 Bft) 97,87 %
18.07.2017 15:42 30,1 C 25,0 C 33 % 1014,6 hPa 0,0 l/m 3,0 km/h (1 Bft) N-NO 13 2 min 0,000 mm 4,3 UV-I 726 W/m 12,0 C 30,1 C 8,0 km/h (2 Bft) 97,87 %
18.07.2017 15:44 30,2 C 25,0 C 36 % 1014,6 hPa 0,0 l/m 1,5 km/h (1 Bft) N 351 2 min 0,000 mm 4,2 UV-I 719 W/m 13,4 C 30,2 C 3,2 km/h (1 Bft) 97,87 %
18.07.2017 15:46 30,3 C 25,0 C 35 % 1014,6 hPa 0,0 l/m 2,0 km/h (1 Bft) O-SO 107 2 min 0,000 mm 4,2 UV-I 713 W/m 13,1 C 30,3 C 3,2 km/h (1 Bft) 97,87 %
18.07.2017 15:48 30,3 C 25,0 C 34 % 1014,6 hPa 0,0 l/m 3,1 km/h (1 Bft) SO 140 2 min 0,000 mm 4,1 UV-I 706 W/m 12,7 C 30,3 C 6,4 km/h (2 Bft) 98,00 %
18.07.2017 15:50 30,3 C 25,0 C 36 % 1014,4 hPa 0,0 l/m 1,5 km/h (1 Bft) NO 49 2 min 0,000 mm 4,0 UV-I 699 W/m 13,5 C 30,3 C 4,8 km/h (1 Bft) 95,74 %
18.07.2017 15:52 30,5 C 25,0 C 34 % 1014,4 hPa 0,0 l/m 4,6 km/h (1 Bft) NO 55 2 min 0,000 mm 4,0 UV-I 690 W/m 12,8 C 30,5 C 8,0 km/h (2 Bft) 95,74 %
18.07.2017 15:54 30,6 C 25,0 C 36 % 1014,4 hPa 0,0 l/m 3,7 km/h (1 Bft) O-SO 103 2 min 0,000 mm 4,0 UV-I 695 W/m 13,8 C 30,6 C 6,4 km/h (2 Bft) 94,00 %
18.07.2017 15:56 30,7 C 25,0 C 32 % 1014,3 hPa 0,0 l/m 3,7 km/h (1 Bft) NO 40 2 min 0,000 mm 3,8 UV-I 693 W/m 12,1 C 30,7 C 8,0 km/h (2 Bft) 97,87 %
18.07.2017 15:58 30,7 C 25,0 C 34 % 1014,3 hPa 0,0 l/m 2,6 km/h (1 Bft) NO 38 2 min 0,000 mm 3,8 UV-I 689 W/m 13,0 C 30,7 C 8,0 km/h (2 Bft) 95,74 %
18.07.2017 16:00 30,8 C 25,0 C 33 % 1014,3 hPa 0,0 l/m 5,6 km/h (1 Bft) N-NW 331 2 min 0,533 mm 3,9 UV-I 687 W/m 12,6 C 30,8 C 12,9 km/h (3 Bft) 97,87 %
18.07.2017 16:02 30,8 C 25,0 C 33 % 1014,3 hPa 0,0 l/m 4,5 km/h (1 Bft) N-NW 346 2 min 0,000 mm 3,8 UV-I 684 W/m 12,6 C 30,8 C 12,9 km/h (3 Bft) 95,74 %
18.07.2017 16:04 30,9 C 25,0 C 34 % 1014,3 hPa 0,0 l/m 2,3 km/h (1 Bft) N-NW 346 2 min 0,000 mm 3,8 UV-I 680 W/m 13,2 C 30,9 C 4,8 km/h (1 Bft) 95,74 %
18.07.2017 16:06 30,9 C 25,0 C 33 % 1014,3 hPa 0,0 l/m 4,5 km/h (1 Bft) NW 323 2 min 0,000 mm 3,8 UV-I 679 W/m 12,7 C 30,9 C 8,0 km/h (2 Bft) 95,74 %
18.07.2017 16:08 30,8 C 25,0 C 33 % 1014,2 hPa 0,0 l/m 3,6 km/h (1 Bft) NW 325 2 min 0,000 mm 3,7 UV-I 675 W/m 12,6 C 30,8 C 12,9 km/h (3 Bft) 95,12 %
18.07.2017 16:10 30,7 C 25,0 C 33 % 1014,2 hPa 0,0 l/m 4,0 km/h (1 Bft) NW 312 2 min 0,000 mm 3,7 UV-I 669 W/m 12,6 C 30,7 C 6,4 km/h (2 Bft) 93,62 %
18.07.2017 16:12 30,6 C 25,0 C 34 % 1014,2 hPa 0,0 l/m 4,3 km/h (1 Bft) NW 312 2 min 0,000 mm 3,6 UV-I 665 W/m 12,9 C 30,6 C 8,0 km/h (2 Bft) 93,62 %
18.07.2017 16:14 30,5 C 25,0 C 34 % 1014,1 hPa 0,0 l/m 4,1 km/h (1 Bft) NW 325 2 min 0,000 mm 3,6 UV-I 658 W/m 12,8 C 30,5 C 8,0 km/h (2 Bft) 93,62 %
18.07.2017 16:16 30,5 C 25,0 C 33 % 1014,1 hPa 0,0 l/m 4,6 km/h (1 Bft) N-NW 329 2 min 0,000 mm 3,5 UV-I 650 W/m 12,4 C 30,5 C 8,0 km/h (2 Bft) 91,49 %
18.07.2017 16:18 30,4 C 25,0 C 35 % 1014,1 hPa 0,0 l/m 3,5 km/h (1 Bft) W 266 2 min 0,000 mm 3,4 UV-I 645 W/m 13,2 C 30,4 C 9,7 km/h (2 Bft) 95,74 %
18.07.2017 16:20 30,3 C 25,0 C 34 % 1014,1 hPa 0,0 l/m 2,5 km/h (1 Bft) W 259 2 min 0,000 mm 3,4 UV-I 643 W/m 12,7 C 30,3 C 6,4 km/h (2 Bft) 94,00 %
18.07.2017 16:22 30,5 C 25,0 C 34 % 1014,0 hPa 0,0 l/m 4,9 km/h (1 Bft) NO 36 2 min 0,000 mm 3,3 UV-I 637 W/m 12,8 C 30,5 C 12,9 km/h (3 Bft) 94,87 %
18.07.2017 16:24 30,7 C 25,0 C 34 % 1014,0 hPa 0,0 l/m 5,3 km/h (1 Bft) N-NO 13 2 min 0,000 mm 3,3 UV-I 633 W/m 13,0 C 30,7 C 12,9 km/h (3 Bft) 95,74 %
18.07.2017 16:26 30,9 C 25,0 C 32 % 1014,0 hPa 0,0 l/m 3,0 km/h (1 Bft) O 97 2 min 0,000 mm 3,3 UV-I 631 W/m 12,3 C 30,9 C 6,4 km/h (2 Bft) 92,00 %
18.07.2017 16:28 30,9 C 25,0 C 33 % 1013,9 hPa 0,0 l/m 5,3 km/h (1 Bft) N-NO 27 2 min 0,000 mm 3,2 UV-I 626 W/m 12,7 C 30,9 C 8,0 km/h (2 Bft) 89,36 %
18.07.2017 16:30 30,8 C 25,0 C 32 % 1013,9 hPa 0,0 l/m 2,8 km/h (1 Bft) N 9 2 min 0,000 mm 3,2 UV-I 610 W/m 12,2 C 30,8 C 6,4 km/h (2 Bft) 93,62 %
18.07.2017 16:32 30,7 C 25,0 C 33 % 1013,9 hPa 0,0 l/m 3,1 km/h (1 Bft) N-NW 334 2 min 0,000 mm 2,9 UV-I 614 W/m 12,6 C 30,7 C 6,4 km/h (2 Bft) 93,62 %
18.07.2017 16:34 30,7 C 25,0 C 34 % 1013,9 hPa 0,0 l/m 8,5 km/h (2 Bft) NO 40 2 min 0,000 mm 3,1 UV-I 611 W/m 13,0 C 30,6 C 16,1 km/h (3 Bft) 97,87 %
18.07.2017 16:36 30,9 C 25,0 C 34 % 1013,9 hPa 0,0 l/m 8,4 km/h (2 Bft) N-NW 331 2 min 0,000 mm 3,0 UV-I 604 W/m 13,2 C 30,8 C 14,5 km/h (3 Bft) 98,00 %
18.07.2017 16:38 30,9 C 25,0 C 32 % 1013,9 hPa 0,0 l/m 4,0 km/h (1 Bft) N-NW 330 2 min 0,000 mm 3,0 UV-I 599 W/m 12,3 C 30,9 C 14,5 km/h (3 Bft) 93,62 %
18.07.2017 16:40 30,8 C 25,0 C 33 % 1013,8 hPa 0,0 l/m 2,8 km/h (1 Bft) O-NO 67 2 min 0,000 mm 2,9 UV-I 595 W/m 12,6 C 30,8 C 8,0 km/h (2 Bft) 95,74 %
18.07.2017 16:42 30,7 C 25,0 C 34 % 1013,8 hPa 0,0 l/m 2,9 km/h (1 Bft) O-NO 59 2 min 0,000 mm 2,9 UV-I 592 W/m 13,0 C 30,7 C 8,0 km/h (2 Bft) 98,00 %
18.07.2017 16:44 30,8 C 25,0 C 34 % 1013,8 hPa 0,0 l/m 4,3 km/h (1 Bft) N 11 2 min 0,000 mm 2,8 UV-I 588 W/m 13,1 C 30,8 C 9,7 km/h (2 Bft) 95,74 %
18.07.2017 16:46 30,9 C 25,0 C 34 % 1013,7 hPa 0,0 l/m 1,0 km/h (0 Bft) NW 320 2 min 0,000 mm 2,8 UV-I 584 W/m 13,2 C 30,9 C 3,2 km/h (1 Bft) 97,87 %
18.07.2017 16:48 30,8 C 25,0 C 35 % 1013,7 hPa 0,0 l/m 1,0 km/h (0 Bft) N-NW 346 2 min 0,000 mm 2,7 UV-I 581 W/m 13,5 C 30,8 C 4,8 km/h (1 Bft) 97,14 %
18.07.2017 16:50 30,9 C 25,0 C 34 % 1013,7 hPa 0,0 l/m 3,7 km/h (1 Bft) NO 40 2 min 0,000 mm 2,7 UV-I 574 W/m 13,2 C 30,9 C 6,4 km/h (2 Bft) 95,74 %
18.07.2017 16:52 31,0 C 25,0 C 34 % 1013,6 hPa 0,0 l/m 7,1 km/h (2 Bft) NO 42 2 min 0,000 mm 2,6 UV-I 571 W/m 13,3 C 31,0 C 14,5 km/h (3 Bft) 97,87 %
18.07.2017 16:54 31,1 C 25,0 C 32 % 1013,6 hPa 0,0 l/m 9,4 km/h (2 Bft) O-NO 65 2 min 0,000 mm 2,6 UV-I 564 W/m 12,4 C 30,9 C 14,5 km/h (3 Bft) 97,87 %
18.07.2017 16:56 30,9 C 25,0 C 32 % 1013,6 hPa 0,0 l/m 5,2 km/h (1 Bft) NO 50 2 min 0,000 mm 2,6 UV-I 554 W/m 12,3 C 30,9 C 8,0 km/h (2 Bft) 97,96 %
18.07.2017 16:58 30,9 C 25,0 C 34 % 1013,6 hPa 0,0 l/m 3,8 km/h (1 Bft) N-NO 15 2 min 0,000 mm 2,5 UV-I 554 W/m 13,2 C 30,9 C 11,3 km/h (2 Bft) 95,74 %
18.07.2017 17:00 31,1 C 25,0 C 34 % 1013,6 hPa 0,0 l/m 5,7 km/h (1 Bft) N-NO 25 2 min 0,483 mm 2,5 UV-I 548 W/m 13,4 C 31,1 C 8,0 km/h (2 Bft) 100,00 %
18.07.2017 17:02 31,2 C 25,0 C 33 % 1013,6 hPa 0,0 l/m 4,6 km/h (1 Bft) O 80 2 min 0,000 mm 2,4 UV-I 542 W/m 13,0 C 31,2 C 6,4 km/h (2 Bft) 95,74 %
18.07.2017 17:04 31,1 C 25,0 C 32 % 1013,6 hPa 0,0 l/m 4,7 km/h (1 Bft) O-NO 59 2 min 0,000 mm 2,3 UV-I 537 W/m 12,4 C 31,1 C 8,0 km/h (2 Bft) 94,00 %
18.07.2017 17:06 31,2 C 25,0 C 33 % 1013,5 hPa 0,0 l/m 3,5 km/h (1 Bft) NO 53 2 min 0,000 mm 2,3 UV-I 530 W/m 13,0 C 31,2 C 6,4 km/h (2 Bft) 97,56 %
18.07.2017 17:08 31,3 C 25,0 C 32 % 1013,5 hPa 0,0 l/m 4,5 km/h (1 Bft) O 86 2 min 0,000 mm 2,3 UV-I 525 W/m 12,6 C 31,3 C 11,3 km/h (2 Bft) 95,74 %
18.07.2017 17:10 31,1 C 25,0 C 30 % 1013,5 hPa 0,0 l/m 8,1 km/h (2 Bft) O-NO 78 2 min 0,000 mm 2,2 UV-I 520 W/m 11,5 C 31,0 C 12,9 km/h (3 Bft) 100,00 %
18.07.2017 17:12 31,0 C 25,0 C 33 % 1013,5 hPa 0,0 l/m 6,8 km/h (2 Bft) O-NO 65 2 min 0,000 mm 2,2 UV-I 515 W/m 12,8 C 31,0 C 11,3 km/h (2 Bft) 97,87 %
18.07.2017 17:14 31,0 C 25,0 C 32 % 1013,4 hPa 0,0 l/m 12,0 km/h (2 Bft) O-NO 57 2 min 0,000 mm 2,2 UV-I 510 W/m 12,3 C 30,7 C 17,7 km/h (3 Bft) 100,00 %
18.07.2017 17:16 30,9 C 25,0 C 32 % 1013,5 hPa 0,0 l/m 11,4 km/h (2 Bft) NO 44 2 min 0,000 mm 2,1 UV-I 504 W/m 12,3 C 30,6 C 14,5 km/h (3 Bft) 97,87 %
18.07.2017 17:18 30,9 C 25,0 C 32 % 1013,5 hPa 0,0 l/m 8,4 km/h (2 Bft) NO 43 2 min 0,000 mm 2,1 UV-I 501 W/m 12,3 C 30,8 C 14,5 km/h (3 Bft) 97,87 %
18.07.2017 17:20 30,8 C 25,0 C 32 % 1013,5 hPa 0,0 l/m 5,3 km/h (1 Bft) NO 44 2 min 0,000 mm 2,0 UV-I 493 W/m 12,2 C 30,8 C 8,0 km/h (2 Bft) 98,00 %
18.07.2017 17:22 30,9 C 25,0 C 31 % 1013,5 hPa 0,0 l/m 4,5 km/h (1 Bft) N-NO 24 2 min 0,000 mm 2,0 UV-I 488 W/m 11,8 C 30,9 C 8,0 km/h (2 Bft) 97,87 %
18.07.2017 17:24 30,8 C 25,0 C 31 % 1013,4 hPa 0,0 l/m 1,0 km/h (0 Bft) N-NO 24 2 min 0,000 mm 1,9 UV-I 483 W/m 11,7 C 30,8 C 1,6 km/h (1 Bft) 100,00 %
18.07.2017 17:26 30,7 C 25,0 C 31 % 1013,4 hPa 0,0 l/m 0,2 km/h (0 Bft) N-NO 24 2 min 0,000 mm 1,9 UV-I 475 W/m 11,6 C 30,7 C 1,6 km/h (1 Bft) 95,74 %
18.07.2017 17:28 30,6 C 25,0 C 32 % 1013,3 hPa 0,0 l/m 1,7 km/h (1 Bft) N-NO 28 2 min 0,000 mm 1,8 UV-I 469 W/m 12,0 C 30,6 C 6,4 km/h (2 Bft) 95,74 %
18.07.2017 17:30 30,8 C 25,0 C 33 % 1013,3 hPa 0,0 l/m 6,4 km/h (2 Bft) N 355 2 min 0,000 mm 1,8 UV-I 467 W/m 12,6 C 30,8 C 14,5 km/h (3 Bft) 97,87 %
18.07.2017 17:32 30,8 C 25,0 C 33 % 1013,3 hPa 0,0 l/m 4,3 km/h (1 Bft) N-NW 347 2 min 0,000 mm 1,8 UV-I 462 W/m 12,6 C 30,8 C 8,0 km/h (2 Bft) 96,00 %
18.07.2017 17:34 30,8 C 25,0 C 33 % 1013,3 hPa 0,0 l/m 6,0 km/h (2 Bft) N 9 2 min 0,000 mm 1,7 UV-I 457 W/m 12,6 C 30,8 C 9,7 km/h (2 Bft) 100,00 %
18.07.2017 17:36 30,8 C 25,0 C 33 % 1013,3 hPa 0,0 l/m 6,0 km/h (2 Bft) N-NO 23 2 min 0,000 mm 1,7 UV-I 450 W/m 12,6 C 30,8 C 14,5 km/h (3 Bft) 100,00 %
18.07.2017 17:38 30,8 C 25,0 C 33 % 1013,2 hPa 0,0 l/m 2,2 km/h (1 Bft) NW 321 2 min 0,000 mm 1,6 UV-I 444 W/m 12,6 C 30,8 C 4,8 km/h (1 Bft) 97,87 %
18.07.2017 17:40 30,8 C 25,0 C 33 % 1013,3 hPa 0,0 l/m 1,1 km/h (1 Bft) N-NW 333 2 min 0,000 mm 1,6 UV-I 438 W/m 12,6 C 30,8 C 4,8 km/h (1 Bft) 97,87 %
18.07.2017 17:42 30,7 C 25,0 C 33 % 1013,2 hPa 0,0 l/m 3,0 km/h (1 Bft) N 5 2 min 0,000 mm 1,6 UV-I 433 W/m 12,6 C 30,7 C 6,4 km/h (2 Bft) 97,92 %
18.07.2017 17:44 30,6 C 25,0 C 33 % 1013,2 hPa 0,0 l/m 3,0 km/h (1 Bft) NO 38 2 min 0,000 mm 1,5 UV-I 425 W/m 12,5 C 30,6 C 8,0 km/h (2 Bft) 100,00 %
18.07.2017 17:46 30,7 C 25,0 C 33 % 1013,2 hPa 0,0 l/m 6,4 km/h (2 Bft) N-NO 26 2 min 0,000 mm 1,5 UV-I 419 W/m 12,6 C 30,7 C 9,7 km/h (2 Bft) 97,87 %
18.07.2017 17:48 30,7 C 25,0 C 34 % 1013,2 hPa 0,0 l/m 3,8 km/h (1 Bft) O-NO 67 2 min 0,000 mm 1,4 UV-I 411 W/m 13,0 C 30,7 C 6,4 km/h (2 Bft) 100,00 %
18.07.2017 17:50 30,8 C 25,0 C 33 % 1013,2 hPa 0,0 l/m 3,1 km/h (1 Bft) O-NO 63 2 min 0,000 mm 1,4 UV-I 403 W/m 12,6 C 30,8 C 4,8 km/h (1 Bft) 96,00 %
18.07.2017 17:52 30,8 C 25,0 C 33 % 1013,2 hPa 0,0 l/m 6,0 km/h (2 Bft) SO 137 2 min 0,000 mm 1,4 UV-I 398 W/m 12,6 C 30,8 C 12,9 km/h (3 Bft) 97,87 %
18.07.2017 17:54 30,7 C 25,0 C 33 % 1013,2 hPa 0,0 l/m 4,2 km/h (1 Bft) S-SO 159 2 min 0,000 mm 1,3 UV-I 393 W/m 12,6 C 30,7 C 8,0 km/h (2 Bft) 95,74 %
18.07.2017 17:56 30,4 C 25,0 C 33 % 1013,2 hPa 0,0 l/m 3,8 km/h (1 Bft) S-SW 201 2 min 0,000 mm 1,3 UV-I 387 W/m 12,3 C 30,4 C 6,4 km/h (2 Bft) 95,74 %
18.07.2017 17:58 30,4 C 25,0 C 33 % 1013,2 hPa 0,0 l/m 1,7 km/h (1 Bft) S 171 2 min 0,000 mm 1,3 UV-I 383 W/m 12,3 C 30,4 C 4,8 km/h (1 Bft) 92,68 %
18.07.2017 18:00 30,4 C 25,0 C 33 % 1013,2 hPa 0,0 l/m 1,0 km/h (0 Bft) S 171 2 min 0,000 mm 1,3 UV-I 379 W/m 12,3 C 30,4 C 3,2 km/h (1 Bft) 96,00 %
18.07.2017 18:02 30,4 C 25,0 C 35 % 1013,2 hPa 0,0 l/m 1,4 km/h (1 Bft) O-NO 68 2 min 0,381 mm 1,2 UV-I 374 W/m 13,2 C 30,4 C 4,8 km/h (1 Bft) 94,00 %
18.07.2017 18:04 30,5 C 25,0 C 34 % 1013,1 hPa 0,0 l/m 4,5 km/h (1 Bft) O-NO 63 2 min 0,000 mm 1,2 UV-I 366 W/m 12,8 C 30,5 C 6,4 km/h (2 Bft) 95,74 %
18.07.2017 18:06 30,6 C 25,0 C 35 % 1013,1 hPa 0,0 l/m 6,0 km/h (2 Bft) N-NO 22 2 min 0,000 mm 1,2 UV-I 360 W/m 13,4 C 30,6 C 9,7 km/h (2 Bft) 94,74 %
18.07.2017 18:08 30,6 C 25,0 C 35 % 1013,1 hPa 0,0 l/m 6,9 km/h (2 Bft) NO 38 2 min 0,000 mm 1,1 UV-I 354 W/m 13,4 C 30,6 C 9,7 km/h (2 Bft) 95,74 %
18.07.2017 18:10 30,7 C 25,0 C 36 % 1013,0 hPa 0,0 l/m 8,2 km/h (2 Bft) NO 34 2 min 0,000 mm 1,1 UV-I 348 W/m 13,9 C 30,6 C 14,5 km/h (3 Bft) 96,00 %
18.07.2017 18:12 30,8 C 25,0 C 35 % 1013,1 hPa 0,0 l/m 8,3 km/h (2 Bft) O-NO 67 2 min 0,000 mm 1,1 UV-I 338 W/m 13,5 C 30,7 C 16,1 km/h (3 Bft) 100,00 %
18.07.2017 18:14 30,9 C 25,0 C 35 % 1013,0 hPa 0,0 l/m 3,5 km/h (1 Bft) O-NO 71 2 min 0,000 mm 1,0 UV-I 339 W/m 13,6 C 30,9 C 6,4 km/h (2 Bft) 95,08 %
18.07.2017 18:16 31,0 C 25,0 C 35 % 1013,0 hPa 0,0 l/m 7,4 km/h (2 Bft) O-NO 74 2 min 0,000 mm 1,0 UV-I 330 W/m 13,7 C 30,9 C 12,9 km/h (3 Bft) 91,49 %
18.07.2017 18:18 30,9 C 25,0 C 36 % 1013,0 hPa 0,0 l/m 8,8 km/h (2 Bft) NO 51 2 min 0,000 mm 1,0 UV-I 325 W/m 14,1 C 30,7 C 11,3 km/h (2 Bft) 97,92 %
18.07.2017 18:20 30,8 C 25,0 C 36 % 1013,0 hPa 0,0 l/m 7,1 km/h (2 Bft) O-NO 59 2 min 0,000 mm 0,9 UV-I 321 W/m 14,0 C 30,8 C 11,3 km/h (2 Bft) 97,87 %
18.07.2017 18:22 30,7 C 25,0 C 36 % 1013,0 hPa 0,0 l/m 8,3 km/h (2 Bft) O-NO 64 2 min 0,000 mm 0,9 UV-I 316 W/m 13,9 C 30,6 C 14,5 km/h (3 Bft) 97,87 %
18.07.2017 18:24 30,7 C 25,0 C 36 % 1012,9 hPa 0,0 l/m 6,0 km/h (2 Bft) NO 52 2 min 0,000 mm 0,9 UV-I 310 W/m 13,9 C 30,7 C 9,7 km/h (2 Bft) 95,74 %
18.07.2017 18:26 30,7 C 25,0 C 35 % 1012,9 hPa 0,0 l/m 6,5 km/h (2 Bft) O 92 2 min 0,000 mm 0,9 UV-I 304 W/m 13,5 C 30,7 C 9,7 km/h (2 Bft) 100,00 %
18.07.2017 18:28 30,7 C 25,0 C 34 % 1012,8 hPa 0,0 l/m 3,4 km/h (1 Bft) NO 44 2 min 0,000 mm 0,8 UV-I 297 W/m 13,0 C 30,7 C 11,3 km/h (2 Bft) 95,74 %
18.07.2017 18:30 30,6 C 25,0 C 34 % 1012,8 hPa 0,0 l/m 8,5 km/h (2 Bft) O-NO 67 2 min 0,000 mm 0,8 UV-I 293 W/m 12,9 C 30,4 C 16,1 km/h (3 Bft) 97,37 %
18.07.2017 18:32 30,5 C 25,0 C 35 % 1012,8 hPa 0,0 l/m 6,0 km/h (2 Bft) NO 44 2 min 0,000 mm 0,8 UV-I 287 W/m 13,3 C 30,5 C 8,0 km/h (2 Bft) 96,00 %
18.07.2017 18:34 30,4 C 25,0 C 37 % 1012,8 hPa 0,0 l/m 6,4 km/h (2 Bft) NO 46 2 min 0,000 mm 0,8 UV-I 282 W/m 14,0 C 30,4 C 9,7 km/h (2 Bft) 95,74 %
18.07.2017 18:36 30,3 C 25,0 C 36 % 1012,8 hPa 0,0 l/m 4,1 km/h (1 Bft) NO 49 2 min 0,000 mm 0,7 UV-I 275 W/m 13,5 C 30,3 C 8,0 km/h (2 Bft) 95,74 %
18.07.2017 18:38 30,4 C 25,0 C 35 % 1012,8 hPa 0,0 l/m 3,8 km/h (1 Bft) O-SO 112 2 min 0,000 mm 0,7 UV-I 270 W/m 13,2 C 30,4 C 8,0 km/h (2 Bft) 95,74 %
18.07.2017 18:40 30,4 C 25,0 C 35 % 1012,7 hPa 0,0 l/m 2,7 km/h (1 Bft) N-NO 30 2 min 0,000 mm 0,7 UV-I 257 W/m 13,2 C 30,4 C 6,4 km/h (2 Bft) 91,49 %
18.07.2017 18:42 30,4 C 25,0 C 35 % 1012,8 hPa 0,0 l/m 2,6 km/h (1 Bft) O-NO 64 2 min 0,000 mm 0,7 UV-I 255 W/m 13,2 C 30,4 C 4,8 km/h (1 Bft) 98,00 %
18.07.2017 18:44 30,4 C 25,0 C 36 % 1012,7 hPa 0,0 l/m 0,9 km/h (0 Bft) O 95 2 min 0,000 mm 0,6 UV-I 242 W/m 13,6 C 30,4 C 9,7 km/h (2 Bft) 93,62 %
18.07.2017 18:46 30,4 C 25,0 C 36 % 1012,8 hPa 0,0 l/m 6,4 km/h (2 Bft) O 98 2 min 0,000 mm 0,6 UV-I 233 W/m 13,6 C 30,4 C 9,7 km/h (2 Bft) 96,00 %
18.07.2017 18:48 30,4 C 25,0 C 35 % 1012,8 hPa 0,0 l/m 3,6 km/h (1 Bft) O 79 2 min 0,000 mm 0,6 UV-I 236 W/m 13,2 C 30,4 C 9,7 km/h (2 Bft) 97,87 %
18.07.2017 18:50 30,4 C 25,0 C 35 % 1012,8 hPa 0,0 l/m 2,9 km/h (1 Bft) SO 128 2 min 0,000 mm 0,6 UV-I 233 W/m 13,2 C 30,4 C 6,4 km/h (2 Bft) 93,62 %
18.07.2017 18:52 30,3 C 25,0 C 35 % 1012,8 hPa 0,0 l/m 5,4 km/h (1 Bft) SO 142 2 min 0,000 mm 0,5 UV-I 222 W/m 13,1 C 30,3 C 9,7 km/h (2 Bft) 95,74 %
18.07.2017 18:54 30,3 C 25,0 C 34 % 1012,8 hPa 0,0 l/m 5,4 km/h (1 Bft) O-SO 122 2 min 0,000 mm 0,5 UV-I 207 W/m 12,7 C 30,3 C 11,3 km/h (2 Bft) 97,22 %
18.07.2017 18:56 30,2 C 25,0 C 35 % 1012,8 hPa 0,0 l/m 2,9 km/h (1 Bft) O-SO 122 2 min 0,000 mm 0,5 UV-I 199 W/m 13,0 C 30,2 C 6,4 km/h (2 Bft) 95,92 %
18.07.2017 18:58 30,2 C 25,0 C 35 % 1012,9 hPa 0,0 l/m 5,1 km/h (1 Bft) O-SO 112 2 min 0,000 mm 0,5 UV-I 187 W/m 13,0 C 30,2 C 9,7 km/h (2 Bft) 95,74 %
18.07.2017 19:00 30,2 C 25,0 C 36 % 1012,9 hPa 0,0 l/m 5,7 km/h (1 Bft) O 82 2 min 0,254 mm 0,0 UV-I 191 W/m 13,4 C 30,2 C 9,7 km/h (2 Bft) 94,00 %
18.07.2017 19:02 30,2 C 25,0 C 37 % 1012,9 hPa 0,0 l/m 6,6 km/h (2 Bft) O 84 2 min 0,000 mm 0,0 UV-I 193 W/m 13,9 C 30,2 C 11,3 km/h (2 Bft) 96,00 %
18.07.2017 19:04 30,2 C 25,0 C 37 % 1012,9 hPa 0,0 l/m 4,2 km/h (1 Bft) O-NO 65 2 min 0,000 mm 0,0 UV-I 194 W/m 13,9 C 30,2 C 6,4 km/h (2 Bft) 91,84 %
18.07.2017 19:06 30,1 C 25,0 C 37 % 1012,9 hPa 0,0 l/m 5,3 km/h (1 Bft) O-NO 63 2 min 0,000 mm 0,0 UV-I 157 W/m 13,8 C 30,1 C 8,0 km/h (2 Bft) 95,74 %
18.07.2017 19:08 30,1 C 25,0 C 38 % 1012,9 hPa 0,0 l/m 5,0 km/h (1 Bft) O 81 2 min 0,000 mm 0,0 UV-I 177 W/m 14,2 C 30,1 C 8,0 km/h (2 Bft) 94,74 %
18.07.2017 19:10 30,0 C 25,0 C 38 % 1013,0 hPa 0,0 l/m 7,4 km/h (2 Bft) O 81 2 min 0,000 mm 0,0 UV-I 173 W/m 14,1 C 29,9 C 12,9 km/h (3 Bft) 95,74 %
18.07.2017 19:12 29,9 C 25,0 C 38 % 1012,9 hPa 0,0 l/m 6,8 km/h (2 Bft) O-NO 67 2 min 0,000 mm 0,0 UV-I 145 W/m 14,0 C 29,9 C 11,3 km/h (2 Bft) 95,74 %
18.07.2017 19:14 29,8 C 25,0 C 38 % 1013,0 hPa 0,0 l/m 5,7 km/h (1 Bft) O-NO 66 0 min 0,000 mm 0,0 UV-I 112 W/m 13,9 C 29,8 C 9,7 km/h (2 Bft) 92,31 %
18.07.2017 19:16 29,7 C 25,0 C 38 % 1013,0 hPa 0,0 l/m 7,2 km/h (2 Bft) O-NO 67 0 min 0,000 mm 0,0 UV-I 100 W/m 13,8 C 29,6 C 12,9 km/h (3 Bft) 92,00 %
18.07.2017 19:18 29,6 C 25,0 C 39 % 1012,9 hPa 0,0 l/m 8,1 km/h (2 Bft) O-NO 76 0 min 0,000 mm 0,0 UV-I 132 W/m 14,2 C 29,4 C 14,5 km/h (3 Bft) 97,14 %
18.07.2017 19:20 29,5 C 25,0 C 40 % 1012,9 hPa 0,0 l/m 8,9 km/h (2 Bft) O-NO 73 0 min 0,000 mm 0,0 UV-I 116 W/m 14,5 C 29,2 C 14,5 km/h (3 Bft) 94,00 %
18.07.2017 19:22 29,4 C 25,0 C 40 % 1012,9 hPa 0,0 l/m 11,9 km/h (2 Bft) O-NO 71 0 min 0,000 mm 0,0 UV-I 92 W/m 14,4 C 28,9 C 17,7 km/h (3 Bft) 93,62 %
18.07.2017 19:24 29,3 C 25,0 C 40 % 1013,0 hPa 0,0 l/m 13,2 km/h (3 Bft) O-NO 75 0 min 0,000 mm 0,0 UV-I 95 W/m 14,3 C 28,6 C 20,9 km/h (4 Bft) 97,87 %
18.07.2017 19:26 29,2 C 25,0 C 41 % 1013,0 hPa 0,0 l/m 12,9 km/h (3 Bft) O-NO 65 0 min 0,000 mm 0,0 UV-I 92 W/m 14,6 C 28,6 C 17,7 km/h (3 Bft) 100,00 %
18.07.2017 19:28 29,1 C 25,0 C 41 % 1013,0 hPa 0,0 l/m 11,3 km/h (2 Bft) O-NO 61 0 min 0,000 mm 0,0 UV-I 85 W/m 14,5 C 28,6 C 17,7 km/h (3 Bft) 93,62 %
18.07.2017 19:30 29,0 C 25,0 C 41 % 1013,1 hPa 0,0 l/m 14,3 km/h (3 Bft) O 84 0 min 0,000 mm 0,0 UV-I 73 W/m 14,4 C 28,2 C 19,3 km/h (3 Bft) 97,87 %
18.07.2017 19:32 28,9 C 25,0 C 41 % 1013,1 hPa 0,0 l/m 10,8 km/h (2 Bft) O 80 0 min 0,000 mm 0,0 UV-I 71 W/m 14,3 C 28,4 C 17,7 km/h (3 Bft) 100,00 %
18.07.2017 19:34 28,8 C 25,0 C 41 % 1013,1 hPa 0,0 l/m 12,0 km/h (2 Bft) O-NO 76 0 min 0,000 mm 0,0 UV-I 64 W/m 14,2 C 28,2 C 17,7 km/h (3 Bft) 91,49 %
18.07.2017 19:36 28,7 C 25,0 C 42 % 1013,1 hPa 0,0 l/m 8,0 km/h (2 Bft) O-NO 67 0 min 0,000 mm 0,0 UV-I 63 W/m 14,5 C 28,5 C 14,5 km/h (3 Bft) 93,62 %
18.07.2017 19:38 28,6 C 25,0 C 43 % 1013,1 hPa 0,0 l/m 7,0 km/h (2 Bft) O-NO 71 0 min 0,000 mm 0,0 UV-I 66 W/m 14,8 C 28,5 C 12,9 km/h (3 Bft) 95,74 %
18.07.2017 19:40 28,4 C 25,0 C 43 % 1013,1 hPa 0,0 l/m 7,4 km/h (2 Bft) O-NO 78 0 min 0,000 mm 0,0 UV-I 69 W/m 14,6 C 28,3 C 12,9 km/h (3 Bft) 93,75 %
18.07.2017 19:42 28,3 C 25,0 C 43 % 1013,1 hPa 0,0 l/m 6,5 km/h (2 Bft) NO 56 0 min 0,000 mm 0,0 UV-I 76 W/m 14,5 C 28,3 C 11,3 km/h (2 Bft) 93,62 %
18.07.2017 19:44 28,3 C 25,0 C 44 % 1013,1 hPa 0,0 l/m 5,3 km/h (1 Bft) O-NO 76 0 min 0,000 mm 0,0 UV-I 81 W/m 14,9 C 28,3 C 8,0 km/h (2 Bft) 94,74 %
18.07.2017 19:46 28,2 C 25,0 C 44 % 1013,2 hPa 0,0 l/m 5,5 km/h (1 Bft) O 86 0 min 0,000 mm 0,0 UV-I 74 W/m 14,8 C 28,2 C 8,0 km/h (2 Bft) 95,74 %
18.07.2017 19:48 28,2 C 25,0 C 44 % 1013,2 hPa 0,0 l/m 6,4 km/h (2 Bft) O-NO 65 0 min 0,000 mm 0,0 UV-I 70 W/m 14,8 C 28,2 C 8,0 km/h (2 Bft) 97,87 %
18.07.2017 19:50 28,1 C 25,0 C 44 % 1013,2 hPa 0,0 l/m 5,1 km/h (1 Bft) O-NO 58 0 min 0,000 mm 0,0 UV-I 67 W/m 14,7 C 28,1 C 6,4 km/h (2 Bft) 93,62 %
18.07.2017 19:52 28,1 C 25,0 C 44 % 1013,2 hPa 0,0 l/m 4,7 km/h (1 Bft) O-NO 67 0 min 0,000 mm 0,0 UV-I 64 W/m 14,7 C 28,1 C 8,0 km/h (2 Bft) 97,87 %
18.07.2017 19:54 28,0 C 25,0 C 44 % 1013,2 hPa 0,0 l/m 4,9 km/h (1 Bft) O-NO 71 0 min 0,000 mm 0,0 UV-I 62 W/m 14,6 C 28,0 C 8,0 km/h (2 Bft) 93,62 %
18.07.2017 19:56 27,9 C 25,0 C 45 % 1013,2 hPa 0,0 l/m 4,3 km/h (1 Bft) O-NO 58 0 min 0,000 mm 0,0 UV-I 60 W/m 14,8 C 27,9 C 6,4 km/h (2 Bft) 95,74 %
18.07.2017 19:58 27,8 C 25,0 C 45 % 1013,2 hPa 0,0 l/m 4,2 km/h (1 Bft) O-NO 59 0 min 0,000 mm 0,0 UV-I 59 W/m 14,8 C 27,8 C 6,4 km/h (2 Bft) 96,00 %
18.07.2017 20:00 27,8 C 25,0 C 45 % 1013,1 hPa 0,0 l/m 3,6 km/h (1 Bft) O-NO 59 0 min 0,000 mm 0,0 UV-I 58 W/m 14,8 C 27,8 C 6,4 km/h (2 Bft) 95,74 %
18.07.2017 20:02 27,7 C 25,0 C 45 % 1013,1 hPa 0,0 l/m 3,4 km/h (1 Bft) O-NO 59 0 min 0,152 mm 0,0 UV-I 60 W/m 14,7 C 27,7 C 4,8 km/h (1 Bft) 95,74 %
18.07.2017 20:04 27,6 C 25,0 C 45 % 1013,2 hPa 0,0 l/m 3,5 km/h (1 Bft) O-NO 59 0 min 0,000 mm 0,0 UV-I 61 W/m 14,6 C 27,6 C 6,4 km/h (2 Bft) 100,00 %
18.07.2017 20:06 27,6 C 25,0 C 46 % 1013,1 hPa 0,0 l/m 3,0 km/h (1 Bft) O-NO 59 0 min 0,000 mm 0,0 UV-I 61 W/m 14,9 C 27,6 C 4,8 km/h (1 Bft) 97,87 %
18.07.2017 20:08 27,5 C 25,0 C 46 % 1013,2 hPa 0,0 l/m 3,1 km/h (1 Bft) O-NO 59 0 min 0,000 mm 0,0 UV-I 56 W/m 14,8 C 27,5 C 6,4 km/h (2 Bft) 95,74 %
18.07.2017 20:10 27,4 C 25,0 C 46 % 1013,2 hPa 0,0 l/m 3,2 km/h (1 Bft) O-NO 59 0 min 0,000 mm 0,0 UV-I 53 W/m 14,7 C 27,4 C 4,8 km/h (1 Bft) 95,74 %
18.07.2017 20:12 27,4 C 25,0 C 46 % 1013,2 hPa 0,0 l/m 3,3 km/h (1 Bft) O-NO 59 0 min 0,000 mm 0,0 UV-I 52 W/m 14,7 C 27,4 C 4,8 km/h (1 Bft) 95,74 %
18.07.2017 20:14 27,3 C 25,0 C 47 % 1013,2 hPa 0,0 l/m 4,0 km/h (1 Bft) O-NO 59 0 min 0,000 mm 0,0 UV-I 48 W/m 15,0 C 27,3 C 6,4 km/h (2 Bft) 96,00 %
18.07.2017 20:16 27,3 C 25,0 C 47 % 1013,2 hPa 0,0 l/m 3,4 km/h (1 Bft) O-NO 59 0 min 0,000 mm 0,0 UV-I 46 W/m 15,0 C 27,3 C 4,8 km/h (1 Bft) 97,22 %
18.07.2017 20:18 27,2 C 25,0 C 48 % 1013,2 hPa 0,0 l/m 3,2 km/h (1 Bft) O-NO 59 0 min 0,000 mm 0,0 UV-I 44 W/m 15,2 C 27,2 C 4,8 km/h (1 Bft) 95,74 %
18.07.2017 20:20 27,1 C 25,0 C 48 % 1013,2 hPa 0,0 l/m 2,4 km/h (1 Bft) O-NO 59 0 min 0,000 mm 0,0 UV-I 41 W/m 15,1 C 27,1 C 4,8 km/h (1 Bft) 100,00 %
18.07.2017 20:22 27,0 C 25,0 C 48 % 1013,2 hPa 0,0 l/m 3,2 km/h (1 Bft) O-NO 59 0 min 0,000 mm 0,0 UV-I 39 W/m 15,0 C 27,0 C 4,8 km/h (1 Bft) 97,87 %
18.07.2017 20:24 26,9 C 25,0 C 48 % 1013,2 hPa 0,0 l/m 4,0 km/h (1 Bft) O-NO 59 0 min 0,000 mm 0,0 UV-I 36 W/m 14,9 C 26,9 C 6,4 km/h (2 Bft) 95,74 %
18.07.2017 20:26 26,8 C 25,0 C 48 % 1013,2 hPa 0,0 l/m 4,0 km/h (1 Bft) O-NO 59 0 min 0,000 mm 0,0 UV-I 33 W/m 14,9 C 26,8 C 6,4 km/h (2 Bft) 100,00 %
18.07.2017 20:28 26,8 C 25,0 C 49 % 1013,2 hPa 0,0 l/m 3,6 km/h (1 Bft) O-NO 59 2 min 0,000 mm 0,0 UV-I 32 W/m 15,2 C 26,8 C 4,8 km/h (1 Bft) 97,87 %
18.07.2017 20:30 26,7 C 25,0 C 49 % 1013,2 hPa 0,0 l/m 3,4 km/h (1 Bft) O-NO 59 2 min 0,000 mm 0,0 UV-I 29 W/m 15,1 C 26,7 C 4,8 km/h (1 Bft) 97,87 %
18.07.2017 20:32 26,7 C 25,0 C 49 % 1013,2 hPa 0,0 l/m 4,1 km/h (1 Bft) O-NO 59 2 min 0,000 mm 0,0 UV-I 26 W/m 15,1 C 26,7 C 6,4 km/h (2 Bft) 97,87 %
18.07.2017 20:34 26,6 C 25,0 C 50 % 1013,2 hPa 0,0 l/m 3,7 km/h (1 Bft) O-NO 59 2 min 0,000 mm 0,0 UV-I 25 W/m 15,3 C 26,6 C 6,4 km/h (2 Bft) 95,74 %
18.07.2017 20:36 26,4 C 25,0 C 49 % 1013,2 hPa 0,0 l/m 4,7 km/h (1 Bft) O-NO 65 2 min 0,000 mm 0,0 UV-I 24 W/m 14,8 C 26,4 C 6,4 km/h (2 Bft) 97,87 %
18.07.2017 20:38 26,4 C 25,0 C 50 % 1013,2 hPa 0,0 l/m 3,0 km/h (1 Bft) O-NO 65 2 min 0,000 mm 0,0 UV-I 21 W/m 15,1 C 26,4 C 4,8 km/h (1 Bft) 98,00 %
18.07.2017 20:40 26,3 C 25,0 C 50 % 1013,3 hPa 0,0 l/m 1,8 km/h (1 Bft) O-NO 65 2 min 0,000 mm 0,0 UV-I 19 W/m 15,0 C 26,3 C 3,2 km/h (1 Bft) 95,74 %
18.07.2017 20:42 26,3 C 25,0 C 50 % 1013,3 hPa 0,0 l/m 2,7 km/h (1 Bft) O-NO 65 2 min 0,000 mm 0,0 UV-I 17 W/m 15,0 C 26,3 C 4,8 km/h (1 Bft) 100,00 %
18.07.2017 20:44 26,2 C 25,0 C 50 % 1013,3 hPa 0,0 l/m 3,2 km/h (1 Bft) O-NO 65 2 min 0,000 mm 0,0 UV-I 16 W/m 14,9 C 26,2 C 4,8 km/h (1 Bft) 94,29 %
18.07.2017 20:46 26,2 C 25,0 C 51 % 1013,3 hPa 0,0 l/m 3,6 km/h (1 Bft) O-NO 65 0 min 0,000 mm 0,0 UV-I 14 W/m 15,2 C 26,2 C 4,8 km/h (1 Bft) 97,92 %
18.07.2017 20:48 26,1 C 25,0 C 50 % 1013,2 hPa 0,0 l/m 4,1 km/h (1 Bft) O-NO 65 0 min 0,000 mm 0,0 UV-I 13 W/m 14,8 C 26,1 C 6,4 km/h (2 Bft) 95,74 %
18.07.2017 20:50 26,1 C 25,0 C 50 % 1013,2 hPa 0,0 l/m 3,5 km/h (1 Bft) O-NO 65 0 min 0,000 mm 0,0 UV-I 12 W/m 14,8 C 26,1 C 4,8 km/h (1 Bft) 95,74 %
18.07.2017 20:52 26,1 C 25,0 C 50 % 1013,3 hPa 0,0 l/m 2,5 km/h (1 Bft) O-NO 65 0 min 0,000 mm 0,0 UV-I 11 W/m 14,8 C 26,1 C 3,2 km/h (1 Bft) 97,87 %
18.07.2017 20:54 26,1 C 25,0 C 50 % 1013,3 hPa 0,0 l/m 2,1 km/h (1 Bft) O-NO 65 0 min 0,000 mm 0,0 UV-I 11 W/m 14,8 C 26,1 C 4,8 km/h (1 Bft) 95,74 %
18.07.2017 20:56 26,1 C 25,0 C 50 % 1013,2 hPa 0,0 l/m 1,9 km/h (1 Bft) O-NO 65 0 min 0,000 mm 0,0 UV-I 9 W/m 14,8 C 26,1 C 4,8 km/h (1 Bft) 97,87 %
18.07.2017 20:58 26,0 C 25,0 C 51 % 1013,3 hPa 0,0 l/m 2,7 km/h (1 Bft) O-NO 65 0 min 0,000 mm 0,0 UV-I 7 W/m 15,1 C 26,0 C 4,8 km/h (1 Bft) 97,87 %
18.07.2017 21:00 25,9 C 25,0 C 51 % 1013,3 hPa 0,0 l/m 3,9 km/h (1 Bft) O-NO 65 0 min 0,000 mm 0,0 UV-I 7 W/m 15,0 C 25,9 C 4,8 km/h (1 Bft) 97,87 %
18.07.2017 21:02 25,8 C 25,0 C 51 % 1013,2 hPa 0,0 l/m 2,7 km/h (1 Bft) O-NO 65 0 min 0,051 mm 0,0 UV-I 6 W/m 14,9 C 25,8 C 3,2 km/h (1 Bft) 98,00 %
18.07.2017 21:04 25,7 C 25,0 C 51 % 1013,3 hPa 0,0 l/m 3,4 km/h (1 Bft) O-NO 65 0 min 0,000 mm 0,0 UV-I 5 W/m 14,8 C 25,7 C 4,8 km/h (1 Bft) 100,00 %
18.07.2017 21:06 25,6 C 25,0 C 52 % 1013,3 hPa 0,0 l/m 3,4 km/h (1 Bft) O-NO 65 0 min 0,000 mm 0,0 UV-I 5 W/m 15,0 C 25,6 C 4,8 km/h (1 Bft) 97,87 %
18.07.2017 21:08 25,6 C 25,0 C 52 % 1013,3 hPa 0,0 l/m 3,7 km/h (1 Bft) O-NO 65 0 min 0,000 mm 0,0 UV-I 5 W/m 15,0 C 25,6 C 4,8 km/h (1 Bft) 97,87 %
18.07.2017 21:10 25,5 C 25,0 C 52 % 1013,3 hPa 0,0 l/m 3,6 km/h (1 Bft) O-NO 65 0 min 0,000 mm 0,0 UV-I 7 W/m 14,9 C 25,5 C 6,4 km/h (2 Bft) 100,00 %
18.07.2017 21:12 25,4 C 25,0 C 52 % 1013,2 hPa 0,0 l/m 4,4 km/h (1 Bft) O-NO 66 0 min 0,000 mm 0,0 UV-I 7 W/m 14,8 C 25,4 C 8,0 km/h (2 Bft) 93,62 %
18.07.2017 21:14 25,4 C 25,0 C 52 % 1013,2 hPa 0,0 l/m 3,8 km/h (1 Bft) O-NO 66 0 min 0,000 mm 0,0 UV-I 5 W/m 14,8 C 25,4 C 4,8 km/h (1 Bft) 97,87 %
18.07.2017 21:16 25,4 C 25,0 C 52 % 1013,3 hPa 0,0 l/m 4,5 km/h (1 Bft) O-NO 66 0 min 0,000 mm 0,0 UV-I 4 W/m 14,8 C 25,4 C 6,4 km/h (2 Bft) 97,87 %
18.07.2017 21:18 25,4 C 25,0 C 52 % 1013,3 hPa 0,0 l/m 4,3 km/h (1 Bft) O-NO 66 0 min 0,000 mm 0,0 UV-I 0 W/m 14,8 C 25,4 C 6,4 km/h (2 Bft) 95,74 %
18.07.2017 21:20 25,3 C 25,0 C 52 % 1013,3 hPa 0,0 l/m 4,4 km/h (1 Bft) O-NO 66 0 min 0,000 mm 0,0 UV-I 0 W/m 14,7 C 25,3 C 6,4 km/h (2 Bft) 97,87 %
18.07.2017 21:22 25,3 C 25,0 C 52 % 1013,3 hPa 0,0 l/m 4,1 km/h (1 Bft) O-NO 66 0 min 0,000 mm 0,0 UV-I 0 W/m 14,7 C 25,3 C 6,4 km/h (2 Bft) 97,87 %
18.07.2017 21:24 25,2 C 25,0 C 53 % 1013,3 hPa 0,0 l/m 4,6 km/h (1 Bft) O-NO 66 0 min 0,000 mm 0,0 UV-I 0 W/m 14,9 C 25,2 C 6,4 km/h (2 Bft) 97,87 %
18.07.2017 21:26 25,2 C 25,0 C 53 % 1013,4 hPa 0,0 l/m 4,9 km/h (1 Bft) O-NO 66 0 min 0,000 mm 0,0 UV-I 0 W/m 14,9 C 25,2 C 6,4 km/h (2 Bft) 95,74 %
18.07.2017 21:28 25,2 C 25,0 C 52 % 1013,4 hPa 0,0 l/m 4,8 km/h (1 Bft) O-NO 65 0 min 0,000 mm 0,0 UV-I 0 W/m 14,6 C 25,2 C 6,4 km/h (2 Bft) 97,87 %
18.07.2017 21:30 25,2 C 25,0 C 53 % 1013,3 hPa 0,0 l/m 4,5 km/h (1 Bft) O-NO 66 0 min 0,000 mm 0,0 UV-I 0 W/m 14,9 C 25,2 C 6,4 km/h (2 Bft) 95,74 %
18.07.2017 21:32 25,2 C 25,0 C 52 % 1013,3 hPa 0,0 l/m 4,3 km/h (1 Bft) O-NO 66 0 min 0,000 mm 0,0 UV-I 0 W/m 14,6 C 25,2 C 6,4 km/h (2 Bft) 91,67 %
18.07.2017 21:34 25,2 C 25,0 C 52 % 1013,3 hPa 0,0 l/m 3,3 km/h (1 Bft) O-NO 65 0 min 0,000 mm 0,0 UV-I 0 W/m 14,6 C 25,2 C 4,8 km/h (1 Bft) 98,00 %
18.07.2017 21:36 25,2 C 25,0 C 52 % 1013,3 hPa 0,0 l/m 3,3 km/h (1 Bft) O 81 0 min 0,000 mm 0,0 UV-I 0 W/m 14,6 C 25,2 C 4,8 km/h (1 Bft) 91,49 %
18.07.2017 21:38 25,2 C 25,0 C 52 % 1013,4 hPa 0,0 l/m 2,3 km/h (1 Bft) O 81 0 min 0,000 mm 0,0 UV-I 0 W/m 14,6 C 25,2 C 3,2 km/h (1 Bft) 91,49 %
18.07.2017 21:40 25,2 C 25,0 C 52 % 1013,4 hPa 0,0 l/m 3,2 km/h (1 Bft) O 81 0 min 0,000 mm 0,0 UV-I 0 W/m 14,6 C 25,2 C 4,8 km/h (1 Bft) 97,87 %
18.07.2017 21:42 25,2 C 25,0 C 52 % 1013,4 hPa 0,0 l/m 3,6 km/h (1 Bft) O 81 0 min 0,000 mm 0,0 UV-I 0 W/m 14,6 C 25,2 C 6,4 km/h (2 Bft) 97,87 %
18.07.2017 21:44 25,2 C 25,0 C 52 % 1013,4 hPa 0,0 l/m 3,9 km/h (1 Bft) O 81 0 min 0,000 mm 0,0 UV-I 0 W/m 14,6 C 25,2 C 6,4 km/h (2 Bft) 94,34 %
18.07.2017 21:46 25,1 C 25,0 C 53 % 1013,4 hPa 0,0 l/m 3,2 km/h (1 Bft) O 81 0 min 0,000 mm 0,0 UV-I 0 W/m 14,8 C 25,1 C 4,8 km/h (1 Bft) 93,62 %
18.07.2017 21:48 24,9 C 25,0 C 53 % 1013,4 hPa 0,0 l/m 3,4 km/h (1 Bft) O 81 0 min 0,000 mm 0,0 UV-I 0 W/m 14,6 C 24,9 C 4,8 km/h (1 Bft) 95,74 %
18.07.2017 21:50 24,9 C 25,0 C 52 % 1013,4 hPa 0,0 l/m 3,1 km/h (1 Bft) O 81 0 min 0,000 mm 0,0 UV-I 0 W/m 14,4 C 24,9 C 4,8 km/h (1 Bft) 91,49 %
18.07.2017 21:52 25,0 C 25,0 C 53 % 1013,4 hPa 0,0 l/m 4,3 km/h (1 Bft) O-SO 110 0 min 0,000 mm 0,0 UV-I 0 W/m 14,7 C 25,0 C 6,4 km/h (2 Bft) 93,62 %
18.07.2017 21:54 25,0 C 25,0 C 53 % 1013,4 hPa 0,0 l/m 4,6 km/h (1 Bft) O-SO 106 0 min 0,000 mm 0,0 UV-I 0 W/m 14,7 C 25,0 C 6,4 km/h (2 Bft) 95,00 %
18.07.2017 21:56 24,9 C 25,0 C 53 % 1013,4 hPa 0,0 l/m 3,7 km/h (1 Bft) O-SO 106 0 min 0,000 mm 0,0 UV-I 0 W/m 14,6 C 24,9 C 4,8 km/h (1 Bft) 93,62 %
18.07.2017 21:58 24,9 C 25,0 C 53 % 1013,3 hPa 0,0 l/m 4,3 km/h (1 Bft) O-SO 106 0 min 0,000 mm 0,0 UV-I 0 W/m 14,6 C 24,9 C 6,4 km/h (2 Bft) 97,87 %
18.07.2017 22:00 24,9 C 25,0 C 53 % 1013,3 hPa 0,0 l/m 1,6 km/h (1 Bft) O-SO 106 0 min 0,000 mm 0,0 UV-I 0 W/m 14,6 C 24,9 C 3,2 km/h (1 Bft) 97,87 %
18.07.2017 22:02 24,9 C 25,0 C 54 % 1013,3 hPa 0,0 l/m 2,6 km/h (1 Bft) O-SO 106 0 min 0,051 mm 0,0 UV-I 0 W/m 14,9 C 24,9 C 4,8 km/h (1 Bft) 97,96 %
18.07.2017 22:04 24,8 C 25,0 C 55 % 1013,3 hPa 0,0 l/m 1,7 km/h (1 Bft) O-SO 106 0 min 0,000 mm 0,0 UV-I 0 W/m 15,1 C 24,8 C 3,2 km/h (1 Bft) 94,87 %
18.07.2017 22:06 24,6 C 25,0 C 56 % 1013,3 hPa 0,0 l/m 0,9 km/h (0 Bft) O-SO 106 0 min 0,000 mm 0,0 UV-I 0 W/m 15,2 C 24,6 C 3,2 km/h (1 Bft) 98,00 %
18.07.2017 22:08 24,4 C 25,0 C 56 % 1013,3 hPa 0,0 l/m 1,6 km/h (1 Bft) O-SO 106 0 min 0,000 mm 0,0 UV-I 0 W/m 15,0 C 24,4 C 3,2 km/h (1 Bft) 100,00 %
18.07.2017 22:10 24,2 C 25,0 C 57 % 1013,3 hPa 0,0 l/m 1,2 km/h (1 Bft) O-SO 106 0 min 0,000 mm 0,0 UV-I 0 W/m 15,1 C 24,2 C 3,2 km/h (1 Bft) 95,74 %
18.07.2017 22:12 23,9 C 25,0 C 58 % 1013,3 hPa 0,0 l/m 1,3 km/h (1 Bft) O-SO 106 0 min 0,000 mm 0,0 UV-I 0 W/m 15,1 C 23,9 C 3,2 km/h (1 Bft) 100,00 %
18.07.2017 22:14 23,7 C 25,0 C 58 % 1013,3 hPa 0,0 l/m 1,2 km/h (1 Bft) O-SO 106 0 min 0,000 mm 0,0 UV-I 0 W/m 14,9 C 23,7 C 3,2 km/h (1 Bft) 93,62 %
18.07.2017 22:16 23,7 C 25,0 C 60 % 1013,3 hPa 0,0 l/m 0,1 km/h (0 Bft) O-SO 106 0 min 0,000 mm 0,0 UV-I 0 W/m 15,5 C 23,7 C 1,6 km/h (1 Bft) 93,62 %
18.07.2017 22:18 23,6 C 25,0 C 59 % 1013,2 hPa 0,0 l/m 0,8 km/h (0 Bft) O-SO 106 0 min 0,000 mm 0,0 UV-I 0 W/m 15,1 C 23,6 C 3,2 km/h (1 Bft) 95,74 %
18.07.2017 22:20 23,6 C 25,0 C 60 % 1013,2 hPa 0,0 l/m 0,7 km/h (0 Bft) O-SO 106 0 min 0,000 mm 0,0 UV-I 0 W/m 15,4 C 23,6 C 3,2 km/h (1 Bft) 97,87 %
18.07.2017 22:22 23,4 C 25,0 C 61 % 1013,2 hPa 0,0 l/m 1,1 km/h (1 Bft) O-SO 106 0 min 0,000 mm 0,0 UV-I 0 W/m 15,4 C 23,4 C 3,2 km/h (1 Bft) 95,92 %
18.07.2017 22:24 23,3 C 25,0 C 61 % 1013,2 hPa 0,0 l/m 1,8 km/h (1 Bft) O-SO 106 0 min 0,000 mm 0,0 UV-I 0 W/m 15,3 C 23,3 C 3,2 km/h (1 Bft) 97,87 %
18.07.2017 22:26 23,2 C 25,0 C 62 % 1013,2 hPa 0,0 l/m 2,2 km/h (1 Bft) O-SO 106 0 min 0,000 mm 0,0 UV-I 0 W/m 15,5 C 23,2 C 4,8 km/h (1 Bft) 93,62 %
18.07.2017 22:28 23,2 C 25,0 C 62 % 1013,2 hPa 0,0 l/m 1,5 km/h (1 Bft) O-SO 106 0 min 0,000 mm 0,0 UV-I 0 W/m 15,5 C 23,2 C 3,2 km/h (1 Bft) 95,74 %
18.07.2017 22:30 23,1 C 25,0 C 63 % 1013,2 hPa 0,0 l/m 0,2 km/h (0 Bft) O-SO 106 0 min 0,000 mm 0,0 UV-I 0 W/m 15,7 C 23,1 C 1,6 km/h (1 Bft) 94,00 %
18.07.2017 22:32 23,0 C 25,0 C 63 % 1013,2 hPa 0,0 l/m 0,8 km/h (0 Bft) O-SO 106 0 min 0,000 mm 0,0 UV-I 0 W/m 15,6 C 23,0 C 1,6 km/h (1 Bft) 95,74 %
18.07.2017 22:34 23,0 C 25,0 C 63 % 1013,2 hPa 0,0 l/m 1,9 km/h (1 Bft) O-SO 106 0 min 0,000 mm 0,0 UV-I 0 W/m 15,6 C 23,0 C 3,2 km/h (1 Bft) 93,62 %
18.07.2017 22:36 23,0 C 25,0 C 64 % 1013,3 hPa 0,0 l/m 3,2 km/h (1 Bft) S-SW 207 0 min 0,000 mm 0,0 UV-I 0 W/m 15,8 C 23,0 C 6,4 km/h (2 Bft) 95,74 %
18.07.2017 22:38 23,0 C 25,0 C 64 % 1013,2 hPa 0,0 l/m 2,6 km/h (1 Bft) S-SW 207 0 min 0,000 mm 0,0 UV-I 0 W/m 15,8 C 23,0 C 4,8 km/h (1 Bft) 95,74 %
18.07.2017 22:40 23,0 C 25,0 C 63 % 1013,3 hPa 0,0 l/m 3,5 km/h (1 Bft) S-SW 206 0 min 0,000 mm 0,0 UV-I 0 W/m 15,6 C 23,0 C 4,8 km/h (1 Bft) 93,62 %
18.07.2017 22:42 23,0 C 25,0 C 63 % 1013,3 hPa 0,0 l/m 3,6 km/h (1 Bft) S-SW 205 0 min 0,000 mm 0,0 UV-I 0 W/m 15,6 C 23,0 C 4,8 km/h (1 Bft) 94,74 %
18.07.2017 22:44 23,1 C 25,0 C 62 % 1013,3 hPa 0,0 l/m 3,0 km/h (1 Bft) S-SW 198 0 min 0,000 mm 0,0 UV-I 0 W/m 15,4 C 23,1 C 4,8 km/h (1 Bft) 91,49 %
18.07.2017 22:46 23,2 C 25,0 C 63 % 1013,4 hPa 0,0 l/m 3,4 km/h (1 Bft) S-SW 198 0 min 0,000 mm 0,0 UV-I 0 W/m 15,8 C 23,2 C 4,8 km/h (1 Bft) 95,74 %
18.07.2017 22:48 23,2 C 25,0 C 62 % 1013,4 hPa 0,0 l/m 4,1 km/h (1 Bft) S-SW 198 0 min 0,000 mm 0,0 UV-I 0 W/m 15,5 C 23,2 C 6,4 km/h (2 Bft) 95,83 %
18.07.2017 22:50 23,2 C 25,0 C 62 % 1013,4 hPa 0,0 l/m 2,7 km/h (1 Bft) S-SW 198 0 min 0,000 mm 0,0 UV-I 0 W/m 15,5 C 23,2 C 4,8 km/h (1 Bft) 93,62 %
18.07.2017 22:52 23,3 C 25,0 C 62 % 1013,4 hPa 0,0 l/m 3,9 km/h (1 Bft) S-SW 199 0 min 0,000 mm 0,0 UV-I 0 W/m 15,6 C 23,3 C 6,4 km/h (2 Bft) 96,00 %
18.07.2017 22:54 23,3 C 25,0 C 62 % 1013,3 hPa 0,0 l/m 4,1 km/h (1 Bft) S-SW 209 0 min 0,000 mm 0,0 UV-I 0 W/m 15,6 C 23,3 C 6,4 km/h (2 Bft) 92,00 %
18.07.2017 22:56 23,4 C 25,0 C 62 % 1013,3 hPa 0,0 l/m 2,5 km/h (1 Bft) S-SW 209 0 min 0,000 mm 0,0 UV-I 0 W/m 15,7 C 23,4 C 4,8 km/h (1 Bft) 97,87 %
18.07.2017 22:58 23,4 C 25,0 C 62 % 1013,3 hPa 0,0 l/m 1,8 km/h (1 Bft) S-SW 209 0 min 0,000 mm 0,0 UV-I 0 W/m 15,7 C 23,4 C 4,8 km/h (1 Bft) 95,74 %
18.07.2017 23:00 23,4 C 25,0 C 62 % 1013,3 hPa 0,0 l/m 1,4 km/h (1 Bft) S-SW 209 0 min 0,000 mm 0,0 UV-I 0 W/m 15,7 C 23,4 C 3,2 km/h (1 Bft) 95,74 %
18.07.2017 23:02 23,5 C 25,0 C 62 % 1013,3 hPa 0,0 l/m 2,2 km/h (1 Bft) S-SW 209 0 min 0,025 mm 0,0 UV-I 0 W/m 15,8 C 23,5 C 3,2 km/h (1 Bft) 95,74 %
18.07.2017 23:04 23,5 C 25,0 C 62 % 1013,3 hPa 0,0 l/m 2,8 km/h (1 Bft) S-SW 209 0 min 0,000 mm 0,0 UV-I 0 W/m 15,8 C 23,5 C 4,8 km/h (1 Bft) 95,74 %
18.07.2017 23:06 23,4 C 25,0 C 62 % 1013,3 hPa 0,0 l/m 2,1 km/h (1 Bft) S-SW 209 0 min 0,000 mm 0,0 UV-I 0 W/m 15,7 C 23,4 C 3,2 km/h (1 Bft) 94,74 %
18.07.2017 23:08 23,4 C 25,0 C 63 % 1013,3 hPa 0,0 l/m 1,0 km/h (0 Bft) S-SW 209 0 min 0,000 mm 0,0 UV-I 0 W/m 15,9 C 23,4 C 3,2 km/h (1 Bft) 93,62 %
18.07.2017 23:10 23,3 C 25,0 C 63 % 1013,3 hPa 0,0 l/m 2,0 km/h (1 Bft) S-SW 209 0 min 0,000 mm 0,0 UV-I 0 W/m 15,9 C 23,3 C 3,2 km/h (1 Bft) 93,88 %
18.07.2017 23:12 23,1 C 25,0 C 64 % 1013,3 hPa 0,0 l/m 3,4 km/h (1 Bft) S-SW 211 0 min 0,000 mm 0,0 UV-I 0 W/m 15,9 C 23,1 C 6,4 km/h (2 Bft) 93,62 %
18.07.2017 23:14 22,9 C 25,0 C 65 % 1013,3 hPa 0,0 l/m 2,8 km/h (1 Bft) S-SW 209 0 min 0,000 mm 0,0 UV-I 0 W/m 16,0 C 22,9 C 4,8 km/h (1 Bft) 95,74 %
18.07.2017 23:16 22,8 C 25,0 C 66 % 1013,3 hPa 0,0 l/m 3,9 km/h (1 Bft) S-SW 209 0 min 0,000 mm 0,0 UV-I 0 W/m 16,1 C 22,8 C 6,4 km/h (2 Bft) 94,00 %
18.07.2017 23:18 22,8 C 25,0 C 66 % 1013,3 hPa 0,0 l/m 3,9 km/h (1 Bft) S-SW 208 0 min 0,000 mm 0,0 UV-I 0 W/m 16,1 C 22,8 C 6,4 km/h (2 Bft) 97,96 %
18.07.2017 23:20 22,7 C 25,0 C 66 % 1013,3 hPa 0,0 l/m 5,2 km/h (1 Bft) S-SW 213 0 min 0,000 mm 0,0 UV-I 0 W/m 16,0 C 22,7 C 8,0 km/h (2 Bft) 95,74 %
18.07.2017 23:22 22,7 C 25,0 C 65 % 1013,3 hPa 0,0 l/m 6,9 km/h (2 Bft) SW 221 0 min 0,000 mm 0,0 UV-I 0 W/m 15,8 C 22,5 C 11,3 km/h (2 Bft) 94,74 %
18.07.2017 23:24 22,8 C 25,0 C 65 % 1013,3 hPa 0,0 l/m 6,0 km/h (2 Bft) SW 234 0 min 0,000 mm 0,0 UV-I 0 W/m 15,9 C 22,8 C 8,0 km/h (2 Bft) 95,74 %
18.07.2017 23:26 22,8 C 25,0 C 65 % 1013,3 hPa 0,0 l/m 6,3 km/h (2 Bft) SW 219 0 min 0,000 mm 0,0 UV-I 0 W/m 15,9 C 22,8 C 8,0 km/h (2 Bft) 93,75 %
18.07.2017 23:28 22,8 C 25,0 C 66 % 1013,3 hPa 0,0 l/m 4,6 km/h (1 Bft) SW 219 0 min 0,000 mm 0,0 UV-I 0 W/m 16,1 C 22,8 C 8,0 km/h (2 Bft) 97,87 %
18.07.2017 23:30 22,7 C 25,0 C 66 % 1013,3 hPa 0,0 l/m 3,2 km/h (1 Bft) SW 219 0 min 0,000 mm 0,0 UV-I 0 W/m 16,0 C 22,7 C 4,8 km/h (1 Bft) 91,49 %
18.07.2017 23:32 22,7 C 25,0 C 66 % 1013,3 hPa 0,0 l/m 3,6 km/h (1 Bft) SW 219 0 min 0,000 mm 0,0 UV-I 0 W/m 16,0 C 22,7 C 4,8 km/h (1 Bft) 95,74 %
18.07.2017 23:34 22,7 C 25,0 C 66 % 1013,2 hPa 0,0 l/m 1,5 km/h (1 Bft) SW 219 0 min 0,000 mm 0,0 UV-I 0 W/m 16,0 C 22,7 C 3,2 km/h (1 Bft) 94,00 %
18.07.2017 23:36 22,6 C 25,0 C 65 % 1013,2 hPa 0,0 l/m 1,1 km/h (1 Bft) SW 219 0 min 0,000 mm 0,0 UV-I 0 W/m 15,7 C 22,6 C 3,2 km/h (1 Bft) 95,74 %
18.07.2017 23:38 22,6 C 25,0 C 66 % 1013,2 hPa 0,0 l/m 0,2 km/h (0 Bft) SW 219 0 min 0,000 mm 0,0 UV-I 0 W/m 15,9 C 22,6 C 1,6 km/h (1 Bft) 95,92 %
18.07.2017 23:40 22,5 C 25,0 C 65 % 1013,2 hPa 0,0 l/m 0,0 km/h (0 Bft) SW 219 0 min 0,000 mm 0,0 UV-I 0 W/m 15,6 C 22,5 C 0,0 km/h (0 Bft) 95,74 %
18.07.2017 23:42 22,6 C 25,0 C 65 % 1013,2 hPa 0,0 l/m 0,0 km/h (0 Bft) SW 219 0 min 0,000 mm 0,0 UV-I 0 W/m 15,7 C 22,6 C 0,0 km/h (0 Bft) 95,74 %
18.07.2017 23:44 22,4 C 25,0 C 65 % 1013,3 hPa 0,0 l/m 0,0 km/h (0 Bft) SW 219 0 min 0,000 mm 0,0 UV-I 0 W/m 15,5 C 22,4 C 0,0 km/h (0 Bft) 91,43 %
18.07.2017 23:46 22,3 C 25,0 C 66 % 1013,3 hPa 0,0 l/m 0,0 km/h (0 Bft) SW 219 0 min 0,000 mm 0,0 UV-I 0 W/m 15,6 C 22,3 C 0,0 km/h (0 Bft) 98,00 %
18.07.2017 23:48 22,3 C 25,0 C 66 % 1013,3 hPa 0,0 l/m 0,0 km/h (0 Bft) SW 219 0 min 0,000 mm 0,0 UV-I 0 W/m 15,6 C 22,3 C 0,0 km/h (0 Bft) 97,87 %
18.07.2017 23:50 22,3 C 25,0 C 66 % 1013,3 hPa 0,0 l/m 0,0 km/h (0 Bft) SW 219 0 min 0,000 mm 0,0 UV-I 0 W/m 15,6 C 22,3 C 0,0 km/h (0 Bft) 95,74 %
18.07.2017 23:52 22,3 C 25,0 C 67 % 1013,3 hPa 0,0 l/m 0,0 km/h (0 Bft) SW 219 0 min 0,000 mm 0,0 UV-I 0 W/m 15,9 C 22,3 C 0,0 km/h (0 Bft) 97,87 %
18.07.2017 23:54 22,2 C 25,0 C 68 % 1013,3 hPa 0,0 l/m 0,0 km/h (0 Bft) SW 219 0 min 0,000 mm 0,0 UV-I 0 W/m 16,0 C 22,2 C 0,0 km/h (0 Bft) 95,74 %
18.07.2017 23:56 22,2 C 25,0 C 67 % 1013,3 hPa 0,0 l/m 0,1 km/h (0 Bft) SW 219 0 min 0,000 mm 0,0 UV-I 0 W/m 15,8 C 22,2 C 1,6 km/h (1 Bft) 100,00 %
18.07.2017 23:58 22,1 C 25,0 C 67 % 1013,3 hPa 0,0 l/m 1,0 km/h (0 Bft) SW 219 0 min 0,000 mm 0,0 UV-I 0 W/m 15,7 C 22,1 C 3,2 km/h (1 Bft) 97,87 %
_ Min-Zeit 05:50 01:34 17:10 18:40 - 00:08 - - - - - - 14:18 05:50 00:08 08:10
Minimum _ 13,9 C 22,8 C 30 % 1012,7 hPa - 0,0 km/h (0 Bft) - - - - - - 11,2 C 13,9 C 0,0 km/h (0 Bft) 85,11 %
_ Max-Zeit 17:08 15:36 06:00 00:38 00:00 12:46 - - 08:13 13:00 12:58 13:24 23:16 17:08 12:46 00:08
Maximum _ 31,3 C 25,0 C 89 % 1018,7 hPa 0,0 l/m 14,7 km/h
NO (3 Bft)
- - 3 min 0,635 mm 6,7 UV-I 892 W/m 16,1 C 31,3 C 22,5 km/h
O-NO (4 Bft)
100,00 %
Durchschnitt _ 23,2 C 23,8 C 59 % 1016,1 hPa #0,0 l/m 4,1 km/h (1 Bft) O-NO - #13:32 h #5,842 mm 3,7 UV-I 478 W/m 13,8 C 23,1 C 7,3 km/h (2 Bft) 96,27 %